[[{"header":{"parameterUnit":"m.s-1","parameterCategory":1,"la1":30.6,"la2":28.766,"lo1":-90.7593,"lo2":-88.6598,"dy":0.0162,"dx":0.0183,"nx":116,"ny":114,"refTime":"2023-05-15T06:00:00:Z","depth":0,"parameterNumber":2,"parameterNumberName":"U-component_of_WINDS"},"data":[0.0,0.0,0.0,0.0,0.0,0.0,0.0,0.0,0.0,0.0,0.0,0.0,0.0,0.0,0.0,0.0,0.0,0.0,0.0,0.0,0.0,0.0,0.0,0.0,0.0,0.0,0.0,0.0,0.0,0.0,0.0,0.0,0.0,0.0,0.0,0.0,0.0,0.0,0.0,0.0,0.0,0.0,0.0,0.0,0.0,0.0,0.0,0.0,0.0,0.0,0.0,0.0,0.0,0.0,0.0,0.0,0.0,0.0,0.0,0.0,0.0,0.0,0.0,0.0,0.0,0.0,0.0,0.0,0.0,0.0,0.0,0.0,0.0,0.0,0.0,0.0,0.0,0.0,0.0,0.0,0.0,0.0,0.0,0.0,0.0,0.0,0.0,0.0,0.0,0.0,0.0,0.0,0.0,0.0,0.0,0.0,0.0,0.0,0.0,0.0,0.0,0.0,0.0,0.0,0.0,0.0,0.0,0.0,0.0,0.0,0.0,0.0,0.0,0.0,0.0,0.0,0.0,0.0,0.0,0.0,0.0,0.0,0.0,0.0,0.0,0.0,0.0,0.0,0.0,0.0,0.0,0.0,0.0,0.0,0.0,0.0,0.0,0.0,0.0,0.0,0.0,0.0,0.0,0.0,0.0,0.0,0.0,0.0,0.0,0.0,0.0,0.0,0.0,0.0,0.0,0.0,0.0,0.0,0.0,0.0,0.0,0.0,0.0,0.0,0.0,0.0,0.0,0.0,0.0,0.0,0.0,0.0,0.0,0.0,0.0,0.0,0.0,0.0,0.0,0.0,0.0,0.0,0.0,0.0,0.0,0.0,0.0,0.0,0.0,0.0,0.0,0.0,0.0,0.0,0.0,0.0,0.0,0.0,0.0,0.0,0.0,0.0,0.0,0.0,0.0,0.0,0.0,0.0,0.0,0.0,0.0,0.0,0.0,0.0,0.0,0.0,0.0,0.0,0.0,0.0,0.0,0.0,0.0,0.0,0.0,0.0,0.0,0.0,0.0,0.0,0.0,0.0,0.0,0.0,0.0,0.0,0.0,0.0,0.0,0.0,0.0,0.0,0.0,0.0,0.0,0.0,0.0,0.0,0.0,0.0,0.0,0.0,0.0,0.0,0.0,0.0,0.0,0.0,0.0,0.0,0.0,0.0,0.0,0.0,0.0,0.0,0.0,0.0,0.0,0.0,0.0,0.0,0.0,0.0,0.0,0.0,0.0,0.0,0.0,0.0,0.0,0.0,0.0,0.0,0.0,0.0,0.0,0.0,0.0,0.0,0.0,0.0,0.0,0.0,0.0,0.0,0.0,0.0,0.0,0.0,0.0,0.0,0.0,0.0,0.0,0.0,0.0,0.0,0.0,0.0,0.0,0.0,0.0,0.0,0.0,0.0,0.0,0.0,0.0,0.0,0.0,0.0,0.0,0.0,0.0,0.0,0.0,0.0,0.0,0.0,0.0,0.0,0.0,0.0,0.0,0.0,0.0,0.0,0.0,0.0,0.0,0.0,0.0,0.0,0.0,0.0,0.0,0.0,0.0,0.0,0.0,0.0,0.0,0.0,0.0,0.0,0.0,0.0,0.0,0.0,0.0,0.0,0.0,0.0,0.0,0.0,0.0,0.0,0.0,0.0,0.0,0.0,0.0,0.0,0.0,0.0,0.0,0.0,0.0,0.0,0.0,0.0,0.0,0.0,0.0,0.0,0.0,0.0,0.0,0.0,0.0,0.0,0.0,0.0,0.0,0.0,0.0,0.0,0.0,0.0,0.0,0.0,0.0,0.0,0.0,0.0,0.0,0.0,0.0,0.0,0.0,0.0,0.0,0.0,0.0,0.0,0.0,0.0,0.0,0.0,0.0,0.0,0.0,0.0,0.0,0.0,0.0,0.0,0.0,0.0,0.0,0.0,0.0,0.0,0.0,0.0,0.0,0.0,0.0,0.0,0.0,0.0,0.0,0.0,0.0,0.0,0.0,0.0,0.0,0.0,0.0,0.0,0.0,0.0,0.0,0.0,0.0,0.0,0.0,0.0,0.0,0.0,0.0,0.0,0.0,0.0,0.0,0.0,0.0,0.0,0.0,0.0,0.0,0.0,0.0,0.0,0.0,0.0,0.0,0.0,0.0,0.0,0.0,0.0,0.0,0.0,0.0,0.0,0.0,0.0,0.0,0.0,0.0,0.0,0.0,0.0,0.0,0.0,0.0,0.0,0.0,0.0,0.0,0.0,0.0,0.0,0.0,0.0,0.0,0.0,0.0,0.0,0.0,0.0,0.0,0.0,0.0,0.0,0.0,0.0,0.0,0.0,0.0,0.0,0.0,0.0,0.0,0.0,0.0,0.0,0.0,0.0,0.0,0.0,0.0,0.0,0.0,0.0,0.0,0.0,0.0,0.0,0.0,0.0,0.0,0.0,0.0,0.0,0.0,0.0,0.0,0.0,0.0,0.0,0.0,0.0,0.0,0.0,0.0,0.0,0.0,0.0,0.0,0.0,0.0,0.0,0.0,0.0,0.0,0.0,0.0,0.0,0.0,0.0,0.0,0.0,0.0,0.0,0.0,0.0,0.0,0.0,0.0,0.0,0.0,0.0,0.0,0.0,0.0,0.0,0.0,0.0,0.0,0.0,0.0,0.0,0.0,0.0,0.0,0.0,0.0,0.0,0.0,0.0,0.0,0.0,0.0,0.0,0.0,0.0,0.0,0.0,0.0,0.0,0.0,0.0,0.0,0.0,0.0,0.0,0.0,0.0,0.0,0.0,0.0,0.0,0.0,0.0,0.0,0.0,0.0,0.0,0.0,0.0,0.0,0.0,0.0,0.0,0.0,0.0,0.0,0.0,0.0,0.0,0.0,0.0,0.0,0.0,0.0,0.0,0.0,0.0,0.0,0.0,0.0,0.0,0.0,0.0,0.0,0.0,0.0,0.0,0.0,0.0,0.0,0.0,0.0,0.0,0.0,0.0,0.0,0.0,0.0,0.0,0.0,0.0,0.0,0.0,0.0,0.0,0.0,0.0,0.0,0.0,0.0,0.0,0.0,0.0,0.0,0.0,0.0,0.0,0.0,0.0,0.0,0.0,0.0,0.0,0.0,0.0,0.0,0.0,0.0,0.0,0.0,0.0,0.0,0.0,0.0,0.0,0.0,0.0,0.0,0.0,0.0,0.0,0.0,0.0,0.0,0.0,0.0,0.0,0.0,0.0,0.0,0.0,0.0,0.0,0.0,0.0,0.0,0.0,0.0,0.0,0.0,0.0,0.0,0.0,0.0,0.0,0.0,0.0,0.0,0.0,0.0,0.0,0.0,0.0,0.0,0.0,0.0,0.0,0.0,0.0,0.0,0.0,0.0,0.0,0.0,0.0,0.0,0.0,0.0,0.0,0.0,0.0,0.0,0.0,0.0,0.0,0.0,0.0,0.0,0.0,0.0,0.0,0.0,0.0,0.0,0.0,0.0,0.0,0.0,0.0,0.0,0.0,0.0,0.0,0.0,0.0,0.0,0.0,0.0,0.0,0.0,0.0,0.0,0.0,0.0,0.0,0.0,0.0,0.0,0.0,0.0,0.0,0.0,0.0,0.0,0.0,0.0,0.0,0.0,0.0,0.0,0.0,0.0,0.0,0.0,0.0,0.0,0.0,0.0,0.0,0.0,0.0,0.0,0.0,0.0,0.0,0.0,0.0,0.0,0.0,0.0,0.0,0.0,0.0,0.0,0.0,0.0,0.0,0.0,0.0,0.0,0.0,0.0,0.0,0.0,0.0,0.0,0.0,0.0,0.0,0.0,0.0,0.0,0.0,0.0,0.0,0.0,0.0,0.0,0.0,0.0,0.0,0.0,0.0,0.0,0.0,0.0,0.0,0.0,0.0,0.0,0.0,0.0,0.0,0.0,0.0,0.0,0.0,0.0,0.0,0.0,0.0,0.0,0.0,0.0,0.0,0.0,0.0,0.0,0.0,0.0,0.0,0.0,0.0,0.0,0.0,0.0,0.0,0.0,0.0,0.0,0.0,0.0,0.0,0.0,0.0,0.0,0.0,0.0,0.0,0.0,0.0,0.0,0.0,0.0,0.0,0.0,0.0,0.0,0.0,0.0,0.0,0.0,0.0,0.0,0.0,0.0,0.0,0.0,0.0,0.0,0.0,0.0,0.0,0.0,0.0,0.0,0.0,0.0,0.0,0.0,0.0,0.0,0.0,0.0,0.0,0.0,0.0,0.0,0.0,0.0,0.0,0.0,0.0,0.0,0.0,0.0,0.0,0.0,0.0,0.0,0.0,0.0,0.0,0.0,0.0,0.0,0.0,0.0,0.0,0.0,0.0,0.0,0.0,0.0,0.0,0.0,0.0,0.0,0.0,0.0,0.0,0.0,0.0,0.0,0.0,0.0,0.0,0.0,0.0,0.0,0.0,0.0,0.0,0.0,0.0,0.0,0.0,0.0,0.0,0.0,0.0,0.0,0.0,0.0,0.0,0.0,0.0,0.0,0.0,0.0,0.0,0.0,0.0,0.0,0.0,0.0,0.0,0.0,0.0,0.0,0.0,0.0,0.0,0.0,0.0,0.0,0.0,0.0,0.0,0.0,0.0,0.0,0.0,0.0,0.0,0.0,0.0,0.0,0.0,0.0,0.0,0.0,0.0,0.0,0.0,0.0,0.0,0.0,0.0,0.0,0.0,0.0,0.0,0.0,0.0,0.0,0.0,0.0,0.0,0.0,0.0,0.0,0.0,0.0,0.0,0.0,0.0,0.0,0.0,0.0,0.0,0.0,0.0,0.0,0.0,0.0,0.0,0.0,0.0,0.0,0.0,0.0,0.0,0.0,0.0,0.0,0.0,0.0,0.0,0.0,0.0,0.0,0.0,0.0,0.0,0.0,0.0,0.0,0.0,0.0,0.0,0.0,0.0,0.0,0.0,0.0,0.0,0.0,0.0,0.0,0.0,0.0,0.0,0.0,0.0,0.0,0.0,0.0,0.0,0.0,0.0,0.0,0.0,0.0,0.0,0.0,0.0,0.0,0.0,0.0,0.0,0.0,0.0,0.0,0.0,0.0,0.0,0.0,0.0,0.0,0.0,0.0,0.0,0.0,0.0,0.0,0.0,0.0,0.0,0.0,0.0,0.0,0.0,0.0,0.0,0.0,0.0,0.0,0.0,0.0,0.0,0.0,0.0,0.0,0.0,0.0,0.0,0.0,0.0,0.0,0.0,0.0,0.0,0.0,0.0,0.0,0.0,0.0,0.0,0.0,0.0,0.0,0.0,0.0,0.0,0.0,0.0,0.0,0.0,0.0,0.0,0.0,0.0,0.0,0.0,0.0,0.0,0.0,0.0,0.0,0.0,0.0,0.0,0.0,0.0,0.0,0.0,0.0,0.0,0.0,0.0,0.0,0.0,0.0,0.0,0.0,0.0,0.0,0.0,0.0,0.0,0.0,0.0,0.0,0.0,0.0,0.0,0.0,0.0,0.0,0.0,0.0,0.0,0.0,0.0,0.0,0.0,0.0,0.0,0.0,0.0,0.0,0.0,0.0,0.0,0.0,0.0,0.0,0.0,0.0,0.0,0.0,0.0,0.0,0.0,0.0,0.0,0.0,0.0,0.0,0.0,0.0,0.0,0.0,0.0,0.0,0.0,0.0,0.0,0.0,0.0,0.0,0.0,0.0,0.0,0.0,0.0,0.0,0.0,0.0,0.0,0.0,0.0,0.0,0.0,0.0,0.0,0.0,0.0,0.0,0.0,0.0,0.0,0.0,0.0,0.0,0.0,0.0,0.0,0.0,0.0,0.0,0.0,0.0,0.0,0.0,0.0,0.0,0.0,0.0,0.0,0.0,0.0,0.0,0.0,0.0,0.0,0.0,0.0,0.0,0.0,0.0,0.0,0.0,0.0,0.0,0.0,0.0,0.0,0.0,0.0,0.0,0.0,0.0,0.0,0.0,0.0,0.0,0.0,0.0,0.0,0.0,0.0,0.0,0.0,0.0,0.0,0.0,0.0,0.0,0.0,0.0,0.0,0.0,0.0,0.0,0.0,0.0,0.0,0.0,0.0,0.0,0.0,0.0,0.0,0.0,0.0,0.0,0.0,0.0,0.0,0.0,0.0,0.0,0.0,0.8252,0.7662,0.0,0.0,0.0,0.0,0.0,0.0,0.0,0.0,0.0,0.0,0.0,0.0,0.0,0.0,0.0,0.0,0.0,0.0,0.0,0.0,0.0,0.0,0.0,0.0,0.0,0.0,0.0,0.0,0.0,0.0,0.0,0.0,0.0,0.0,0.0,0.0,0.0,0.0,0.0,0.0,0.0,0.0,0.0,0.0,0.0,0.0,0.0,0.0,0.0,0.0,0.0,0.0,0.0,0.0,0.0,0.0,0.0,0.0,0.0,0.0,0.0,0.0,0.0,0.0,0.0,0.0,0.0,0.0,0.0,0.0,0.0,0.0,0.0,0.0,0.0,0.0,0.0,0.0,0.0,0.0,0.0,0.0,0.0,0.0,0.0,0.0,0.0,0.0,0.0,0.0,0.0,0.0,0.0,0.0,0.0,0.0,0.0,0.0,0.0,0.0,0.0,0.0,0.0,0.0,0.0,0.0,0.0,0.0,0.0,0.0,0.0,0.0,0.0,0.0,0.9323,0.8527,0.0,0.0,0.0,0.0,0.0,0.0,0.0,0.0,0.0,0.0,0.0,0.0,0.0,0.0,0.0,0.0,0.0,0.0,0.0,0.0,0.0,0.0,0.0,0.0,0.0,0.0,0.0,0.0,0.0,0.0,0.0,0.0,0.0,0.0,0.0,0.0,0.0,0.0,0.0,0.0,0.0,0.0,0.0,0.0,0.0,0.0,0.0,0.0,0.0,0.0,0.0,0.0,0.0,0.0,0.0,0.0,0.0,0.0,0.0,0.0,0.0,0.0,0.0,0.0,0.0,0.0,0.0,0.0,0.0,0.0,0.0,0.0,0.0,0.0,0.0,0.0,0.0,0.0,0.0,0.0,0.0,0.0,0.0,0.0,0.0,0.0,0.0,0.0,0.0,0.0,0.0,0.0,0.0,0.0,0.0,0.0,0.0,0.0,0.0,0.0,0.0,0.0,0.0,0.0,0.0,0.0,0.0,0.0,1.0514,1.0909,1.1376,1.1376,1.1777,1.2365,1.0722,1.0,0.992,0.9098,0.0,0.0,0.0,0.0,0.0,0.0,0.0,0.0,0.0,0.0,0.0,0.0,0.0,0.0,0.0,0.0,0.0,0.0,0.0,0.0,0.0,0.0,0.0,0.0,0.0,0.0,0.0,0.0,0.0,0.0,0.0,0.0,0.0,0.0,0.0,0.0,0.0,0.0,1.0722,1.1523,1.1837,1.1663,1.0134,0.0,0.0,0.0,0.0,0.0,0.0,0.0,0.0,0.0,0.0,0.0,0.0,0.0,0.0,0.0,0.0,0.0,0.0,0.0,0.0,0.0,0.0,0.0,0.0,0.0,0.0,0.0,0.0,0.0,0.0,0.0,0.0,0.0,0.0,0.0,0.0,0.0,0.0,0.0,0.0,0.0,0.0,0.0,0.7495,0.8036,0.0,0.0,0.0,0.0,0.0,0.0,0.0,0.0,0.0,0.0,0.0,0.0,0.0,1.0013,1.125,1.1552,1.1906,1.2419,1.2659,1.2846,1.2919,1.2919,1.2979,1.3093,1.3073,0.0,1.1149,1.0528,0.0,0.0,0.0,0.0,0.0,0.0,0.0,0.0,0.0,0.0,0.0,0.0,0.0,0.0,0.0,0.0,0.0,0.0,0.0,0.0,0.0,0.0,0.0,0.0,0.0,0.0,0.0,0.0,0.0,0.0,0.0,0.0,0.0,0.0,0.0,0.0,1.0394,1.149,1.2251,1.2799,1.3233,1.35,1.2398,1.157,1.0962,1.0448,0.0,0.0,0.0,0.0,0.0,0.0,0.0,0.0,0.0,0.0,0.0,0.0,0.0,0.0,0.0,0.0,0.0,0.0,0.0,0.0,0.0,0.0,0.0,0.0,0.0,0.0,0.0,0.0,0.0,0.0,0.0,0.0,0.0,0.0,0.0,0.0,0.0,0.0,0.0,0.8334,0.8664,0.808,0.855,0.8786,0.0,0.0,0.0,0.0,0.0,0.0,0.0,0.0,0.0,1.0323,1.0295,1.0972,1.2543,1.2835,1.3127,1.35,1.3801,1.4122,1.4436,1.4436,1.4529,1.4683,1.4643,1.4162,1.3313,1.2058,1.1142,1.0468,0.0,0.0,0.0,0.0,0.9927,1.0147,0.0,0.0,0.0,0.0,0.0,0.0,0.0,0.0,0.0,0.0,0.0,0.0,0.0,0.0,0.0,0.8429,0.0,0.0,0.0,0.0,0.0,0.0,0.0,0.0,0.0,0.0,0.0,0.0,1.1824,1.2859,1.3667,1.4108,1.4549,1.495,1.4589,1.3527,1.1971,1.1443,1.0628,0.0,0.0,0.0,0.0,0.0,0.0,0.0,0.0,0.0,0.0,0.0,0.0,0.0,0.0,0.0,0.0,0.0,0.0,0.0,0.0,0.0,0.0,0.0,0.0,0.0,0.0,0.0,0.0,0.0,0.0,0.0,0.0,0.0,0.0,0.0,0.0,0.0,0.0,0.9329,0.9746,0.8275,0.9273,0.9681,0.0,0.0,0.0,0.0,0.0,0.0,0.9591,0.9119,0.9701,1.1414,1.152,1.2314,1.3768,1.4135,1.4389,1.4536,1.483,1.5157,1.5511,1.5585,1.5698,1.5818,1.5678,1.5498,1.517,1.346,1.2545,1.2138,1.1471,1.1142,1.1042,1.1336,1.149,1.1697,0.0,0.0,0.0,0.0,0.0,0.0,0.0,0.0,0.0,0.0,0.0,0.0,0.0,0.0,0.936,1.0338,0.9993,0.9552,0.0,0.0,0.0,0.0,0.0,0.0,0.0,0.0,0.0,1.1784,1.3253,1.4289,1.4897,1.5745,1.6159,1.6199,1.644,1.5885,1.4636,1.2665,1.1944,1.1984,0.0,0.0,0.0,0.0,0.0,0.0,0.0,0.0,0.0,0.0,0.0,0.0,0.0,0.0,0.0,0.0,0.0,0.0,0.0,0.0,0.0,0.0,0.0,0.0,0.0,0.0,0.0,0.0,0.0,0.0,0.0,0.0,0.0,0.0,0.0,0.0,0.0,0.0,0.0,0.9375,0.9938,0.0,0.0,0.0,0.0,1.1256,1.167,1.2029,1.2316,1.2431,1.2923,1.3884,1.419,1.4615,1.5277,1.5852,1.6005,1.5745,1.6039,1.6052,1.5818,1.6099,1.6079,1.5845,1.6112,1.6219,1.6092,1.4609,1.3661,1.3106,1.2849,1.2465,1.2251,1.262,1.2846,1.3146,0.0,0.0,0.0,0.0,0.0,0.0,0.0,0.0,0.0,0.0,0.0,0.0,0.0,1.0418,1.1385,1.1931,1.1957,1.1583,1.0637,0.0,0.0,0.0,0.0,0.0,0.0,0.0,1.1917,1.33,1.4396,1.5231,1.5812,1.6126,1.6473,1.684,1.6941,1.686,1.6526,1.4656,1.326,1.2211,1.1209,1.0401,0.0,0.0,0.0,0.0,0.0,0.0,0.0,0.0,0.0,0.0,0.0,0.0,0.0,0.0,0.0,0.0,0.0,0.0,0.0,0.0,0.0,0.0,0.0,0.0,0.0,0.0,0.0,0.0,0.0,0.0,0.0,0.0,0.0,0.0,0.0,0.0,0.0,1.0272,1.1071,0.0,1.1642,1.1986,1.2291,1.2433,1.1711,1.173,1.2851,1.1755,1.2107,1.4334,1.4607,1.5229,1.6233,1.6446,1.65,1.6393,1.6313,1.6313,1.6393,1.6313,1.6319,1.64,1.6506,1.6553,1.6513,1.5985,1.5538,1.515,1.485,1.4663,1.4609,1.491,1.5084,1.5224,0.0,0.0,0.0,0.0,0.0,0.0,0.0,0.0,0.0,0.0,0.0,0.9015,1.0378,1.1877,1.2913,1.3313,1.3166,1.2592,1.1496,0.0,0.0,0.0,0.0,0.0,0.0,1.2011,1.32,1.4382,1.5264,1.5892,1.6279,1.648,1.6827,1.7301,1.7402,1.7562,1.7662,1.65,1.503,1.3407,1.2425,1.1737,1.1156,0.0,0.0,0.0,0.0,0.0,0.0,0.0,0.0,0.0,0.0,0.0,0.0,0.0,0.0,0.0,0.0,0.0,0.0,0.0,0.0,0.0,0.0,0.0,0.0,0.0,0.0,0.0,0.0,0.0,0.0,0.0,0.0,0.0,0.0,0.9,0.993,1.0759,1.1361,1.1914,1.2563,1.251,1.2833,1.3555,1.2836,1.2947,1.4567,1.3419,1.3562,1.5475,1.5648,1.6158,1.7001,1.7001,1.6954,1.6854,1.666,1.662,1.67,1.6613,1.662,1.6714,1.6814,1.6854,1.6854,1.6854,1.68,1.6673,1.6279,1.6126,1.6146,1.6346,1.642,1.6433,0.0,0.0,0.0,0.0,0.0,0.0,0.0,0.0,0.0,0.0,0.8223,0.9781,1.1303,1.2792,1.3915,1.4496,1.3447,1.2378,1.151,0.9793,0.0,0.0,0.0,0.0,1.1516,1.3233,1.4409,1.5017,1.5872,1.6293,1.6313,1.6894,1.7321,1.7609,1.7929,1.8076,1.809,1.809,1.7261,1.5798,1.4008,1.3447,1.342,0.0,0.0,0.0,0.0,0.0,0.0,0.0,0.0,0.0,0.0,0.0,0.0,0.0,0.0,0.0,0.0,0.0,0.0,0.0,0.0,0.0,0.0,0.0,0.0,0.0,0.0,0.0,0.0,0.0,0.0,0.0,0.0,0.0,0.7671,0.9342,1.0634,1.0974,1.0669,1.1074,1.2691,1.1458,1.1689,1.4526,1.4987,1.5773,1.7391,1.7391,1.7391,1.7503,1.7503,1.7602,1.749,1.7595,1.7455,1.7161,1.7161,1.7014,1.6754,1.7034,1.7014,1.6767,1.7041,1.7161,1.7161,1.7174,1.7341,1.7535,1.6961,1.6734,1.6734,1.6734,1.6734,1.6693,0.0,0.0,0.0,0.0,0.0,0.0,0.0,0.0,0.0,0.0,0.9276,1.0755,1.2225,1.3707,1.475,1.5124,1.3694,1.2565,1.2091,0.0,0.0,0.0,0.0,0.0,1.3955,1.4469,1.5217,1.6226,1.6466,1.67,1.6914,1.7288,1.7629,1.7943,1.845,1.8804,1.9005,1.9005,1.8891,1.8497,1.6079,1.4776,1.4135,0.0,0.0,0.0,0.0,0.0,0.0,0.0,0.0,0.0,0.0,0.0,0.0,0.0,0.0,0.0,0.0,0.0,0.0,0.0,0.0,0.0,0.0,0.0,0.0,0.0,0.0,0.0,0.0,0.0,0.0,0.0,0.753,0.8368,0.834,0.863,0.9493,1.1079,1.1263,1.1674,1.3077,1.292,1.3076,1.364,1.2952,1.3179,1.4744,1.3735,1.3623,1.4744,1.5864,1.6454,1.6259,1.7365,1.7762,1.7462,1.7462,1.7542,1.7675,1.7528,1.7542,1.7669,1.7528,1.7462,1.7482,1.7709,1.7842,1.7883,1.7495,1.7341,1.7341,1.7341,1.7341,1.7328,0.0,0.0,0.0,0.0,0.0,0.0,0.0,0.0,0.0,0.0,0.9458,1.1095,1.2318,1.3707,1.4563,1.4489,1.3206,1.2058,1.1256,0.0,0.0,0.0,0.0,1.3353,1.493,1.5444,1.6025,1.6707,1.6954,1.7161,1.7341,1.7762,1.8123,1.8437,1.8905,1.9272,1.9553,1.9679,1.9826,1.9833,1.8163,1.7041,1.6213,1.483,1.4062,1.3614,1.2819,1.2492,1.2325,1.1281,0.0,0.0,0.0,0.0,0.0,0.0,0.0,0.0,0.0,0.0,0.0,0.0,0.0,0.0,0.0,0.0,0.0,0.0,0.0,0.0,0.0,0.0,0.0,0.0,0.825,0.9057,0.9032,0.8967,0.9597,1.1446,1.1192,1.1406,1.2894,1.2494,1.2337,1.2887,1.2221,1.2467,1.3973,1.3282,1.3166,1.4089,1.4916,1.5648,1.6185,1.6876,1.7521,1.8143,1.8023,1.8056,1.823,1.8043,1.8063,1.8217,1.7909,1.7776,1.7789,1.7969,1.7969,1.7856,0.0,0.0,0.0,0.0,1.7695,1.7562,0.0,0.0,0.0,0.0,0.0,0.0,0.0,0.0,0.0,0.0,0.0,1.0762,1.167,1.3033,1.3674,1.3153,1.2184,1.1076,0.0,0.0,0.0,1.161,1.3033,1.4235,1.519,1.6259,1.682,1.686,1.7415,1.7702,1.7742,1.8317,1.8744,1.9038,1.9332,1.9626,1.992,2.0174,2.0179,1.9935,1.98,1.9318,1.8771,1.6685,1.5999,1.5993,1.4681,1.3881,1.3428,1.3466,0.0,0.0,0.0,0.0,0.0,0.0,0.0,0.0,0.0,0.0,0.0,0.0,0.0,0.0,0.0,0.0,0.0,0.0,0.0,0.0,0.0,0.0,0.0,0.0,0.857,0.9252,0.9795,0.9903,1.0393,1.1805,1.0845,1.0621,1.2251,1.0885,1.0537,1.2028,1.2012,1.263,1.4043,1.4043,0.0,0.0,0.0,1.4727,1.6446,1.6006,1.669,1.8285,1.8071,1.8066,1.8262,1.8262,1.8373,1.847,1.8143,1.8029,1.8096,1.8096,1.7949,1.7776,1.8217,1.841,1.8404,1.8103,1.7816,1.7549,0.0,0.0,0.0,0.0,0.0,0.0,0.0,0.0,0.0,0.745,0.8715,0.992,1.1042,1.2051,1.2599,1.2485,1.1043,0.9787,0.0,0.0,1.1423,1.314,1.4175,1.5344,1.67,1.7181,1.7535,1.7789,1.8143,1.8437,1.8671,1.9032,1.9352,1.9646,1.9933,2.0227,2.0514,2.0568,1.9955,1.8867,1.8819,1.8972,1.909,1.6967,1.5944,1.5547,1.4988,1.4759,1.4749,1.5162,1.4362,1.2997,1.1729,0.0,0.0,0.0,0.0,0.0,0.0,0.0,0.0,0.0,0.0,0.0,0.0,0.0,0.0,0.0,0.0,0.0,0.0,0.0,0.0,0.8618,0.9347,0.9917,1.0158,1.0395,1.0586,1.0721,1.0468,1.0373,1.0777,1.0475,1.0328,1.0735,1.0706,1.0757,1.0867,1.0859,1.0797,1.0785,1.1939,1.2698,1.2813,1.4003,1.4583,1.4669,1.4932,0.0,1.654,1.654,1.7229,1.8464,1.7909,1.7949,1.8404,1.8404,1.8504,1.8604,1.7996,1.7909,1.8096,1.7789,1.7629,1.7575,0.0,0.0,0.0,0.0,0.0,0.0,0.0,0.0,0.0,0.0,0.746,0.8496,0.929,1.0037,1.0336,0.9996,0.9236,0.0,0.0,1.0814,1.2512,1.4436,1.5224,1.6166,1.7341,1.7662,1.7963,1.827,1.8711,1.9005,1.9152,1.8749,1.9018,1.9907,1.8441,1.8458,1.948,1.8578,1.8016,1.7423,1.731,1.7496,1.7648,1.6403,1.5552,1.5226,1.4993,1.4728,1.4489,1.4905,1.4135,1.285,1.1843,1.0116,0.8238,0.0,0.0,0.0,0.0,0.0,0.0,0.0,0.0,0.0,0.0,0.0,0.0,0.0,0.0,0.7309,0.7831,0.0,0.8794,0.9398,0.9995,1.0412,1.049,1.0694,1.0724,1.0422,1.0456,1.05,1.05,1.0432,1.0385,1.0385,1.0321,1.0246,1.0168,1.0164,1.0093,0.9941,1.0663,1.1425,1.1963,1.2781,1.3551,1.4144,1.426,1.4662,1.5243,1.5243,1.5704,1.6386,1.611,1.6034,1.638,1.7055,1.7585,1.7989,1.7823,1.7909,1.8029,1.7869,1.7716,1.7582,0.0,0.0,0.0,0.0,0.0,0.0,0.0,0.0,0.0,0.0,0.6193,0.7037,0.7339,0.7857,0.7968,0.0,0.0,0.0,0.0,1.1465,1.3352,1.5478,1.6186,1.6786,1.7218,1.7583,1.7656,1.7652,1.8211,1.8517,1.858,1.7602,1.7966,1.9278,1.6713,1.6392,1.7742,1.6436,1.5883,1.5822,1.5614,1.5447,1.5077,1.466,1.4657,1.462,1.4663,1.4101,1.3586,1.4119,1.3427,1.2267,1.1567,1.0302,0.883,0.7446,0.6608,0.0,0.0,0.0,0.0,0.0,0.0,0.0,0.0,0.0,0.7041,0.7675,0.7906,0.8201,0.8889,0.9232,0.9591,1.0137,1.0551,1.0795,1.0768,1.087,1.0846,1.0568,1.0643,1.0721,1.0721,1.0609,1.0534,1.0534,1.0429,1.0351,1.0324,1.0321,1.0253,1.01,1.0093,1.0631,1.1792,1.1788,1.2371,1.3646,1.3594,1.3606,1.3917,1.3917,1.4033,1.4381,1.4301,1.4296,1.424,1.5374,1.6218,1.6949,1.7464,1.781,1.8036,1.7976,1.7836,1.7662,0.0,0.0,0.0,0.0,0.0,0.0,0.0,0.0,0.0,0.0,0.0,0.0,0.0,0.0,0.0,0.0,0.0,0.0,0.9651,1.1516,1.3674,1.6106,1.6987,1.6955,1.5987,1.6357,1.604,1.4677,1.5142,1.5471,1.5803,1.5684,1.591,1.6358,1.5997,1.6022,1.6177,1.5913,1.5147,1.375,1.369,1.2889,1.1646,1.1336,1.2111,1.3475,1.3269,1.2773,1.2399,1.4053,1.3284,1.1561,1.1496,1.013,0.8428,0.7611,0.0,0.603,0.5911,0.6169,0.6532,0.679,0.6959,0.7343,0.0,0.0,0.8465,0.9205,0.9374,0.9534,1.0015,1.0236,1.0453,1.0795,1.0999,1.107,1.0941,1.0938,1.0884,1.0714,1.0711,1.0721,1.0721,1.0704,1.0694,1.0694,1.068,1.0612,1.0477,1.047,1.0402,1.0259,1.0253,1.0304,1.027,1.027,1.032,1.0301,1.0283,1.0913,1.2055,1.2055,1.2867,1.4265,1.4473,1.4447,1.4265,1.457,1.5492,1.6609,1.6641,1.7241,1.8016,1.7736,1.7789,1.7956,0.0,0.0,0.0,0.0,0.0,0.0,0.0,0.0,0.0,0.0,0.0,0.0,0.0,0.0,0.0,0.0,0.0,0.0,0.8573,1.1059,1.2968,1.413,1.467,1.4853,1.4686,1.5015,1.4903,1.4457,1.4897,1.516,1.5256,1.4596,1.4799,1.5784,1.384,1.3515,1.4408,1.3357,1.2724,1.2283,1.2112,1.1725,1.1121,1.0734,1.0881,1.1144,1.091,1.0567,0.0,0.0,1.057,0.9757,0.9957,0.9122,0.7946,0.72,0.6776,0.0,0.6973,0.7031,0.7109,0.759,0.7882,0.8231,0.891,0.9035,0.9218,0.9968,1.0195,1.0365,1.0727,1.0914,1.1026,1.1067,1.1274,1.1318,1.0995,1.1019,1.0921,1.0514,1.0616,1.0721,1.0721,1.0721,1.0721,1.0721,1.0721,1.0694,1.0629,1.0626,1.0558,1.0409,1.0324,1.0205,1.0049,0.9961,0.9883,0.9819,0.9737,1.0021,1.0543,1.0543,1.0944,1.1622,1.1703,1.1691,1.1745,1.2777,1.3475,1.4192,1.5669,1.6756,1.7459,1.7757,1.7822,1.7756,0.0,0.0,0.0,0.0,0.0,0.0,0.0,0.0,0.0,0.0,0.0,0.0,0.0,0.0,0.0,0.0,0.0,0.0,0.0,1.0002,1.1716,1.2374,1.2926,1.3113,1.3149,1.3418,1.3546,1.3287,1.3692,1.389,1.3895,1.3022,1.3325,1.4362,1.1894,1.1437,1.2606,1.1415,1.1033,1.1253,1.1101,1.104,1.0982,1.0453,0.988,0.9337,0.9144,0.8801,0.0,0.0,0.8082,0.8045,0.8347,0.8065,0.7519,0.698,0.6844,0.6959,0.7387,0.7529,0.7678,0.8201,0.8706,0.9147,0.9405,0.9646,0.9988,1.0612,1.0795,1.0921,1.1179,1.1314,1.1355,1.1243,1.1447,1.1477,1.1067,1.1063,1.09,1.0344,1.0432,1.0534,1.0534,1.0646,1.0721,1.0721,1.0721,1.0721,1.0721,1.0721,1.067,1.0558,1.0415,1.0266,1.0114,0.9961,0.9863,0.9819,0.9717,0.9666,0.9666,0.9666,0.9724,0.9822,0.9822,0.9822,0.994,1.102,1.1856,1.2427,1.4235,1.555,1.6309,1.6727,1.7245,1.7809,0.0,0.0,0.0,0.0,0.0,0.0,0.0,0.0,0.0,0.0,0.0,0.0,0.0,0.0,0.0,0.0,0.0,0.0,0.0,0.8406,0.9876,1.1864,1.2879,1.2816,1.1372,1.1855,1.1316,0.994,1.0252,1.0407,1.041,1.0713,1.085,1.085,1.0721,1.0724,1.0727,1.0727,1.0819,1.0948,1.0795,1.0734,1.0653,0.9917,0.9262,0.8699,0.8408,0.0,0.0,0.0,0.6759,0.6807,0.7102,0.718,0.0,0.7132,0.6926,0.6712,0.6729,0.7363,0.8092,0.8397,0.9249,1.0053,1.0209,1.0585,1.0989,1.1301,1.125,1.1199,1.1355,1.1389,1.1389,1.1385,1.1514,1.1511,1.1199,1.104,1.0785,1.0334,1.0154,1.007,1.007,1.0463,1.0721,1.0721,1.0721,1.0721,1.0721,1.0721,1.0717,1.0714,1.0565,1.0419,1.0276,1.012,0.9968,0.9822,0.9819,0.9815,0.9815,0.9815,0.9819,0.9822,0.9822,0.9822,0.9822,0.9822,1.0778,1.2213,1.232,1.3149,1.4235,1.4122,1.5962,1.8377,0.0,0.0,0.0,0.0,0.0,0.0,0.0,0.0,0.0,0.0,0.0,0.0,0.0,0.0,0.0,0.0,0.0,0.0,0.0,0.7312,0.8391,0.8609,0.961,0.9918,0.9448,0.9876,0.9896,0.9378,0.9778,0.9975,0.9981,1.0287,1.0429,1.0429,1.0429,1.0429,1.0436,1.0527,1.0656,1.0765,1.0419,1.0276,1.0161,0.912,0.8225,0.7448,0.0,0.0,0.0,0.0,0.5813,0.5881,0.6278,0.6271,0.6132,0.6224,0.6464,0.6831,0.7428,0.8102,0.8804,0.95,1.0012,1.0463,1.0914,1.1134,1.124,1.124,1.0962,1.0673,1.0527,1.0663,1.0795,1.0795,1.1257,1.1511,1.1206,1.1121,1.0812,1.0066,1.0192,1.0188,0.9795,1.007,1.0358,1.0555,1.0568,1.0612,1.0714,1.0721,1.0673,1.0571,1.0429,1.028,1.0131,0.9975,0.9873,0.9822,0.9822,0.9822,0.9822,0.9822,0.9822,0.9822,0.9822,0.9822,0.9822,0.9822,1.0058,1.0649,1.161,1.2302,1.289,1.3453,1.4372,1.5563,0.0,0.0,0.0,0.0,0.0,0.0,0.0,0.0,0.0,0.0,0.0,0.0,0.0,0.0,0.0,0.0,0.0,0.0,0.0,0.0,0.6651,0.6352,0.7163,0.7631,0.7685,0.8021,0.8248,0.8357,0.8859,0.913,0.9195,0.9659,0.9876,0.988,0.9934,0.9961,0.9961,0.9998,0.9978,0.989,0.9554,0.9252,0.891,0.798,0.7139,0.0,0.0,0.0,0.0,0.0,0.514,0.5182,0.5525,0.5688,0.5796,0.6047,0.6549,0.7241,0.8245,0.8879,0.9456,1.0307,1.0666,1.09,1.1233,1.1311,1.1236,1.0978,1.0565,1.0161,0.9866,0.9964,1.0076,1.0022,1.0555,1.0928,1.0785,1.0717,1.051,1.0039,1.0141,1.0124,0.9798,0.989,1.0114,1.0466,1.049,1.0558,1.0711,1.0721,1.0649,1.0497,1.0354,1.0205,1.0049,0.9897,0.9822,0.9822,0.9822,0.9822,0.9822,0.9822,0.9822,0.9822,0.9822,0.9822,0.9822,0.9822,0.9822,0.993,1.0786,1.1164,1.1451,1.197,1.2227,1.2621,0.0,0.0,0.0,0.0,0.0,0.0,0.0,0.0,0.0,0.0,0.0,0.0,0.0,0.0,0.0,0.0,0.0,0.0,0.0,0.0,0.0,0.5363,0.5759,0.6078,0.6224,0.6373,0.659,0.6881,0.7461,0.7818,0.7974,0.8693,0.9028,0.9032,0.9178,0.9242,0.9235,0.9089,0.8784,0.8387,0.8231,0.7736,0.7044,0.6586,0.0,0.0,0.0,0.0,0.0,0.0,0.4589,0.4775,0.4945,0.5488,0.6156,0.662,0.719,0.7923,0.9089,0.9635,1.0056,1.0789,1.1175,1.1341,1.1196,1.1145,1.0995,1.0531,1.0066,0.9646,0.9323,0.9303,0.9289,0.9154,0.9544,0.992,1.0073,0.9971,0.9978,1.0249,1.0029,0.9907,1.0036,0.9924,1.0022,1.046,1.0483,1.0551,1.0711,1.0721,1.0649,1.0497,1.0354,1.0205,1.0049,0.9897,0.9822,0.9822,0.9822,0.9822,0.9822,0.9822,0.9822,0.9822,0.9822,0.9822,0.9822,0.9822,0.9822,0.9822,0.9822,0.9822,0.9802,0.9663,0.9608,0.9915,0.0,0.0,0.0,0.0,0.0,0.0,0.0,0.0,0.0,0.0,0.0,0.0,0.0,0.0,0.0,0.0,0.0,0.0,0.0,0.0,0.0,0.0,0.0,0.0,0.0,0.0,0.0,0.0,0.0,0.6834,0.6878,0.7183,0.7326,0.7326,0.7366,0.7383,0.738,0.7343,0.7326,0.7292,0.0,0.6658,0.6424,0.0,0.0,0.0,0.0,0.0,0.0,0.0,0.0,0.5583,0.5959,0.6285,0.6661,0.7333,0.8038,0.876,0.9507,1.0175,1.0761,1.1175,1.125,1.1209,1.1172,1.0904,1.0473,0.9802,0.9133,0.8472,0.7831,0.8258,0.8737,0.8811,0.9761,1.0544,1.0697,1.0687,1.0568,1.031,0.0,1.0249,1.0066,1.012,1.0256,1.0477,1.0392,1.0446,1.0707,1.0721,1.0649,1.0497,1.0354,1.0205,1.0049,0.9897,0.9822,0.9822,0.9822,0.9822,0.9822,0.9822,0.9822,0.9822,0.9822,0.9822,0.9822,0.9822,0.9822,0.9822,0.9822,0.9822,0.9802,0.9663,0.9608,0.9717,0.0,0.0,0.0,0.0,0.0,0.0,0.0,0.0,0.0,0.0,0.0,0.0,0.0,0.0,0.0,0.0,0.0,0.0,0.0,0.0,0.0,0.0,0.0,0.0,0.0,0.0,0.0,0.0,0.0,0.0,0.0,0.6047,0.6133,0.5899,0.5964,0.6074,0.6234,0.6089,0.0,0.0,0.0,0.0,0.0,0.0,0.0,0.0,0.0,0.0,0.0,0.0,0.0,0.6363,0.6746,0.7105,0.7536,0.8282,0.894,0.9585,1.0314,1.0914,1.1362,1.1463,1.1379,1.1141,1.068,1.028,0.9737,0.8794,0.8214,0.7665,0.6973,0.7529,0.8099,0.8119,0.9144,1.0039,1.0321,1.0415,1.046,1.0473,1.0483,1.0453,1.0354,1.0361,1.0432,1.0582,1.0456,1.0473,1.0707,1.0721,1.0649,1.0497,1.0415,1.027,1.0049,0.9897,0.9822,0.9822,0.9822,0.9822,0.9822,0.9822,0.9822,0.9822,0.9822,0.9822,0.9822,0.9822,0.9822,0.9822,0.9822,0.9822,0.9812,0.973,0.9703,0.9703,0.0,0.0,0.0,0.0,0.0,0.0,0.0,0.0,0.0,0.0,0.354,0.0,0.0,0.0,0.0,0.0,0.0,0.0,0.0,0.0,0.0,0.0,0.0,0.0,0.0,0.0,0.0,0.0,0.0,0.0,0.0,0.0,0.0,0.0,0.0,0.0,0.0,0.0,0.0,0.0,0.0,0.0,0.0,0.0,0.0,0.0,0.0,0.0,0.0,0.0,0.6902,0.7166,0.7502,0.8007,0.8615,0.932,0.9846,1.0375,1.1199,1.1623,1.1796,1.1653,1.146,1.1036,1.0022,0.9503,0.8906,0.775,0.736,0.7051,0.6488,0.7017,0.7522,0.7468,0.0,0.9167,0.9656,0.9832,1.011,1.0656,1.0602,1.0575,1.0707,1.0602,1.0578,1.0711,1.0599,1.0578,1.0714,1.0721,1.0649,1.0497,1.0473,1.0341,1.0083,0.9907,0.9832,0.9849,0.9832,0.9822,0.9822,0.9822,0.9822,0.9822,0.9822,0.9822,0.9822,0.9822,0.9822,0.9822,0.9822,0.9822,0.9822,0.9822,0.9822,0.9822,0.0,0.0,0.0,0.0,0.0,0.0,0.0,0.0,0.0,0.0,0.3565,0.3581,0.0,0.0,0.0,0.0,0.0,0.0,0.0,0.0,0.0,0.0,0.0,0.0,0.0,0.0,0.0,0.0,0.0,0.0,0.0,0.0,0.0,0.0,0.0,0.0,0.0,0.0,0.0,0.0,0.0,0.0,0.0,0.0,0.0,0.0,0.0,0.0,0.0,0.0,0.7601,0.8133,0.8672,0.9171,0.9649,1.0151,1.0616,1.1056,1.1467,1.1701,1.1796,1.1653,1.1226,1.0626,0.9829,0.9035,0.0,0.7241,0.6729,0.6342,0.5983,0.663,0.7373,0.7848,0.8699,0.9547,1.0243,1.0358,1.0463,1.069,1.0697,1.069,1.0717,1.0697,1.069,1.0717,1.0697,1.0694,1.0717,1.0721,1.0649,1.0497,1.0378,1.0293,1.0243,0.9961,0.9883,1.0008,0.988,0.9822,0.9822,0.9822,0.9822,0.9822,0.9822,0.9822,0.9822,0.9822,0.9822,0.9822,0.9822,0.9822,0.9822,0.9822,0.9822,0.9822,0.0,0.0,0.0,0.0,0.0,0.0,0.0,0.3412,0.349,0.3568,0.3581,0.3581,0.3581,0.3581,0.3581,0.0,0.0,0.0,0.0,0.0,0.0,0.0,0.0,0.0,0.0,0.0,0.3581,0.3581,0.0,0.0,0.0,0.335,0.0,0.0,0.0,0.0,0.0,0.0,0.0,0.0,0.0,0.0,0.0,0.0,0.0,0.0,0.0,0.0,0.0,0.0,0.7135,0.8532,0.9332,0.9863,1.0348,1.0643,1.105,1.1467,1.1769,1.1955,1.1996,1.1694,1.1107,1.0324,0.9266,0.0,0.0,0.6542,0.6173,0.5928,0.5627,0.6305,0.7031,0.74,0.8218,0.9089,0.9917,1.0097,1.0287,1.0673,1.0721,1.0721,1.0721,1.0721,1.0721,1.0721,1.0721,1.0721,1.0721,1.0721,1.0687,1.0612,1.0395,1.028,1.028,0.9975,0.9859,0.993,0.9856,0.9822,0.9822,0.9822,0.9822,0.9822,0.9822,0.9822,0.9822,0.9822,0.9822,0.9822,0.9822,0.9822,0.9822,0.9822,0.9873,0.9941,0.0,0.0,0.0,0.0,0.0,0.0,0.0,0.3378,0.3442,0.3565,0.3581,0.3581,0.3581,0.3581,0.3581,0.0,0.0,0.0,0.0,0.0,0.0,0.0,0.0,0.0,0.0,0.0,0.0,0.3581,0.349,0.0,0.0,0.0,0.0,0.0,0.1969,0.193,0.0,0.0,0.0,0.0,0.0,0.0,0.0,0.0,0.0,0.0,0.0,0.0,0.0,0.0,0.613,0.7928,0.9179,0.9995,1.0551,1.0673,1.1094,1.1586,1.1887,1.2077,1.2091,1.1674,1.0978,1.0053,0.8737,0.7834,0.6987,0.5966,0.5728,0.5647,0.5447,0.601,0.66,0.0,0.7577,0.8414,0.9378,0.9663,1.0012,1.0643,1.0721,1.0731,1.0765,1.0741,1.0721,1.0721,1.0721,1.0721,1.0721,1.0721,1.0721,1.0721,1.0432,1.031,1.0375,1.0039,0.9886,0.9917,0.9886,0.9852,0.9822,0.9822,0.9822,0.9822,0.9822,0.9822,0.9822,0.9822,0.9822,0.9822,0.9822,0.9822,0.9825,0.9859,0.9944,1.0056,0.0,0.0,0.0,0.0,0.0,0.0,0.0,0.347,0.3565,0.3578,0.3581,0.3581,0.3581,0.3581,0.3581,0.0,0.0,0.0,0.0,0.0,0.0,0.0,0.0,0.0,0.0,0.0,0.0,0.3581,0.317,0.0,0.0,0.0,0.0,0.0,0.0,0.2105,0.1479,0.0,0.0,0.0,0.0,0.0,0.0,0.0,0.0,0.0,0.0,0.0,0.0,0.0,0.0,0.5351,0.8091,0.9452,0.9907,0.992,0.0,0.0,1.1579,1.1765,1.1799,1.1491,1.0744,0.9774,0.8564,0.0,0.6712,0.5796,0.5498,0.5437,0.5549,0.5742,0.6112,0.6814,0.0,0.7862,0.9032,0.9445,0.99,1.0633,1.0721,1.0775,1.0914,1.0802,1.0721,1.0721,1.0721,1.0721,1.0721,1.0721,1.0721,1.0721,1.0432,1.0409,1.0677,1.0246,1.01,1.0236,1.0097,0.9958,0.9822,0.9822,0.9822,0.9822,0.9822,0.9822,0.9822,0.9822,0.9822,0.9822,0.9822,0.9822,0.9839,0.9978,1.0036,1.007,0.0,0.0,0.0,0.0,0.0,0.0,0.3337,0.348,0.3581,0.3581,0.3581,0.3581,0.3581,0.3581,0.3581,0.3581,0.0,0.0,0.0,0.0,0.0,0.0,0.0,0.0,0.0,0.0,0.3581,0.3581,0.3126,0.0,0.0,0.0,0.0,0.0,0.0,0.1166,0.0988,0.0,0.0,0.0,0.0,0.0,0.0,0.0,0.0,0.0,0.0,0.0,0.0989,0.0,0.0,0.0,0.4781,0.5559,0.0,0.0,1.006,1.0636,1.1304,1.1589,1.1633,1.1331,1.0443,0.9381,0.8364,0.0,0.6349,0.5718,0.5467,0.5449,0.544,0.5576,0.583,0.6308,0.0,0.0,0.8201,0.8611,0.9147,1.007,1.0259,1.0446,1.0778,1.0755,1.0721,1.0721,1.0721,1.0721,1.0721,1.0721,1.0721,1.0721,1.0517,1.0463,1.0582,1.0321,1.0219,1.028,1.0219,1.0107,0.9958,0.9958,0.991,0.9822,0.9822,0.9822,0.9822,0.9822,0.9876,0.9958,0.9958,1.0015,1.0107,1.0164,1.0243,1.0324,0.0,0.0,0.0,0.0,0.0,0.3188,0.343,0.3554,0.3581,0.3581,0.3581,0.3581,0.3581,0.3581,0.3581,0.3581,0.3581,0.0,0.0,0.0,0.0,0.0,0.0,0.0,0.0,0.0,0.3513,0.3414,0.2921,0.2605,0.0,0.0,0.1256,0.139,0.0,0.0,0.0,0.0,0.0,0.0,0.0,0.0,0.0,0.0,0.0,0.0,0.0,0.0,0.0,0.0,0.0,0.0,0.0,0.0,0.0,0.0,0.9167,1.0019,1.0656,1.1138,1.1358,1.1097,1.0134,0.9025,0.8167,0.0,0.6064,0.5616,0.5437,0.5428,0.5428,0.5488,0.5671,0.0,0.0,0.6739,0.7506,0.7953,0.8523,0.9388,0.9629,0.993,1.047,1.0643,1.0721,1.0721,1.0721,1.0721,1.0721,1.0721,1.0721,1.0721,1.0531,1.0449,1.049,1.0351,1.028,1.028,1.028,1.0198,1.0049,1.0049,0.9992,0.989,0.9937,0.9958,0.9958,0.9958,1.0019,1.0117,1.0117,1.0185,1.0287,1.0327,1.0405,1.05,0.0,0.0,0.0,0.0,0.0,0.0,0.3531,0.3578,0.3581,0.3581,0.3581,0.3581,0.3581,0.3581,0.3581,0.3581,0.3581,0.0,0.0,0.0,0.0,0.0,0.0,0.0,0.0,0.0,0.3375,0.289,0.2368,0.1918,0.1522,0.0962,0.0719,0.0719,0.0,0.0,0.0,0.0,0.0,0.0,0.0,0.0,0.0,0.0,0.0,0.0,0.0,0.0,0.0,0.0,0.0,0.0,0.0,0.0,0.0,0.0,0.7701,0.9528,0.9628,1.0276,1.0917,1.0765,0.9825,0.8743,0.7984,0.6888,0.5905,0.5457,0.5428,0.5428,0.5428,0.5488,0.5637,0.5779,0.6179,0.0,0.7085,0.7665,0.8211,0.8669,0.8855,0.9242,0.9985,1.046,1.0721,1.0721,1.0721,1.0721,1.0721,1.0721,1.0721,1.0721,1.0436,1.0348,1.049,1.0351,1.028,1.028,1.028,1.0198,1.0049,1.0049,1.0049,1.0056,1.0209,1.0276,1.0276,1.0276,1.0276,1.028,1.028,1.028,1.0297,1.0436,1.049,1.0514,0.0,0.0,0.0,0.0,0.0,0.0,0.0,0.3581,0.3581,0.3581,0.3581,0.3581,0.3581,0.3581,0.3581,0.3581,0.3581,0.0,0.0,0.0,0.0,0.0,0.0,0.0,0.0,0.0,0.3052,0.2892,0.2065,0.1645,0.1477,0.099,0.0693,0.0494,0.0629,0.0719,0.0,0.0,0.0,0.0,0.0,0.0,0.0,0.0,0.0,0.0,0.0,0.0,0.0,0.0,0.0,0.0,0.0,0.0,0.0,0.0,0.0,0.0,0.9176,0.9428,0.9174,0.9595,0.8645,0.7567,0.7021,0.6291,0.5657,0.5413,0.5428,0.5428,0.5428,0.5403,0.5549,0.5898,0.6166,0.0,0.0,0.7689,0.8401,0.8947,0.9781,1.0365,1.0497,1.0636,1.0721,1.0721,1.0721,1.0721,1.0721,1.0721,1.0721,1.0721,1.0629,1.0551,1.049,1.0449,1.0375,1.028,1.028,1.0198,1.0053,1.0158,1.0148,1.0059,1.0212,1.028,1.028,1.028,1.0337,1.0426,1.0426,1.0487,1.0585,1.0629,1.0649,1.0656,0.0,0.0,0.0,0.0,0.0,0.0,0.0,0.3581,0.3581,0.3581,0.3581,0.3581,0.3581,0.3581,0.3581,0.3581,0.3581,0.0,0.0,0.0,0.0,0.0,0.0,0.0,0.0,0.3263,0.2936,0.238,0.1992,0.1667,0.1244,0.0932,0.0621,0.0414,0.0414,0.0548,0.0,0.0,0.0,0.0,0.0,0.0,-0.0,0.0,0.0,0.0,0.0,0.0,0.0,0.0,0.0,0.0,0.0,0.0,0.0,0.0,0.3372,0.4988,0.0,0.8309,0.796,0.8214,0.7552,0.0,0.6396,0.5844,0.5389,0.5294,0.5321,0.5428,0.5428,0.541,0.5555,0.5888,0.6166,0.6478,0.6871,0.7651,0.8425,0.9076,1.0015,1.0571,1.0477,1.0622,1.0721,1.0721,1.0721,1.0721,1.0721,1.0721,1.0721,1.0721,1.0612,1.051,1.0412,1.0412,1.0337,1.0195,1.0307,1.0283,1.0141,1.0293,1.0307,1.0226,1.0378,1.0446,0.0,1.0446,1.0497,1.0578,1.0578,1.0636,1.0721,1.0721,1.0721,1.0721,0.0,0.0,0.0,0.0,0.0,0.0,0.0,0.3581,0.3581,0.3581,0.3581,0.3581,0.3581,0.3581,0.3581,0.3581,0.0,0.0,0.0,0.0,0.0,0.0,0.0,0.0,0.0,0.3481,0.3048,0.1564,0.2071,0.1854,0.0908,0.0775,0.0598,0.0386,0.0145,0.0235,0.0,0.0,0.0,0.0,0.0,0.0,0.0,0.0,0.0,0.0,0.0,0.0,0.0,0.0,0.0,0.0,0.0,0.0,0.0,0.0,0.0,0.0,0.0,0.6679,0.6998,0.6684,0.6354,0.6061,0.5939,0.0,0.0,0.5128,0.5243,0.5422,0.5452,0.5501,0.5647,0.582,0.62,0.6586,0.6915,0.7658,0.8428,0.9133,0.9758,1.0107,1.0056,1.0456,1.0721,1.0721,1.0721,1.0721,1.0721,1.0721,1.0721,1.0721,1.0443,1.0297,1.0297,1.0297,1.0219,1.007,1.0344,1.0409,1.0287,1.0426,1.049,1.05,1.0653,1.0721,1.0721,1.0721,1.0721,1.0721,1.0721,1.0721,1.0721,1.0721,1.0721,1.0721,0.0,0.0,0.0,0.0,0.0,0.0,0.0,0.0,0.0,0.0,0.3581,0.3581,0.3581,0.3581,0.3581,0.0,0.0,0.0,0.0,0.0,0.0,0.0,0.0,0.0,0.0,0.3303,0.2853,0.2014,0.1915,0.1496,0.0831,0.0824,0.0753,0.0623,0.0208,0.0,0.0,0.0,0.0,0.0,0.0,0.0,0.0,0.0,0.0,0.0,-0.0,-0.0,0.0,0.0,0.0,0.0,0.0,0.0,0.0,0.0,0.238,0.235,0.3021,0.0,0.4685,0.4906,0.4982,0.5068,0.0,0.0,0.0,0.0,0.0,0.0,0.0,0.564,0.5749,0.6237,0.6403,0.6658,0.7193,0.8499,0.951,0.9805,1.0466,1.0677,1.0103,1.0456,1.0721,1.0721,1.0721,1.0721,1.0721,1.0721,1.0721,1.0721,1.0538,1.0443,1.0443,1.0443,1.0371,1.0226,1.0297,1.0314,1.0287,1.0426,1.049,1.05,1.0653,1.0721,1.0721,1.0721,1.0721,1.0721,1.0721,1.0721,1.0721,1.0721,1.0721,1.0721,0.0,0.0,0.0,0.0,0.0,0.0,0.0,0.0,0.0,0.0,0.0,0.3581,0.3581,0.3581,0.0,0.0,0.0,0.0,0.0,0.0,0.0,0.0,0.0,0.0,0.3306,0.3457,0.2955,0.1865,0.207,0.1703,0.0842,0.0785,0.0771,0.0745,0.0262,0.0,0.0,0.0,0.0,0.0,-0.0,0.0,0.0,0.0,0.0,0.0,-0.0,-0.0,0.0,-0.0,-0.0,-0.0,0.0,0.0,0.0,0.0,0.1869,0.2464,0.2523,0.3179,0.3993,0.4496,0.4738,0.483,0.4954,0.0,0.0,0.0,0.0,0.0,0.0,0.5752,0.5918,0.6312,0.6661,0.7143,0.7882,0.8869,0.97,1.0195,1.0551,1.0704,1.0571,1.0656,1.0721,1.0721,1.0721,1.0721,1.0721,1.0721,1.0721,1.0721,1.0639,1.0561,1.049,1.049,1.0422,1.0283,1.0419,1.0446,1.0382,1.0531,1.0599,1.0602,1.0683,1.0721,1.0721,1.0721,1.0721,1.0721,1.0721,1.0721,1.0721,1.0721,1.0721,1.0721,0.0,0.0,0.0,0.0,0.0,0.0,0.0,0.0,0.0,0.0,0.0,0.0,0.0,0.0,0.0,0.0,0.0,0.0,0.0,0.0,0.0,0.0,0.0,0.3407,0.306,0.3659,0.3257,0.178,0.2385,0.2073,0.0904,0.0682,0.0615,0.0756,0.0208,-0.0,0.0,0.0,0.0,0.0,-0.0,0.0,0.0,0.0,0.0,0.0,0.0,0.0,0.0,-0.0,-0.0,0.0056,0.0561,0.0,0.0,0.0,0.0,0.0,0.3202,0.3693,0.4246,0.4755,0.4859,0.4944,0.5041,0.0,0.0,0.0,0.0,0.0,0.0,0.5911,0.0,0.0,0.7054,0.7862,0.8784,0.9191,0.9659,1.0375,1.0432,1.0568,1.0955,1.0829,1.0721,1.0721,1.0721,1.0721,1.0721,1.0721,1.0721,1.0721,1.0721,1.066,1.0527,1.0527,1.0466,1.0351,1.0602,1.0653,1.0531,1.066,1.0721,1.0721,1.0721,1.0721,1.0721,1.0721,1.0721,1.0721,1.0721,1.0721,1.0721,1.0721,1.0721,1.0721,0.0,0.0,0.0,0.0,0.0,0.0,0.0,0.0,0.0,0.0,0.0,0.0,0.0,0.0,0.0,0.0,0.0,0.0,0.0,0.0,0.0,0.0,0.3581,0.3636,0.3662,0.3755,0.3609,0.3111,0.2741,0.1983,0.0875,0.0601,0.0299,0.0116,0.0056,-0.0,-0.0,-0.0,-0.0,-0.0,-0.0,0.0,0.0,0.0,0.0,0.0,0.0,0.0,0.0,-0.0,-0.0,0.0449,0.2977,0.0,0.0,0.0,0.0,0.0,0.4699,0.4925,0.4734,0.4712,0.4787,0.4918,0.4917,0.0,0.0,0.0,0.0,0.0,0.0,0.6278,0.6437,0.0,0.7828,0.8669,0.97,1.0212,1.0439,1.0327,1.0734,1.0816,1.0273,1.0524,1.0721,1.0721,1.0721,1.0721,1.0721,1.0721,1.0721,1.0721,1.0721,1.0711,1.0683,1.0683,1.0673,1.0653,1.07,1.0707,1.0683,1.0711,1.0721,1.0721,1.0721,1.0721,1.0721,1.0721,1.0721,1.0721,1.0721,1.0721,1.0721,1.0721,1.0721,1.0721,0.0,0.0,0.0,0.0,0.0,0.0,0.0,0.0,0.0,0.0,0.0,0.0,0.0,0.0,0.0,0.0,0.0,0.0,0.0,0.0,0.0,0.369,0.3693,0.3724,0.3788,0.3658,0.337,0.2893,0.2384,0.1707,0.0941,0.0411,0.0291,0.0459,0.0169,-0.0,-0.0,-0.0,-0.0,-0.0,0.0,0.0,0.0,0.0,0.0,0.0,0.0,0.0,0.0,0.0,0.2413,0.2525,0.3084,0.0,0.0,0.0,0.0,0.0,0.4159,0.4635,0.5089,0.5132,0.5486,0.5892,0.0,0.0,0.0,0.0,0.0,0.0,0.0,0.0,0.7333,0.8408,0.8798,0.9222,0.9947,1.0154,1.0273,1.0382,1.0565,1.0646,1.0544,1.0646,1.0721,1.0721,1.0721,1.0721,1.0721,1.0721,1.0721,1.0721,1.0721,1.0721,1.0721,1.0721,1.0721,1.0721,1.0721,1.0721,1.0721,1.0721,1.0721,1.0721,1.0721,1.0721,1.0721,1.0721,1.0721,1.0721,1.0721,1.0721,1.0721,1.0721,1.0721,1.0721,0.0,0.0,0.0,0.0,0.0,0.0,0.0,0.0,0.0,0.0,0.0,0.0,0.0,0.0,0.0,0.0,0.0,0.0,0.0,0.0,0.3643,0.3785,0.3826,0.3863,0.3897,0.3685,0.3268,0.2734,0.2347,0.1763,0.1,0.0456,0.0393,0.0673,0.0336,0.0112,-0.0,-0.0,-0.0,-0.0,0.0,0.0,0.0,0.0,0.0,0.0,0.0,0.0,0.0,0.0,0.0,0.0,0.0,0.0,0.0,0.2947,0.3323,0.4038,0.3663,0.448,0.5441,0.5617,0.6,0.0,0.0,0.0,0.0,0.0,0.0,0.0,0.0,0.7404,0.8191,0.9364,0.9578,0.9771,1.029,1.0232,1.0263,1.0609,1.0524,1.0558,1.0867,1.0789,1.0721,1.0721,1.0721,1.0721,1.0721,1.0721,1.0721,1.0721,1.0721,1.0721,1.0721,1.0721,1.0721,1.0721,1.0721,1.0721,1.0721,1.0721,1.0721,1.0721,1.0721,1.0721,1.0721,1.0721,1.0721,1.0721,1.0721,1.0721,1.0721,1.0721,1.0721,1.0721,0.0,0.0,0.0,0.0,0.0,0.0,0.0,0.0,0.0,0.0,0.0,0.0,0.0,0.0,0.0,0.0,0.0,0.0,0.0,0.0,0.3643,0.3785,0.3927,0.402,0.416,0.4046,0.381,0.3514,0.3345,0.2497,0.0998,0.0911,0.0561,0.0112,0.0617,0.0505,-0.0,-0.0,-0.0,-0.0,-0.0,0.0,0.0,0.0,0.0,0.0,0.0,0.0,0.0,0.0,0.0,0.0,0.0,0.0,0.4229,0.2689,0.281,0.3542,0.4435,0.5234,0.5774,0.5935,0.584,0.0,0.6888,0.6776,0.0,0.7373,0.0,0.0,0.0,0.8021,0.8635,0.9289,0.9856,1.047,1.1192,1.1162,1.1077,1.1111,1.0989,1.0856,1.0748,1.0727,1.0721,1.0721,1.0721,1.0721,1.0721,1.0721,1.0721,1.0721,1.0721,1.0721,1.0721,1.0721,1.0721,1.0721,1.0721,1.0721,1.0721,1.0721,1.0721,1.0721,1.0721,1.0721,1.0721,1.0721,1.0721,1.0721,1.0721,1.0721,1.0721,1.0721,1.0721,1.0721,0.0,0.0,0.0,0.0,0.0,0.0,0.0,0.0,0.0,0.0,0.0,0.0,0.0,0.0,0.0,0.0,0.0,0.0,0.0,0.0,0.3687,0.3924,0.3988,0.4134,0.4375,0.3545,0.3281,0.3626,0.2822,0.1895,0.0913,0.0902,0.0785,0.0561,0.0393,0.0449,0.0561,0.0168,-0.0,0.0056,0.0393,0.0561,0.0,0.0,0.0,0.0,0.0,0.0,0.0,0.0,0.449,0.4428,0.4079,0.4182,0.4308,0.3212,0.2903,0.3199,0.464,0.5418,0.58,0.5952,0.6084,0.0,0.0,0.7577,0.7699,0.8072,0.837,0.0,0.0,0.0,0.9388,0.9615,1.0239,1.0826,1.1199,1.1199,1.1128,1.104,1.0982,1.089,1.0734,1.0721,1.0721,1.0721,1.0721,1.0721,1.0721,1.0721,1.0721,1.0721,1.0721,1.0721,1.0721,1.0721,1.0721,1.0721,1.0721,1.0721,1.0721,1.0721,1.0721,1.0721,1.0721,1.0721,1.0721,1.0721,1.0721,1.0721,1.0721,1.0721,1.0721,1.0721,1.0721,1.0721,0.0,0.0,0.0,0.0,0.0,0.0,0.0,0.0,0.0,0.0,0.0,0.0,0.0,0.0,0.0,0.0,0.0,0.0,0.0,0.3581,0.369,0.3938,0.3948,0.4087,0.4389,0.3345,0.3077,0.3579,0.2429,0.1661,0.1289,0.1009,0.0898,0.0898,0.0449,0.0564,0.0911,0.0451,0.0226,0.0171,0.0563,0.1009,0.0,0.0,0.0,0.0,0.0,0.0,0.0,0.0,0.4366,0.4193,0.3962,0.4032,0.4068,0.3495,0.3459,0.3916,0.5018,0.5511,0.5775,0.0,0.0,0.0,0.7848,0.8184,0.8418,0.8944,0.9144,0.9178,0.9022,0.0,0.9727,0.9869,1.0487,1.0999,1.1141,1.1124,1.106,1.0962,1.0907,1.0836,1.0731,1.0721,1.0721,1.0721,1.0721,1.0721,1.0721,1.0721,1.0721,1.0721,1.0721,1.0697,1.0649,1.0697,1.0697,1.0649,1.0697,1.0721,1.0721,1.0721,1.0721,1.0721,1.0721,1.0721,1.0721,1.0721,1.0721,1.0721,1.0721,1.0721,1.0721,1.0721,1.0721,1.0721,0.0,0.0,0.0,0.0,0.0,0.0,0.0,0.0,0.0,0.0,0.0,0.0,0.0,0.0,0.0,0.0,0.0,0.0,0.0,0.3581,0.3643,0.3785,0.3792,0.3934,0.4187,0.3592,0.3387,0.3569,0.2571,0.2071,0.2071,0.1289,0.0898,0.0898,0.0898,0.0971,0.1117,0.0968,0.0743,0.0411,0.0455,0.1345,0.2579,0.0,0.0,0.0,0.0,0.0,0.0,0.0,0.4079,0.3738,0.4294,0.4091,0.3572,0.3378,0.4452,0.5676,0.5676,0.5672,0.5701,0.0,0.0,0.0,0.837,0.8486,0.8655,1.0005,0.9805,0.9435,0.9585,0.9493,0.9537,0.9975,1.0555,1.0995,1.1138,1.1036,1.0948,1.0948,1.0812,1.0721,1.0721,1.0721,1.0721,1.0721,1.0721,1.0721,1.0721,1.0717,1.0717,1.0717,1.0717,1.0643,1.049,1.0639,1.0639,1.049,1.0643,1.0717,1.0721,1.0721,1.0721,1.0721,1.0721,1.0721,1.0717,1.0717,1.0717,1.0721,1.0721,1.0721,1.0721,1.0721,1.0721,1.0721,0.0,0.0,0.0,0.0,0.0,0.0,0.0,0.0,0.0,0.0,0.0,0.0,0.0,0.0,0.0,0.0,0.0,0.0,0.0,0.3581,0.3643,0.3785,0.3792,0.3934,0.4187,0.4151,0.3573,0.2479,0.2211,0.168,0.0896,0.0897,0.0898,0.0898,0.0898,0.0902,0.1024,0.1857,0.2143,0.2049,0.2479,0.2898,0.3247,0.0,0.0,0.0,0.0,0.0,0.0,0.0,0.0,0.0,0.3959,0.4146,0.4374,0.3912,0.4583,0.5508,0.5476,0.5813,0.0,0.6349,0.0,0.0,0.0,0.872,0.0,0.0,1.0053,0.9832,0.9771,0.9981,1.01,0.9917,1.0395,1.0802,1.0846,1.0816,1.0789,1.0789,1.0748,1.0721,1.0721,1.0721,1.0721,1.0721,1.0721,1.0721,1.0721,1.0619,1.0561,1.0561,1.0561,1.049,1.0344,1.0487,1.0487,1.0344,1.049,1.0616,1.0721,1.0721,1.0721,1.0721,1.0721,1.066,1.0561,1.0561,1.0622,1.0721,1.0721,1.0721,1.0721,1.0721,1.0721,1.0721,0.0,0.0,0.0,0.0,0.0,0.0,0.0,0.0,0.0,0.0,0.0,0.0,0.0,0.0,0.0,0.0,0.0,0.0,0.0,0.0,0.3643,0.3785,0.3792,0.3837,0.3872,0.3684,0.2989,0.19,0.2216,0.1736,0.0617,0.0673,0.1017,0.16,0.1466,0.1649,0.2035,0.2719,0.2902,0.2855,0.3166,0.3492,0.3714,0.0,0.0,0.0,0.0,0.0,0.0,0.0,0.0,0.0,0.3755,0.0,0.4386,0.4449,0.4921,0.5439,0.5703,0.6057,0.0,0.6878,0.757,0.8333,0.9113,0.0,0.0,0.0,1.0375,1.0215,1.0185,1.0304,1.0337,1.0124,1.0443,1.0721,1.0721,1.0721,1.0721,1.0721,1.0721,1.0721,1.0721,1.0721,1.0697,1.0633,1.0629,1.0605,1.0548,1.046,1.0409,1.0409,1.0409,1.0337,1.0188,1.0334,1.0334,1.0188,1.0337,1.0456,1.0548,1.0605,1.0629,1.0626,1.0571,1.0493,1.0412,1.047,1.0548,1.0636,1.0697,1.0721,1.0721,1.0721,1.0721,1.0721,0.0,0.0,0.0,0.0,0.0,0.0,0.0,0.0,0.0,0.0,0.0,0.0,0.0,0.0,0.0,0.0,0.0,0.0,0.0,0.0,0.3656,0.3785,0.3772,0.3575,0.3252,0.2477,0.1962,0.1742,0.2244,0.1962,0.0898,0.0561,0.1255,0.2706,0.0,0.2739,0.3625,0.3417,0.327,0.307,0.3111,0.3493,0.4014,0.352,0.0,0.0,0.0,0.0,0.0,0.0,0.0,0.0,0.3751,0.3809,0.4033,0.484,0.523,0.5559,0.6078,0.6271,0.0,0.7573,0.8133,0.0,0.9659,1.0317,1.0751,1.0863,0.0,1.0571,1.0697,1.05,1.0365,1.049,1.0629,1.0721,1.0721,1.0721,1.0721,1.0721,1.0721,1.0721,1.0721,1.0707,1.0639,1.0504,1.048,1.0415,1.0287,1.0266,1.0259,1.0259,1.0259,1.0185,1.0029,1.0181,1.0181,1.0029,1.0185,1.0259,1.0263,1.0409,1.0473,1.0466,1.0321,1.0266,1.029,1.0402,1.046,1.0487,1.0639,1.07,1.07,1.0714,1.0721,1.0721,0.0,0.0,0.0,0.0,0.0,0.0,0.0,0.0,0.0,0.0,0.0,0.0,0.0,0.0,0.0,0.0,0.0,0.0,0.0,0.0,0.3761,0.3788,0.3621,0.3018,0.1989,0.2063,0.1758,0.1107,0.1079,0.1009,0.0,0.0,0.0,0.3004,0.0,0.2915,0.3822,0.3824,0.3829,0.3819,0.4379,0.4741,0.4832,0.4703,0.4832,0.0,0.0,0.0,0.0,0.0,0.0,0.0,0.4455,0.4455,0.4549,0.485,0.5152,0.5467,0.5949,0.6335,0.0,0.0,0.8835,0.9785,1.0243,1.0541,1.0663,1.0466,1.0653,1.0822,1.0734,1.067,1.0636,1.0666,1.07,1.0721,1.0721,1.0721,1.0721,1.0721,1.0721,1.0721,1.0721,1.0612,1.0527,1.0493,1.0388,1.0314,1.0283,1.0164,1.01,1.01,1.01,1.0025,0.9873,1.0022,1.0022,0.9873,1.0025,1.01,1.0103,1.0256,1.0327,1.0317,1.0164,1.0168,1.0273,1.0181,1.0215,1.0341,1.0483,1.0541,1.0555,1.0677,1.0721,1.0721,0.0,0.0,0.0,0.0,0.0,0.0,0.0,0.0,0.0,0.0,0.0,0.0,0.0,0.0,0.0,0.0,0.0,0.0,0.0,0.0,0.0,0.3602,0.3439,0.2966,0.2122,0.246,0.237,0.1781,0.1636,0.0,0.0,0.0,0.0,0.355,0.0,0.3668,0.446,0.4455,0.4461,0.4587,0.4975,0.5176,0.524,0.524,0.524,0.522,0.5074,0.0,0.0,0.0,0.0,0.0,0.0,0.0,0.4843,0.5067,0.5189,0.5396,0.6061,0.0,0.0,0.8367,0.0,1.011,1.0337,1.0453,1.0466,1.0314,1.0521,1.0727,1.0721,1.066,1.0633,1.0707,1.066,1.0636,1.0711,1.0656,1.0636,1.0711,1.0656,1.0639,1.0714,1.0521,1.0392,1.0392,1.0253,1.0137,1.0066,0.9981,0.9941,0.9941,0.9941,0.99,0.9822,0.99,0.99,0.9822,0.99,0.9941,0.9944,1.01,1.0131,1.0056,0.9975,0.9985,1.0059,1.0053,1.0141,1.0293,1.0436,1.0534,1.0612,1.069,1.0721,1.0721,0.0,0.0,0.0,0.0,0.0,0.0,0.0,0.0,0.0,0.0,0.0,0.0,0.0,0.0,0.0,0.0,0.0,0.0,0.0,0.0,0.0,0.0,0.3361,0.314,0.2703,0.3028,0.3026,0.2703,0.0,0.0,0.0,0.0,0.0,0.4027,0.0,0.4469,0.5162,0.5043,0.5064,0.5169,0.5169,0.5233,0.5325,0.5418,0.5394,0.527,0.5169,0.5213,0.5219,0.4344,0.0,0.0,0.0,0.0,0.4972,0.5243,0.525,0.5348,0.6173,0.0,0.7465,0.8906,0.9642,0.0,1.0171,1.0243,1.028,1.028,1.0375,1.0493,1.0622,1.0541,1.0497,1.0622,1.0538,1.0497,1.0626,1.0534,1.0504,1.0629,1.0531,1.0507,1.0633,1.0399,1.0243,1.0243,1.0097,0.9954,0.9829,0.9822,0.9812,0.9785,0.9785,0.9771,0.9744,0.9771,0.9785,0.9785,0.9808,0.9822,0.9825,0.9951,0.9941,0.9822,0.9822,0.9822,0.9832,0.9958,1.0086,1.0219,1.0388,1.0531,1.0649,1.07,1.0721,1.0721,0.0,0.0,0.0,0.0,0.0,0.0,0.0,0.0,0.0,0.0,0.0,0.0,0.0,0.0,0.0,0.0,0.0,0.0,0.0,0.0,0.0,0.3597,0.3564,0.3281,0.2737,0.2778,0.2776,0.0,0.0,0.0,0.0,0.0,0.0,0.4146,0.0,0.0,0.5328,0.5311,0.5315,0.5332,0.5332,0.526,0.5176,0.5311,0.5203,0.4992,0.5094,0.5142,0.5091,0.4988,0.4988,0.0,0.0,0.0,0.4952,0.5114,0.5243,0.5443,0.0,0.0,0.8038,0.0,0.933,0.9856,0.0,0.0,1.028,1.028,1.0297,1.0317,1.0334,1.0324,1.0317,1.0334,1.0324,1.0317,1.0337,1.0321,1.0317,1.0337,1.0321,1.0317,1.0337,1.0181,1.008,1.008,0.9937,0.9842,0.9822,0.9822,0.9764,0.9642,0.9639,0.9574,0.9442,0.9571,0.9639,0.9639,0.9764,0.9822,0.9822,0.9842,0.9839,0.9822,0.9822,0.9822,0.9822,0.9842,0.9863,0.991,1.0198,1.0321,1.0371,1.0626,1.0721,1.0721,0.0,0.0,0.0,0.0,0.0,0.0,0.0,0.0,0.0,0.0,0.0,0.0,0.0,0.0,0.0,0.0,0.0,0.0,0.0,0.0,0.0,0.3624,0.3624,0.3482,0.3194,0.354,0.3741,0.0,0.0,0.0,0.0,0.4424,0.4492,0.0,0.0,0.0,0.0,0.5428,0.5428,0.5428,0.5428,0.5372,0.5386,0.5369,0.5335,0.5281,0.5169,0.5186,0.5233,0.5067,0.5121,0.5243,0.5159,0.0,0.0,0.0,0.5308,0.5515,0.6217,0.7021,0.7814,0.0,0.8957,0.9347,0.9429,0.9683,0.988,0.9795,0.9846,0.9981,1.0236,1.0209,1.0178,1.0266,1.0209,1.0181,1.0266,1.0205,1.0181,1.027,1.0205,1.0185,1.0273,1.0063,0.9958,1.0042,0.9907,0.9785,0.9707,0.9703,0.9635,0.9486,0.9483,0.9449,0.9381,0.9449,0.9523,0.9608,0.9585,0.9622,0.9703,0.9703,0.9744,0.9822,0.9822,0.9822,0.9822,0.9822,0.9873,0.9961,1.0097,1.0205,1.0297,1.0426,1.0524,1.0592,0.0,0.0,0.0,0.0,0.0,0.0,0.0,0.0,0.0,0.0,0.0,0.0,0.0,0.0,0.0,0.0,0.0,0.0,0.0,0.0,0.0,0.3849,0.3849,0.3849,0.3849,0.4294,0.0,0.0,0.0,0.0,0.5189,0.5308,0.547,0.0,0.5437,0.0,0.0,0.0,0.0,0.0,0.5403,0.5464,0.5532,0.5532,0.5555,0.5559,0.5332,0.5321,0.5372,0.5074,0.5145,0.5342,0.5226,0.527,0.0,0.0,0.0,0.5525,0.0,0.0,0.7258,0.7963,0.8428,0.8757,0.0,0.0,0.9459,0.9347,0.9445,0.9652,0.9988,0.9988,0.9975,1.009,1.0012,0.9978,1.0093,1.0008,0.9981,1.0097,1.0008,0.9968,1.0042,0.988,0.9815,0.993,0.9832,0.972,0.9615,0.9571,0.9483,0.9327,0.9323,0.9306,0.9269,0.9306,0.9401,0.9551,0.9435,0.9442,0.9554,0.9591,0.9646,0.9713,0.9788,0.9822,0.9822,0.9822,0.9886,0.9995,1.0032,1.012,1.0226,1.0266,1.0348,1.0439,0.0,0.0,0.0,0.0,0.0,0.0,0.0,0.0,0.0,0.0,0.0,0.0,0.0,0.0,0.0,0.4033,0.0,0.0,0.0,0.0,0.0,0.4463,0.4463,0.0,0.4463,0.4463,0.0,0.0,0.0,0.0,0.5415,0.5425,0.5511,0.5772,0.5637,0.5498,0.5428,0.0,0.0,0.0,0.0,0.5494,0.542,0.5837,0.5827,0.5589,0.5572,0.5569,0.5532,0.5223,0.5226,0.5425,0.5418,0.5422,0.5428,0.0,0.0,0.0,0.0,0.6078,0.0,0.7061,0.7651,0.816,0.0,0.0,0.9174,0.9167,0.9286,0.9401,0.9425,0.954,0.9635,0.9642,0.9639,0.9635,0.9642,0.9639,0.9635,0.9642,0.9639,0.9578,0.9442,0.9544,0.9625,0.9632,0.9625,0.9615,0.9608,0.9473,0.9323,0.9171,0.9164,0.91,0.8964,0.9096,0.9242,0.9395,0.9384,0.9384,0.9398,0.9544,0.9534,0.9418,0.97,0.9822,0.9822,0.9822,0.9825,0.9846,0.9992,1.0056,1.008,1.0226,1.0287,1.029,0.0,0.0,0.0,0.0,0.0,0.0,0.0,0.0,0.0,0.0,0.0,0.0,0.0,0.413,0.4174,0.412,0.4113,0.0,0.0,0.0,0.0,0.4519,0.4519,0.4563,0.4606,0.0,0.0,0.0,0.0,0.5159,0.5428,0.546,0.5511,0.5515,0.5464,0.5467,0.5501,0.5403,0.0,0.0,0.0,0.0,0.0,0.5969,0.6084,0.6132,0.5939,0.5871,0.5854,0.5745,0.562,0.5508,0.5508,0.544,0.5428,0.5428,0.5428,0.5426,0.0,0.0,0.0,0.6586,0.7163,0.7638,0.7746,0.834,0.8815,0.8625,0.8781,0.895,0.895,0.9232,0.9462,0.9462,0.9462,0.9462,0.9462,0.9462,0.9462,0.9462,0.9462,0.9442,0.9388,0.9432,0.9462,0.9462,0.9462,0.9381,0.9188,0.9215,0.9076,0.8733,0.8818,0.8798,0.8648,0.8696,0.8849,0.9096,0.8998,0.9049,0.9239,0.9293,0.9286,0.9252,0.9554,0.9686,0.9693,0.9785,0.9822,0.9825,0.988,0.9903,0.991,0.9964,1.0049,1.0134,0.0,0.0,0.0,0.0,0.0,0.0,0.0,0.0,0.0,0.0,0.0,0.0,0.0,0.0,0.4321,0.4321,0.4321,0.4362,0.4512,0.4567,0.4538,0.4538,0.4589,0.4663,0.4765,0.0,0.0,0.0,0.0,0.0,0.0,0.5464,0.5488,0.5437,0.5452,0.5416,0.0,0.0,0.0,0.5464,0.0,0.0,0.6054,0.6254,0.639,0.6454,0.6308,0.6224,0.6173,0.6125,0.5976,0.5796,0.5694,0.5525,0.5428,0.5428,0.5428,0.547,0.5599,0.0,0.0,0.0,0.6624,0.6973,0.7177,0.776,0.8231,0.8136,0.8353,0.8577,0.8625,0.8879,0.9096,0.9147,0.9154,0.9154,0.9154,0.9154,0.9154,0.9154,0.9154,0.9137,0.9086,0.9174,0.9232,0.9232,0.9232,0.9147,0.895,0.893,0.8791,0.8489,0.8581,0.8584,0.8482,0.8482,0.8584,0.8784,0.8733,0.8811,0.9008,0.9106,0.9127,0.9096,0.9401,0.9561,0.9618,0.9764,0.9822,0.9822,0.9822,0.9822,0.9822,0.9822,0.9886,0.9971,0.0,0.0,0.0,0.0,0.0,0.0,0.0,0.0,0.0,0.0,0.0,0.0,0.0,0.0,0.0,0.4532,0.4532,0.4532,0.4532,0.4616,0.4697,0.4697,0.0,0.0,0.0,0.0,0.0,0.0,0.0,0.0,0.0,0.0,0.544,0.5576,0.543,0.5428,0.5428,0.0,0.5454,0.5616,0.0,0.604,0.6108,0.6702,0.6749,0.6519,0.6661,0.6617,0.6471,0.6332,0.6274,0.6207,0.5898,0.5603,0.5439,0.5439,0.5439,0.5439,0.0,0.0,0.0,0.0,0.0,0.6179,0.6763,0.7139,0.7444,0.7726,0.8035,0.8292,0.8435,0.8462,0.8513,0.8665,0.8699,0.8703,0.8703,0.8703,0.8703,0.8703,0.8703,0.8645,0.8496,0.875,0.8923,0.8923,0.8923,0.8923,0.892,0.8632,0.8472,0.8476,0.8472,0.8469,0.8469,0.8469,0.8472,0.8476,0.8625,0.8703,0.872,0.9008,0.9066,0.8954,0.9249,0.9459,0.9608,0.9754,0.9819,0.9822,0.9822,0.9822,0.9822,0.9822,0.9822,0.9822,0.0,0.0,0.0,0.0,0.0,0.0,0.0,0.0,0.0,0.0,0.0,0.0,0.0,0.0,0.4792,0.4792,0.4792,0.4792,0.4792,0.4833,0.4857,0.4857,0.4897,0.4965,0.0,0.0,0.0,0.0,0.0,0.0,0.0,0.0,0.0,0.0,0.5449,0.5428,0.5435,0.5481,0.0,0.5633,0.6146,0.6349,0.6393,0.678,0.701,0.7112,0.7044,0.699,0.6949,0.6909,0.6614,0.6207,0.5898,0.5745,0.5681,0.5681,0.5681,0.5681,0.5681,0.0,0.0,0.0,0.0,0.0,0.6101,0.6678,0.72,0.7177,0.7499,0.7828,0.797,0.7997,0.8048,0.8201,0.8404,0.8547,0.8547,0.8547,0.8547,0.8547,0.8547,0.8526,0.8486,0.856,0.8608,0.8608,0.8608,0.8564,0.8462,0.8269,0.8214,0.8326,0.8221,0.816,0.816,0.816,0.8218,0.833,0.8374,0.8506,0.8713,0.8794,0.8872,0.895,0.9137,0.9242,0.93,0.9561,0.9727,0.9822,0.9822,0.9822,0.9822,0.9822,0.9822,0.9822,0.0,0.0,0.0,0.0,0.0,0.0,0.0,0.0,0.0,0.0,0.0,0.0,0.0,0.0,0.0,0.4918,0.4918,0.4918,0.4918,0.4972,0.5006,0.5006,0.507,0.5142,0.5223,0.0,0.0,0.0,0.0,0.0,0.0,0.0,0.0,0.0,0.0,0.0,0.0,0.0,0.0,0.0,0.6257,0.6512,0.6607,0.6973,0.718,0.7282,0.7319,0.7292,0.7238,0.7238,0.6841,0.6318,0.6139,0.5952,0.58,0.58,0.58,0.0,0.0,0.0,0.0,0.5755,0.0,0.0,0.6044,0.6441,0.682,0.6983,0.7278,0.755,0.7695,0.7723,0.7753,0.7841,0.8001,0.8157,0.8279,0.8299,0.8299,0.8299,0.8299,0.8299,0.8299,0.8357,0.8394,0.8394,0.8394,0.833,0.818,0.8089,0.8079,0.817,0.8085,0.8038,0.8038,0.8038,0.8085,0.8174,0.8241,0.8391,0.8615,0.8615,0.8733,0.894,0.896,0.9039,0.9167,0.9347,0.9544,0.9734,0.9734,0.9768,0.9822,0.9822,0.9822,0.9822,0.0,0.0,0.0,0.4019,0.406,0.4121,0.422,0.0,0.0,0.0,0.0,0.0,0.0,0.0,0.0,0.0,0.4969,0.4969,0.4969,0.5087,0.5155,0.5155,0.5287,0.5435,0.5452,0.5435,0.0,0.0,0.0,0.0,0.0,0.0,0.0,0.0,0.0,0.0,0.0,0.0,0.0,0.5888,0.6305,0.6573,0.677,0.7187,0.7292,0.7251,0.7526,0.7536,0.7411,0.7363,0.699,0.6536,0.6488,0.621,0.5895,0.5861,0.5864,0.0,0.0,0.0,0.0,0.5996,0.5833,0.0,0.6261,0.6315,0.64,0.6892,0.7129,0.7295,0.7448,0.7475,0.7478,0.7499,0.7526,0.7651,0.795,0.7991,0.7997,0.8014,0.8001,0.8004,0.8035,0.8147,0.8228,0.8245,0.8245,0.8184,0.8045,0.8038,0.8038,0.8038,0.8038,0.8038,0.8038,0.8038,0.8038,0.8041,0.818,0.8319,0.8459,0.8459,0.8615,0.8879,0.8743,0.8845,0.9103,0.9103,0.9303,0.9608,0.9608,0.9696,0.9822,0.9822,0.9822,0.9822,0.0,0.0,0.4022,0.4123,0.4297,0.4429,0.4582,0.0,0.0,0.0,0.0,0.0,0.0,0.0,0.0,0.0,0.5274,0.5274,0.5274,0.5301,0.5318,0.5318,0.5411,0.542,0.5542,0.5423,0.0,0.0,0.0,0.0,0.0,0.0,0.0,0.0,0.0,0.0,0.0,0.0,0.0,0.619,0.639,0.6637,0.6905,0.7109,0.739,0.7689,0.7746,0.775,0.7672,0.7305,0.7105,0.6946,0.6586,0.6495,0.6478,0.624,0.6251,0.6315,0.6203,0.6081,0.5993,0.6023,0.5986,0.0,0.5789,0.602,0.6224,0.6091,0.6285,0.6522,0.6664,0.6692,0.6732,0.6854,0.7075,0.7336,0.7641,0.7685,0.7729,0.7841,0.7753,0.778,0.8018,0.7957,0.7953,0.8075,0.8085,0.8072,0.8041,0.8038,0.8038,0.8038,0.8038,0.8038,0.8038,0.8038,0.8038,0.8038,0.8069,0.8163,0.8313,0.8313,0.8408,0.857,0.854,0.8628,0.8798,0.8798,0.9117,0.9608,0.9608,0.9696,0.9822,0.9822,0.9822,0.9822,0.0,0.0,0.4127,0.4328,0.4477,0.4602,0.4677,0.0,0.0,0.0,0.0,0.0,0.0,0.0,0.0,0.0,0.0,0.0,0.0,0.5542,0.5583,0.5583,0.5583,0.5616,0.5694,0.562,0.5583,0.0,0.0,0.0,0.0,0.0,0.0,0.0,0.0,0.0,0.0,0.0,0.6118,0.6281,0.6498,0.681,0.7156,0.7227,0.7533,0.7916,0.7838,0.7811,0.7767,0.7468,0.7268,0.7102,0.6875,0.681,0.677,0.6546,0.6529,0.6556,0.6407,0.6257,0.6162,0.6234,0.6139,0.0,0.0,0.604,0.6125,0.6047,0.6152,0.6359,0.6356,0.6366,0.639,0.6468,0.6729,0.6926,0.6929,0.7319,0.7628,0.7695,0.7645,0.7658,0.7804,0.775,0.7736,0.7814,0.7885,0.7926,0.7926,0.7997,0.8038,0.8038,0.7967,0.7963,0.8038,0.7963,0.7963,0.8038,0.8038,0.8123,0.8269,0.8191,0.8275,0.8479,0.8408,0.8462,0.8604,0.8679,0.8933,0.9283,0.9354,0.9517,0.9717,0.9717,0.9761,0.9822,0.4147,0.0,0.0,0.4498,0.4613,0.4735,0.4735,0.4887,0.0,0.0,0.0,0.0,0.0,0.0,0.0,0.0,0.0,0.0,0.0,0.5796,0.5844,0.5844,0.5817,0.583,0.5888,0.583,0.5759,0.5674,0.0,0.0,0.0,0.0,0.0,0.0,0.0,0.0,0.0,0.0,0.0,0.6366,0.6607,0.6919,0.7244,0.7275,0.7546,0.7902,0.7834,0.7811,0.779,0.7648,0.7434,0.7214,0.7126,0.7058,0.6973,0.6763,0.6742,0.6746,0.6566,0.6434,0.6366,0.6451,0.6315,0.6169,0.0,0.0,0.0,0.6118,0.6108,0.6163,0.6163,0.6163,0.6163,0.6163,0.6335,0.6444,0.6207,0.6848,0.7353,0.738,0.7434,0.7482,0.7509,0.7539,0.7567,0.7597,0.7678,0.774,0.777,0.7889,0.7953,0.7953,0.7862,0.7872,0.7994,0.7902,0.7916,0.8038,0.8038,0.8106,0.8221,0.8096,0.817,0.8391,0.8275,0.8306,0.8452,0.8574,0.873,0.8913,0.9086,0.932,0.9568,0.9598,0.9683,0.9785,0.4187,0.4351,0.0,0.0,0.4701,0.4894,0.4894,0.5131,0.0,0.0,0.0,0.0,0.0,0.0,0.0,0.0,0.0,0.6186,0.6186,0.6071,0.6003,0.6003,0.5874,0.5928,0.6203,0.5942,0.5861,0.5979,0.0,0.0,0.0,0.0,0.0,0.0,0.6078,0.0,0.0,0.0,0.6512,0.6654,0.6685,0.6729,0.6793,0.6929,0.7173,0.7478,0.7723,0.7811,0.779,0.7648,0.7577,0.7478,0.7078,0.7122,0.7238,0.6824,0.6885,0.7031,0.6749,0.6664,0.662,0.6502,0.6549,0.6525,0.6142,0.0,0.5962,0.5718,0.0,0.5531,0.5531,0.0,0.0,0.5531,0.5711,0.5891,0.5857,0.6176,0.6461,0.6586,0.6841,0.7054,0.718,0.7316,0.7455,0.759,0.7489,0.7482,0.7617,0.7641,0.7648,0.7648,0.7753,0.7821,0.7838,0.7957,0.8021,0.8038,0.8038,0.8048,0.8065,0.8048,0.8058,0.8089,0.8072,0.8153,0.8296,0.8313,0.8486,0.8764,0.9042,0.9256,0.9422,0.9561,0.9618,0.9652,0.4392,0.4494,0.0,0.0,0.4843,0.5043,0.5043,0.5369,0.0,0.0,0.0,0.0,0.0,0.0,0.0,0.0,0.6417,0.6383,0.6383,0.6322,0.0,0.6166,0.6101,0.6129,0.6335,0.6132,0.6054,0.603,0.6054,0.0,0.0,0.0,0.0,0.0,0.624,0.0,0.6552,0.0,0.6644,0.6709,0.6797,0.678,0.6736,0.7061,0.737,0.7655,0.7868,0.7943,0.7923,0.7773,0.7668,0.758,0.7475,0.7346,0.7217,0.7119,0.7054,0.699,0.6868,0.6831,0.6797,0.6644,0.6654,0.6583,0.6132,0.603,0.5969,0.5755,0.0,0.0,0.0,0.0,0.0,0.0,0.561,0.5742,0.5572,0.5881,0.6183,0.6332,0.6464,0.663,0.6861,0.7024,0.7173,0.7322,0.7272,0.7305,0.7458,0.7553,0.76,0.76,0.7658,0.7729,0.7811,0.7875,0.795,0.8038,0.8038,0.8038,0.8038,0.8038,0.8038,0.8038,0.8038,0.8075,0.8143,0.8235,0.8391,0.8601,0.8815,0.9042,0.9266,0.9418,0.9534,0.9632,0.4609,0.0,0.0,0.0,0.4962,0.5145,0.5186,0.5508,0.0,0.0,0.0,0.0,0.621,0.6393,0.6603,0.682,0.6878,0.6868,0.6787,0.6702,0.661,0.6508,0.6424,0.64,0.6444,0.6363,0.6244,0.6095,0.0,0.0,0.0,0.0,0.0,0.0,0.0,0.6522,0.6861,0.0,0.681,0.6895,0.7004,0.7031,0.7031,0.7278,0.7529,0.7773,0.7923,0.7977,0.796,0.7848,0.7743,0.7668,0.7733,0.7556,0.7339,0.7414,0.7309,0.7143,0.7021,0.6987,0.6929,0.6698,0.6637,0.6542,0.6176,0.6095,0.6051,0.5895,0.5864,0.0,0.0,0.0,0.5552,0.0,0.0,0.5606,0.5459,0.564,0.5888,0.6003,0.6084,0.6251,0.6552,0.6681,0.6803,0.6946,0.6997,0.7088,0.7241,0.739,0.7475,0.7475,0.7516,0.7607,0.775,0.779,0.7889,0.8038,0.8038,0.8038,0.8038,0.8038,0.8038,0.8038,0.8038,0.8038,0.8048,0.816,0.8316,0.8492,0.8604,0.8832,0.9117,0.931,0.9452,0.9574,0.4904,0.4908,0.0,0.0,0.5033,0.5179,0.5332,0.5491,0.5644,0.5776,0.6183,0.6515,0.6664,0.7322,0.7756,0.7767,0.7902,0.7868,0.7584,0.7285,0.7115,0.7112,0.6841,0.6756,0.6905,0.6617,0.6396,0.6254,0.6257,0.0,0.0,0.0,0.0,0.0,0.6407,0.6556,0.6719,0.6861,0.7085,0.735,0.7356,0.7526,0.7746,0.7475,0.7468,0.7624,0.7767,0.7818,0.7818,0.7814,0.7807,0.778,0.7648,0.7692,0.7763,0.7631,0.7682,0.7689,0.7251,0.7132,0.7027,0.6586,0.6478,0.6441,0.6288,0.6254,0.621,0.6054,0.6023,0.5976,0.5823,0.5684,0.0,0.0,0.0,0.0,0.0,0.5439,0.5452,0.5456,0.5644,0.5939,0.6244,0.6281,0.6342,0.6481,0.663,0.678,0.6936,0.7078,0.7153,0.7153,0.7299,0.7451,0.7604,0.7743,0.7889,0.8038,0.8038,0.8038,0.8038,0.8038,0.8038,0.8038,0.8038,0.8038,0.8038,0.8045,0.8218,0.8482,0.8486,0.8676,0.8981,0.9273,0.9384,0.9432,0.0,0.0,0.0,0.0,0.0,0.5335,0.5491,0.581,0.6159,0.6502,0.6939,0.7353,0.7702,0.8048,0.8296,0.8397,0.8275,0.815,0.8052,0.7573,0.7292,0.7292,0.6912,0.6773,0.6926,0.6729,0.6549,0.64,0.64,0.0,0.0,0.0,0.0,0.0,0.0,0.6664,0.0,0.7048,0.7244,0.7522,0.7522,0.7584,0.7682,0.7777,0.7845,0.7896,0.7943,0.7963,0.7963,0.7963,0.7896,0.7821,0.7875,0.7719,0.755,0.7695,0.7634,0.7509,0.7458,0.7512,0.7455,0.6909,0.6844,0.68,0.6363,0.6338,0.6247,0.6193,0.6183,0.6135,0.5979,0.583,0.0,0.0,0.0,0.0,0.0,0.5428,0.5226,0.4755,0.5341,0.584,0.5945,0.6142,0.6318,0.6461,0.6519,0.6661,0.6915,0.6973,0.7044,0.7136,0.7292,0.7444,0.7597,0.774,0.7889,0.8038,0.8038,0.8038,0.8038,0.8038,0.8038,0.8038,0.8038,0.8038,0.8038,0.8038,0.8214,0.8482,0.8482,0.8669,0.8974,0.9273,0.9381,0.9422,0.5213,0.0,0.0,0.0,0.5338,0.5477,0.5576,0.6061,0.6559,0.6953,0.7441,0.7926,0.8377,0.8652,0.8821,0.8866,0.8794,0.8611,0.8292,0.8007,0.7753,0.7536,0.7302,0.7197,0.7241,0.699,0.6783,0.6634,0.6525,0.6454,0.0,0.0,0.0,0.0,0.0,0.6675,0.7139,0.7139,0.738,0.7756,0.7756,0.7756,0.7777,0.7967,0.7974,0.7896,0.8001,0.8038,0.8038,0.8038,0.7974,0.7909,0.8007,0.7841,0.7645,0.7838,0.7756,0.7607,0.76,0.7665,0.7617,0.7126,0.7071,0.7014,0.6529,0.6461,0.6481,0.6427,0.6373,0.6352,0.6413,0.6125,0.0,0.0,0.0,0.0,0.0,0.5428,0.5226,0.4755,0.5251,0.5614,0.5428,0.5739,0.6067,0.6373,0.6346,0.6471,0.6827,0.6898,0.6993,0.7136,0.7238,0.739,0.7597,0.7689,0.7838,0.8038,0.8038,0.8038,0.8038,0.8038,0.8038,0.8038,0.8038,0.8038,0.8038,0.8038,0.8214,0.8482,0.8482,0.8669,0.8974,0.9273,0.9449,0.9564,0.5439,0.5446,0.5449,0.5449,0.5508,0.561,0.561,0.6251,0.6844,0.7156,0.7733,0.8289,0.874,0.9178,0.9371,0.9211,0.9456,0.9256,0.8394,0.8577,0.8465,0.7892,0.7984,0.798,0.7824,0.739,0.7088,0.6939,0.6641,0.0,0.0,0.0,0.0,0.0,0.6332,0.0,0.7139,0.7149,0.7495,0.8038,0.8038,0.8031,0.8021,0.8035,0.7855,0.7638,0.7933,0.8038,0.8038,0.8038,0.8038,0.8038,0.8038,0.8038,0.8038,0.8038,0.8038,0.7977,0.7699,0.7621,0.755,0.7238,0.7163,0.7085,0.679,0.6834,0.6898,0.6753,0.6607,0.663,0.7044,0.6532,0.6139,0.0,0.0,0.0,0.5459,0.5432,0.5362,0.5359,0.5376,0.5209,0.4736,0.5117,0.5686,0.6186,0.6105,0.6227,0.6675,0.6831,0.6976,0.7136,0.7139,0.7288,0.7597,0.76,0.7746,0.8038,0.8038,0.8038,0.8038,0.8038,0.8038,0.8038,0.8038,0.8038,0.8038,0.8038,0.8214,0.8482,0.8482,0.8672,0.8984,0.9276,0.9568,0.9822,0.5532,0.5616,0.5688,0.5688,0.5817,0.5918,0.5918,0.6647,0.7387,0.7913,0.8696,0.9378,0.9829,1.0073,1.01,0.9842,0.9788,0.9622,0.9286,0.9025,0.8811,0.8655,0.8367,0.814,0.7984,0.7651,0.7353,0.7085,0.6902,0.0,0.6698,0.0,0.0,0.0,0.0,0.6685,0.7146,0.7261,0.7594,0.8038,0.8038,0.7909,0.7736,0.7957,0.7855,0.7638,0.7933,0.8038,0.8038,0.8038,0.8038,0.8038,0.8038,0.8038,0.8038,0.8038,0.8038,0.8024,0.7946,0.7926,0.7855,0.7556,0.7482,0.74,0.7095,0.7058,0.7075,0.7034,0.6997,0.6936,0.6831,0.6566,0.6312,0.6166,0.0,0.5576,0.5538,0.5433,0.5226,0.4622,0.5274,0.5517,0.5061,0.5398,0.5708,0.5759,0.5928,0.6227,0.6675,0.663,0.6759,0.7129,0.7139,0.7288,0.7597,0.76,0.7746,0.8038,0.8038,0.8038,0.8038,0.8038,0.8038,0.8038,0.8038,0.8038,0.8038,0.8038,0.8214,0.8482,0.8482,0.8733,0.912,0.931,0.9568,0.9822,0.5681,0.5854,0.6003,0.6003,0.6396,0.6671,0.6536,0.6946,0.7556,0.8357,0.9072,0.9656,1.0039,1.0385,1.0473,1.0175,1.0073,0.9849,0.9439,0.9354,0.9178,0.8852,0.8723,0.8523,0.8238,0.7943,0.7645,0.7343,0.7065,0.0,0.6793,0.0,0.0,0.0,0.0,0.6722,0.716,0.7441,0.7709,0.7943,0.8014,0.794,0.0,0.7977,0.7936,0.7814,0.798,0.8038,0.8038,0.8038,0.8038,0.8038,0.8038,0.8038,0.8038,0.8038,0.8038,0.8038,0.8038,0.8038,0.7997,0.7834,0.779,0.7712,0.7411,0.7343,0.7343,0.7343,0.7234,0.717,0.7268,0.6895,0.6451,0.6088,0.5891,0.5759,0.5691,0.5606,0.5277,0.4516,0.5221,0.5303,0.4273,0.5215,0.5692,0.5265,0.5324,0.5613,0.5912,0.5962,0.6286,0.6939,0.7204,0.7424,0.7597,0.7729,0.7875,0.8038,0.8038,0.8038,0.8038,0.8038,0.8038,0.8038,0.8038,0.8038,0.8038,0.8038,0.8214,0.8496,0.8628,0.8876,0.9164,0.9249,0.9469,0.973,0.5861,0.6091,0.6288,0.6288,0.7014,0.7543,0.737,0.7414,0.7794,0.871,0.9252,0.9652,0.991,1.0388,1.0578,1.0304,1.0263,0.9964,0.9286,0.9605,0.9523,0.8855,0.9055,0.8974,0.8523,0.8221,0.7916,0.76,0.7187,0.0,0.0,0.0,0.0,0.0,0.0,0.0,0.0,0.7638,0.7824,0.7851,0.7987,0.8038,0.8038,0.8038,0.8038,0.8038,0.8038,0.8038,0.8038,0.8038,0.8038,0.8038,0.8038,0.8038,0.8038,0.8038,0.8038,0.8038,0.8038,0.8038,0.8038,0.8038,0.8038,0.7974,0.7716,0.7658,0.7658,0.7658,0.7444,0.7407,0.7892,0.7312,0.6617,0.6186,0.6132,0.6101,0.5966,0.5932,0.5612,0.4921,0.534,0.0,0.3498,0.4799,0.5463,0.4676,0.4607,0.4764,0.4936,0.5286,0.5885,0.6749,0.7285,0.758,0.76,0.7872,0.8021,0.8038,0.8038,0.8038,0.8038,0.8038,0.8038,0.8038,0.8038,0.8038,0.8038,0.8038,0.8214,0.8513,0.8818,0.9015,0.9127,0.9147,0.9334,0.9585,0.6179,0.6318,0.6434,0.6434,0.7082,0.7787,0.835,0.8859,0.9242,0.9429,1.0056,1.0504,1.0555,1.0544,1.0463,1.0293,1.0164,0.9978,0.972,0.9778,0.971,0.9462,0.9381,0.913,0.8679,0.8381,0.8024,0.76,0.7394,0.0,0.0,0.0,0.0,0.0,0.0,0.0,0.7533,0.7729,0.7882,0.8001,0.8028,0.8038,0.8038,0.8038,0.8038,0.8038,0.8038,0.8038,0.8038,0.8038,0.8038,0.8038,0.8038,0.8038,0.8038,0.8038,0.8038,0.8038,0.8038,0.8038,0.8038,0.8038,0.8038,0.8024,0.7974,0.7963,0.7963,0.7963,0.7919,0.7841,0.7702,0.7339,0.6956,0.6634,0.6688,0.6763,0.6736,0.6624,0.6371,0.6056,0.6183,0.5992,0.5094,0.4855,0.4552,0.4092,0.4173,0.4463,0.4846,0.5541,0.6212,0.7048,0.7288,0.7472,0.7597,0.7767,0.7916,0.8038,0.8038,0.8038,0.8038,0.8038,0.8038,0.8038,0.8038,0.8038,0.8038,0.8038,0.8214,0.8513,0.8818,0.8954,0.8991,0.911,0.9266,0.9439,0.659,0.6661,0.6807,0.7112,0.779,0.8492,0.9086,0.9751,1.0073,0.9761,1.0032,1.0253,1.0253,1.0395,1.0436,1.0293,1.0137,0.9985,0.9832,0.9822,0.9758,0.9615,0.9462,0.9171,0.872,0.8492,0.8123,0.76,0.7448,0.7221,0.0,0.0,0.0,0.0,0.0,0.7278,0.0,0.7719,0.7851,0.7929,0.8007,0.8038,0.8038,0.8038,0.8038,0.8041,0.7952,0.7955,0.7955,0.8041,0.8038,0.8038,0.8038,0.8038,0.8038,0.8038,0.8038,0.8038,0.8038,0.8038,0.8038,0.8038,0.8038,0.8038,0.8038,0.8038,0.8038,0.8038,0.8038,0.795,0.7655,0.735,0.7095,0.6953,0.6861,0.6865,0.7017,0.6973,0.6705,0.6148,0.6329,0.5908,0.4257,0.4265,0.4242,0.4051,0.4152,0.4428,0.4985,0.5352,0.5978,0.6898,0.736,0.76,0.76,0.7899,0.8045,0.8038,0.8038,0.8038,0.8038,0.8038,0.8038,0.8038,0.8038,0.8038,0.8052,0.8204,0.8401,0.8621,0.8852,0.894,0.8957,0.91,0.9256,0.9298,0.7061,0.7115,0.7302,0.7899,0.8625,0.9245,0.9602,1.0263,1.0548,1.0073,1.0012,0.9998,0.9968,1.0253,1.0388,1.0246,1.009,0.9947,0.9829,0.9791,0.9727,0.9615,0.9432,0.9137,0.872,0.856,0.8208,0.7645,0.7495,0.7178,0.6624,0.0,0.0,0.0,0.7234,0.7373,0.7482,0.7712,0.7831,0.7872,0.7991,0.8038,0.8038,0.8038,0.8041,0.8048,0.7965,0.7666,0.7153,0.7135,0.7537,0.8045,0.8041,0.8038,0.8038,0.8038,0.8038,0.8038,0.8038,0.8038,0.8038,0.8038,0.8038,0.8038,0.8038,0.8038,0.8038,0.8038,0.8038,0.795,0.7655,0.7451,0.7312,0.7248,0.7095,0.7068,0.7299,0.7329,0.7037,0.6346,0.6443,0.5891,0.3903,0.3887,0.4242,0.4781,0.4434,0.454,0.5389,0.5271,0.5719,0.6746,0.7194,0.7475,0.765,0.8001,0.816,0.8038,0.8038,0.8038,0.8038,0.8038,0.8038,0.8038,0.8038,0.8058,0.8113,0.8408,0.8604,0.8733,0.8886,0.8856,0.8903,0.9047,0.9205,0.9131,0.7594,0.7729,0.7919,0.8523,0.9242,0.9751,0.9795,1.0324,1.07,1.0643,1.0636,1.0582,1.0443,1.0351,1.0239,1.0086,0.993,0.9836,0.9822,0.97,0.9625,0.9608,0.933,0.9028,0.8716,0.856,0.8255,0.779,0.7648,0.6958,0.5791,0.6662,0.718,0.7326,0.721,0.7387,0.7773,0.7797,0.7892,0.8021,0.8035,0.8038,0.8038,0.8038,0.7952,0.7969,0.7972,0.6442,0.4418,0.4418,0.6032,0.7965,0.8045,0.8038,0.8038,0.8038,0.8038,0.8038,0.8038,0.8038,0.8038,0.8038,0.8038,0.8038,0.8038,0.8038,0.8038,0.8038,0.8038,0.795,0.7655,0.7794,0.7868,0.76,0.7756,0.7923,0.795,0.7953,0.7758,0.7493,0.7182,0.6797,0.628,0.4463,0.43,0.6676,0.5159,0.4702,0.6116,0.5527,0.5788,0.7004,0.6514,0.6759,0.7692,0.7942,0.8055,0.8038,0.8038,0.8038,0.8038,0.8038,0.8038,0.8038,0.8038,0.8119,0.8272,0.8567,0.8602,0.8645,0.8799,0.8947,0.8863,0.8891,0.9157,0.8938,0.8411,0.8489,0.8676,0.9273,0.9622,0.9944,1.0307,1.0565,1.0721,1.0721,1.0639,1.0561,1.05,1.0283,1.0117,1.0056,0.991,0.9822,0.9822,0.969,0.9608,0.9608,0.9317,0.9055,0.8852,0.8608,0.8306,0.7946,0.7712,0.7303,0.6734,0.7098,0.7363,0.7509,0.7533,0.7553,0.7738,0.7831,0.7908,0.7969,0.7969,0.7969,0.7969,0.7969,0.7975,0.7985,0.7999,0.7287,0.616,0.4533,0.5744,0.7982,0.7972,0.7969,0.7969,0.7969,0.7965,0.7959,0.7959,0.7959,0.7955,0.8041,0.8048,0.7955,0.8041,0.8048,0.7955,0.8041,0.8038,0.8004,0.7885,0.7818,0.7794,0.7855,0.7814,0.7838,0.8014,0.8038,0.7994,0.7879,0.76,0.7151,0.6505,0.5735,0.4665,0.3228,0.2201,0.3112,0.6637,0.636,0.5914,0.5383,0.6504,0.7259,0.7665,0.7913,0.8038,0.8038,0.8038,0.8038,0.8038,0.8038,0.8092,0.8177,0.8177,0.8313,0.8543,0.8568,0.8679,0.8559,0.6878,0.6266,0.6212,0.6257,0.7438,0.8732,0.9144,0.9198,0.9384,0.9981,1.0086,1.0229,1.0656,1.0721,1.0721,1.0721,1.0585,1.0477,1.0432,1.0243,1.008,0.9988,0.9883,0.9822,0.9822,0.969,0.9591,0.9544,0.9293,0.9062,0.8876,0.8615,0.8357,0.8106,0.7807,0.7513,0.7124,0.6857,0.7105,0.7675,0.7637,0.7624,0.7723,0.7114,0.6853,0.6859,0.6859,0.6859,0.6859,0.6859,0.7275,0.8002,0.8019,0.8029,0.7516,0.4038,0.4034,0.5751,0.6556,0.6859,0.6859,0.6859,0.6853,0.6954,0.7772,0.7979,0.7769,0.7036,0.745,0.7972,0.7959,0.7965,0.7972,0.7959,0.7952,0.8048,0.8048,0.7875,0.7797,0.8007,0.7865,0.7801,0.8011,0.8038,0.7905,0.7524,0.7298,0.6926,0.627,0.6723,0.5594,0.2154,0.1432,0.2684,0.6002,0.6297,0.596,0.5228,0.6614,0.7465,0.778,0.7953,0.8038,0.8038,0.8038,0.8038,0.8041,0.8089,0.8167,0.8275,0.8364,0.8523,0.8723,0.8675,0.8796,0.8722,0.6628,0.4726,0.3145,0.3217,0.5563,0.856,0.9696,0.9812,1.0002,1.0602,1.0711,1.0711,1.0717,1.0721,1.0721,1.0721,1.0585,1.0439,1.0297,1.028,1.0154,0.9849,0.9822,0.9822,0.9822,0.969,0.9544,0.9391,0.9235,0.9015,0.872,0.856,0.8411,0.8269,0.796,0.7321,0.644,0.5639,0.6131,0.7641,0.7318,0.7417,0.7782,0.5127,0.4016,0.4016,0.4016,0.4016,0.4016,0.4016,0.5646,0.8026,0.8026,0.8039,0.7229,0.1819,0.0101,0.0605,0.3215,0.4016,0.4016,0.4016,0.4016,0.4622,0.7269,0.7992,0.7372,0.4722,0.6042,0.7992,0.7992,0.7992,0.7992,0.7992,0.7979,0.7972,0.7972,0.7952,0.8035,0.8038,0.8035,0.8035,0.8038,0.8038,0.7534,0.649,0.6157,0.6079,0.6076,0.7082,0.6966,0.5134,0.44,0.4005,0.4024,0.4738,0.5904,0.7576,0.6771,0.6844,0.8008,0.8,0.8038,0.8038,0.8038,0.8038,0.8045,0.8197,0.8269,0.8286,0.8577,0.8612,0.8645,0.8796,0.8851,0.8899,0.8902,0.5282,-0.0,-0.0,0.3783,0.8459,1.0375,1.0436,1.0493,1.0687,1.0721,1.0721,1.0721,1.0721,1.0721,1.0721,1.0585,1.0436,1.0297,1.0185,1.0042,0.9839,0.9822,0.9822,0.9822,0.9591,0.9432,0.9384,0.914,0.896,0.8869,0.8615,0.8459,0.8414,0.8007,0.7624,0.7246,0.6978,0.6246,0.5178,0.5051,0.6085,0.7912,0.7086,0.4642,0.131,0.131,0.131,0.131,0.131,0.1815,0.2524,0.2524,0.2526,0.2325,0.0606,-0.0,0.0101,0.1008,0.131,0.131,0.131,0.1308,0.1507,0.2312,0.5244,0.739,0.4624,0.463,0.5242,0.5233,0.5231,0.4726,0.2916,0.4021,0.5834,0.7675,0.7972,0.7962,0.7962,0.8048,0.8038,0.8038,0.8038,0.7905,0.7514,0.7459,0.7434,0.7434,0.7711,0.7634,0.7098,0.6859,0.5911,0.4119,0.5996,0.7374,0.7861,0.7591,0.7612,0.8031,0.8004,0.8038,0.8038,0.8038,0.8096,0.8201,0.8347,0.8472,0.8577,0.8578,0.8739,0.8821,0.8901,0.8909,0.8466,0.438,0.1674,-0.0,-0.0,0.123,0.2722,1.07,1.0721,1.0721,1.0721,1.0721,1.0721,1.0721,1.0721,1.07,1.0639,1.0551,1.0415,1.0215,1.0107,0.9988,0.9836,0.9822,0.9822,0.9822,0.9598,0.9442,0.9384,0.9147,0.8994,0.894,0.8648,0.8496,0.8496,0.8106,0.7318,0.6328,0.7254,0.6901,0.5441,0.342,0.3426,0.4956,0.4956,0.303,-0.0,-0.0,-0.0,-0.0,-0.0,-0.0,-0.0,-0.0,-0.0,-0.0,-0.0,-0.0,-0.0,-0.0,-0.0,-0.0,-0.0,-0.0,-0.0,-0.0,0.2421,0.4547,0.2919,0.2517,0.2519,0.2515,0.2514,0.2011,0.0302,0.1307,0.3013,0.473,0.5839,0.6848,0.7869,0.7962,0.8048,0.8041,0.8038,0.7799,0.7391,0.7378,0.7378,0.7378,0.7391,0.7573,0.8004,0.8011,0.7238,0.5616,0.7092,0.798,0.7997,0.7957,0.8045,0.7959,0.8045,0.8038,0.8038,0.8099,0.8204,0.8357,0.8503,0.8621,0.8716,0.8685,0.8146,0.739,0.84,0.7572,0.5197,0.1438,-0.0,-0.0,-0.0,-0.0,-0.0,1.0694,1.0707,1.0717,1.0707,1.0714,1.0721,1.0721,1.0711,1.0656,1.0524,1.048,1.0361,1.0093,1.0046,0.9975,0.9832,0.9822,0.9822,0.9822,0.968,0.953,0.9388,0.9225,0.9079,0.8944,0.8665,0.8509,0.8269,0.8119,0.6759,0.4321,0.6472,0.7406,0.7202,0.2221,-0.0,-0.0,-0.0,-0.0,-0.0,-0.0,-0.0,-0.0,-0.0,-0.0,-0.0,-0.0,-0.0,-0.0,-0.0,-0.0,-0.0,-0.0,-0.0,-0.0,-0.0,-0.0,-0.0,-0.0,-0.0,-0.0,-0.0,-0.0,-0.0,-0.0,-0.0,-0.0,-0.0,-0.0,-0.0,-0.0,0.2009,0.452,0.7054,0.7769,0.7965,0.8045,0.8041,0.7638,0.651,0.6386,0.6386,0.6386,0.6386,0.6861,0.7892,0.8011,0.8011,0.8011,0.799,0.7987,0.8048,0.8055,0.8062,0.8069,0.8069,0.8069,0.8072,0.8228,0.837,0.8503,0.8669,0.8743,0.875,0.8809,0.7304,0.4953,0.7345,0.5008,-0.0,-0.0,-0.0,-0.0,-0.0,-0.0,-0.0,1.0429,1.0565,1.0683,1.0565,1.0643,1.0721,1.0721,1.0622,1.0575,1.0656,1.0368,1.0171,1.0219,1.0015,0.9859,0.9825,0.9822,0.9822,0.9822,0.9578,0.9418,0.9384,0.9147,0.9001,0.8856,0.8804,0.7571,0.5088,0.7006,0.7704,0.6986,0.3534,0.1918,0.1817,0.0606,-0.0,-0.0,-0.0,-0.0,-0.0,-0.0,-0.0,-0.0,-0.0,-0.0,-0.0,-0.0,-0.0,-0.0,-0.0,-0.0,-0.0,-0.0,-0.0,-0.0,-0.0,-0.0,-0.0,-0.0,-0.0,-0.0,-0.0,-0.0,-0.0,-0.0,-0.0,-0.0,-0.0,-0.0,-0.0,-0.0,0.0503,0.1106,0.1809,0.5336,0.7982,0.7965,0.7965,0.7932,0.7645,0.7635,0.7635,0.7635,0.7635,0.7677,0.8023,0.8013,0.8013,0.8013,0.8169,0.8231,0.8208,0.8214,0.8269,0.8377,0.8377,0.8377,0.8381,0.8533,0.8625,0.8665,0.8833,0.8841,0.8848,0.8921,0.8496,0.7606,0.3644,0.131,-0.0,-0.0,-0.0,-0.0,-0.0,-0.0,-0.0,1.0497,1.0612,1.0694,1.0612,1.0666,1.0697,1.0626,1.0605,1.0551,1.0429,1.0263,1.0134,1.0076,0.993,0.9836,0.9836,0.9829,0.9825,0.9836,0.9625,0.9476,0.9415,0.9087,0.8252,0.694,0.8224,0.669,0.2141,0.3647,0.4345,0.4244,0.1313,-0.0,-0.0,-0.0,-0.0,-0.0,-0.0,-0.0,-0.0,-0.0,-0.0,-0.0,-0.0,-0.0,-0.0,-0.0,-0.0,-0.0,-0.0,-0.0,-0.0,-0.0,-0.0,-0.0,-0.0,-0.0,-0.0,-0.0,-0.0,-0.0,-0.0,-0.0,-0.0,-0.0,-0.0,-0.0,-0.0,-0.0,-0.0,-0.0,-0.0,-0.0,-0.0,0.2479,0.4738,0.6022,0.7257,0.8028,0.8041,0.7959,0.7962,0.7955,0.7959,0.8001,0.8046,0.8032,0.7966,0.8038,0.812,0.823,0.8269,0.8333,0.8404,0.8482,0.8482,0.8554,0.8693,0.8774,0.8889,0.8923,0.898,0.8235,0.6952,0.8277,0.8854,0.8391,0.2502,-0.0,-0.0,-0.0,-0.0,-0.0,-0.0,-0.0,-0.0,1.0599,1.0636,1.0653,1.0653,1.067,1.0639,1.051,1.0602,1.0541,1.0137,1.0178,1.0151,0.9893,0.9859,0.9609,0.9114,0.9095,0.9217,0.9737,0.9213,0.8835,0.8734,0.8813,0.7743,0.526,0.673,0.5052,-0.0,-0.0,-0.0,-0.0,-0.0,-0.0,-0.0,-0.0,-0.0,-0.0,-0.0,-0.0,-0.0,-0.0,-0.0,-0.0,-0.0,-0.0,-0.0,-0.0,-0.0,-0.0,-0.0,-0.0,-0.0,-0.0,-0.0,-0.0,-0.0,-0.0,-0.0,-0.0,-0.0,-0.0,-0.0,-0.0,-0.0,-0.0,-0.0,-0.0,-0.0,-0.0,-0.0,-0.0,-0.0,-0.0,-0.0,-0.0,0.0774,0.3075,0.537,0.6918,0.7335,0.7795,0.7815,0.7394,0.7418,0.7434,0.7434,0.7434,0.7385,0.7395,0.7419,0.7522,0.7604,0.8246,0.8547,0.8587,0.8591,0.8733,0.89,0.9015,0.9044,0.9185,0.9208,0.7671,0.5301,0.6865,0.7603,0.7146,0.2041,-0.0,-0.0,-0.0,-0.0,-0.0,-0.0,-0.0,-0.0,1.0175,1.0259,1.0348,1.0348,1.0449,1.0521,1.0493,1.051,1.046,1.027,1.0151,1.0083,1.0073,0.9944,0.8741,0.5908,0.5655,0.6891,0.9648,0.7197,0.5645,0.5633,0.7681,0.87,0.8224,0.3701,0.0954,-0.0,-0.0,-0.0,-0.0,-0.0,-0.0,-0.0,-0.0,-0.0,-0.0,-0.0,-0.0,-0.0,-0.0,-0.0,-0.0,-0.0,-0.0,-0.0,-0.0,-0.0,-0.0,-0.0,-0.0,-0.0,-0.0,-0.0,-0.0,-0.0,-0.0,-0.0,-0.0,-0.0,-0.0,-0.0,-0.0,-0.0,-0.0,-0.0,-0.0,-0.0,-0.0,-0.0,-0.0,-0.0,-0.0,-0.0,-0.0,0.0099,0.0578,0.0981,0.2097,0.4316,0.6644,0.7126,0.4834,0.459,0.4631,0.4631,0.4631,0.4637,0.465,0.4611,0.4645,0.4643,0.7172,0.8729,0.9076,0.898,0.8954,0.9106,0.9245,0.9398,0.9332,0.911,0.8686,0.7957,0.3365,0.1332,0.1347,0.0364,-0.0,-0.0,-0.0,-0.0,-0.0,-0.0,-0.0,-0.0,1.0171,1.0293,1.0371,1.0293,1.0399,1.0439,1.0276,1.0388,1.0382,1.0073,1.0117,1.012,0.9975,0.9914,0.9142,0.7662,0.5925,0.628,0.9579,0.8327,0.5939,0.2468,0.345,0.4076,0.4151,0.1411,-0.0,-0.0,-0.0,-0.0,-0.0,-0.0,-0.0,-0.0,-0.0,-0.0,-0.0,-0.0,-0.0,-0.0,-0.0,-0.0,-0.0,-0.0,-0.0,-0.0,-0.0,-0.0,-0.0,-0.0,-0.0,-0.0,-0.0,-0.0,-0.0,-0.0,-0.0,-0.0,-0.0,-0.0,-0.0,-0.0,-0.0,-0.0,-0.0,-0.0,-0.0,-0.0,-0.0,-0.0,-0.0,-0.0,-0.0,-0.0,-0.0,-0.0,-0.0,-0.0,0.0494,0.1727,0.2986,0.4371,0.5996,0.3494,0.1808,0.1808,0.1808,0.2467,0.3935,0.397,0.4804,0.6606,0.6429,0.6463,0.6614,0.8387,0.8341,0.6655,0.6783,0.7793,0.9597,0.9428,0.7474,0.391,0.1221,-0.0,-0.0,-0.0,-0.0,-0.0,-0.0,-0.0,-0.0,-0.0,-0.0,-0.0,1.0198,1.0287,1.0314,1.0239,1.0317,1.0314,1.0083,1.03,1.0331,0.988,1.0124,1.0215,0.9876,0.9791,0.9834,0.9814,0.6064,0.4803,0.7327,0.7504,0.5247,0.0234,-0.0,-0.0,-0.0,-0.0,-0.0,-0.0,-0.0,-0.0,-0.0,-0.0,-0.0,-0.0,-0.0,-0.0,-0.0,-0.0,-0.0,-0.0,-0.0,-0.0,-0.0,-0.0,-0.0,-0.0,-0.0,-0.0,-0.0,-0.0,-0.0,-0.0,-0.0,-0.0,-0.0,-0.0,-0.0,-0.0,-0.0,-0.0,-0.0,-0.0,-0.0,-0.0,-0.0,-0.0,-0.0,-0.0,-0.0,-0.0,-0.0,-0.0,-0.0,-0.0,-0.0,-0.0,-0.0,-0.0,-0.0,-0.0,-0.0,0.1585,0.569,0.2369,-0.0,-0.0,-0.0,0.0879,0.2932,0.306,0.426,0.6761,0.594,0.4877,0.3417,0.5913,0.6681,0.5686,0.4228,0.4874,0.7557,0.7557,0.4818,-0.0,-0.0,-0.0,-0.0,-0.0,-0.0,-0.0,-0.0,-0.0,-0.0,-0.0,-0.0,-0.0,1.0036,0.9961,0.9914,1.0042,1.0073,1.0073,1.0053,1.03,1.0331,0.988,1.0102,1.0233,0.9821,0.9797,0.9847,0.9858,0.3958,0.0494,0.074,0.072,0.0469,-0.0,-0.0,-0.0,-0.0,-0.0,-0.0,-0.0,-0.0,-0.0,-0.0,-0.0,-0.0,-0.0,-0.0,-0.0,-0.0,-0.0,-0.0,-0.0,-0.0,-0.0,-0.0,-0.0,-0.0,-0.0,-0.0,-0.0,-0.0,-0.0,-0.0,-0.0,-0.0,-0.0,-0.0,-0.0,-0.0,-0.0,-0.0,-0.0,-0.0,-0.0,-0.0,-0.0,-0.0,-0.0,-0.0,-0.0,-0.0,-0.0,-0.0,-0.0,-0.0,-0.0,-0.0,-0.0,-0.0,-0.0,-0.0,-0.0,-0.0,0.0109,0.0546,0.0221,-0.0,-0.0,-0.0,0.0114,0.0229,0.0349,0.0355,0.0602,0.5816,0.5926,0.036,0.0601,0.3641,0.9293,0.3203,0.0493,0.0741,0.0741,0.0494,-0.0,-0.0,-0.0,-0.0,-0.0,-0.0,-0.0,-0.0,-0.0,-0.0,-0.0,-0.0,-0.0,0.9897,0.9937,0.9951,0.9914,1.0012,1.0053,0.9927,1.0022,1.0042,0.9866,1.01,1.0236,0.986,0.9804,0.8113,0.4083,0.1482,-0.0,-0.0,-0.0,-0.0,-0.0,-0.0,-0.0,-0.0,-0.0,-0.0,-0.0,-0.0,-0.0,-0.0,-0.0,-0.0,-0.0,-0.0,-0.0,-0.0,-0.0,-0.0,-0.0,-0.0,-0.0,-0.0,-0.0,-0.0,-0.0,-0.0,-0.0,-0.0,-0.0,-0.0,-0.0,-0.0,-0.0,-0.0,-0.0,-0.0,-0.0,-0.0,-0.0,-0.0,-0.0,-0.0,-0.0,-0.0,-0.0,-0.0,-0.0,-0.0,-0.0,-0.0,-0.0,-0.0,-0.0,-0.0,-0.0,-0.0,-0.0,-0.0,-0.0,-0.0,-0.0,-0.0,-0.0,-0.0,-0.0,-0.0,-0.0,-0.0,-0.0,-0.0,-0.0,0.219,0.231,-0.0,-0.0,0.1228,0.3706,0.1246,-0.0,-0.0,-0.0,-0.0,-0.0,-0.0,-0.0,-0.0,-0.0,-0.0,-0.0,-0.0,-0.0,-0.0,-0.0,-0.0,-0.0,0.9822,0.9907,0.9944,0.9839,0.9934,0.9981,0.9852,0.9893,0.9924,0.9761,1.0198,0.9538,0.6944,0.6763,0.4969,0.0371,-0.0,-0.0,-0.0,-0.0,-0.0,-0.0,-0.0,-0.0,-0.0,-0.0,-0.0,-0.0,-0.0,-0.0,-0.0,-0.0,-0.0,-0.0,-0.0,-0.0,-0.0,-0.0,-0.0,-0.0,-0.0,-0.0,-0.0,-0.0,-0.0,-0.0,-0.0,-0.0,-0.0,-0.0,-0.0,-0.0,-0.0,-0.0,-0.0,-0.0,-0.0,-0.0,-0.0,-0.0,-0.0,-0.0,-0.0,-0.0,-0.0,-0.0,-0.0,-0.0,-0.0,-0.0,-0.0,-0.0,-0.0,-0.0,-0.0,-0.0,-0.0,-0.0,-0.0,-0.0,-0.0,-0.0,-0.0,-0.0,-0.0,-0.0,-0.0,-0.0,-0.0,-0.0,-0.0,-0.0,-0.0,-0.0,-0.0,-0.0,-0.0,-0.0,-0.0,-0.0,-0.0,-0.0,-0.0,-0.0,-0.0,-0.0,-0.0,-0.0,-0.0,-0.0,-0.0,-0.0,-0.0,-0.0,-0.0,-0.0,0.9822,0.9822,0.9822,0.9822,0.9822,0.9829,0.9852,0.9985,0.9921,0.9814,1.0321,0.7933,0.0743,-0.0,-0.0,-0.0,-0.0,-0.0,-0.0,-0.0,-0.0,-0.0,-0.0,-0.0,-0.0,-0.0,-0.0,-0.0,-0.0,-0.0,-0.0,-0.0,-0.0,-0.0,-0.0,-0.0,-0.0,-0.0,-0.0,-0.0,-0.0,-0.0,-0.0,-0.0,-0.0,-0.0,-0.0,-0.0,-0.0,-0.0,-0.0,-0.0,-0.0,-0.0,-0.0,-0.0,-0.0,-0.0,-0.0,-0.0,-0.0,-0.0,-0.0,-0.0,-0.0,-0.0,-0.0,-0.0,-0.0,-0.0,-0.0,-0.0,-0.0,-0.0,-0.0,-0.0,-0.0,-0.0,-0.0,-0.0,-0.0,-0.0,-0.0,-0.0,-0.0,-0.0,-0.0,-0.0,-0.0,-0.0,-0.0,-0.0,-0.0,-0.0,-0.0,-0.0,-0.0,-0.0,-0.0,-0.0,-0.0,-0.0,-0.0,-0.0,-0.0,-0.0,-0.0,-0.0,-0.0,-0.0,-0.0,-0.0,-0.0,-0.0,-0.0,-0.0,0.9822,0.9822,0.9822,0.9822,0.9842,0.9856,0.9856,0.5929,0.4586,0.9186,0.598,0.2369,0.0247,-0.0,-0.0,-0.0,-0.0,-0.0,-0.0,-0.0,-0.0,-0.0,-0.0,-0.0,-0.0,-0.0,-0.0,-0.0,-0.0,-0.0,-0.0,-0.0,-0.0,-0.0,-0.0,-0.0,-0.0,-0.0,-0.0,-0.0,-0.0,-0.0,-0.0,-0.0,-0.0,-0.0,-0.0,-0.0,-0.0,-0.0,-0.0,-0.0,-0.0,-0.0,-0.0,-0.0,-0.0,-0.0,-0.0,-0.0,-0.0,-0.0,-0.0,-0.0,-0.0,-0.0,-0.0,-0.0,-0.0,-0.0,-0.0,-0.0,-0.0,-0.0,-0.0,-0.0,-0.0,-0.0,-0.0,-0.0,-0.0,-0.0,-0.0,-0.0,-0.0,-0.0,-0.0,-0.0,-0.0,-0.0,-0.0,-0.0,-0.0,-0.0,-0.0,-0.0,-0.0,-0.0,-0.0,-0.0,-0.0,-0.0,-0.0,-0.0,-0.0,-0.0,-0.0,-0.0,-0.0,-0.0,-0.0,-0.0,-0.0,-0.0,-0.0,-0.0,0.9822,0.9822,0.9822,0.9822,0.9846,0.9364,0.8119,0.5546,0.4324,0.5688,0.2469,-0.0,-0.0,-0.0,-0.0,-0.0,-0.0,-0.0,-0.0,-0.0,-0.0,-0.0,-0.0,-0.0,-0.0,-0.0,-0.0,-0.0,-0.0,-0.0,-0.0,-0.0,-0.0,-0.0,-0.0,-0.0,-0.0,-0.0,-0.0,-0.0,-0.0,-0.0,-0.0,-0.0,-0.0,-0.0,-0.0,-0.0,-0.0,-0.0,-0.0,-0.0,-0.0,-0.0,-0.0,-0.0,-0.0,-0.0,-0.0,-0.0,-0.0,-0.0,-0.0,-0.0,-0.0,-0.0,-0.0,-0.0,-0.0,-0.0,-0.0,-0.0,-0.0,-0.0,-0.0,-0.0,-0.0,-0.0,-0.0,-0.0,-0.0,-0.0,-0.0,-0.0,-0.0,-0.0,-0.0,-0.0,-0.0,-0.0,-0.0,-0.0,-0.0,-0.0,-0.0,-0.0,-0.0,-0.0,-0.0,-0.0,-0.0,-0.0,-0.0,-0.0,-0.0,-0.0,-0.0,-0.0,-0.0,-0.0,-0.0,-0.0,-0.0,-0.0,-0.0,-0.0,0.9822,0.9822,0.9822,0.9822,0.9842,0.8741,0.5408,0.7165,0.6806,0.0741,-0.0,-0.0,-0.0,-0.0,-0.0,-0.0,-0.0,-0.0,-0.0,-0.0,-0.0,-0.0,-0.0,-0.0,-0.0,-0.0,-0.0,-0.0,-0.0,-0.0,-0.0,-0.0,-0.0,-0.0,-0.0,-0.0,-0.0,-0.0,-0.0,-0.0,-0.0,-0.0,-0.0,-0.0,-0.0,-0.0,-0.0,-0.0,-0.0,-0.0,-0.0,-0.0,-0.0,-0.0,-0.0,-0.0,-0.0,-0.0,-0.0,-0.0,-0.0,-0.0,-0.0,-0.0,-0.0,-0.0,-0.0,-0.0,-0.0,-0.0,-0.0,-0.0,-0.0,-0.0,-0.0,-0.0,-0.0,-0.0,-0.0,-0.0,-0.0,-0.0,-0.0,-0.0,-0.0,-0.0,-0.0,-0.0,-0.0,-0.0,-0.0,-0.0,-0.0,-0.0,-0.0,-0.0,-0.0,-0.0,-0.0,-0.0,-0.0,-0.0,-0.0,-0.0,-0.0,-0.0,-0.0,-0.0,-0.0,-0.0,-0.0,-0.0,-0.0,-0.0,-0.0,-0.0,0.9822,0.9822,0.9822,0.9822,0.9741,0.8643,0.541,0.3326,0.1605,0.0247,-0.0,-0.0,-0.0,-0.0,-0.0,-0.0,-0.0,-0.0,-0.0,-0.0,-0.0,-0.0,-0.0,-0.0,-0.0,-0.0,-0.0,-0.0,-0.0,-0.0,-0.0,-0.0,-0.0,-0.0,-0.0,-0.0,-0.0,-0.0,-0.0,-0.0,-0.0,-0.0,-0.0,-0.0,-0.0,-0.0,-0.0,-0.0,-0.0,-0.0,-0.0,-0.0,-0.0,-0.0,-0.0,-0.0,-0.0,-0.0,-0.0,-0.0,-0.0,-0.0,-0.0,-0.0,-0.0,-0.0,-0.0,-0.0,-0.0,-0.0,-0.0,-0.0,-0.0,-0.0,-0.0,-0.0,-0.0,-0.0,-0.0,-0.0,-0.0,-0.0,-0.0,-0.0,-0.0,-0.0,-0.0,-0.0,-0.0,-0.0,-0.0,-0.0,-0.0,-0.0,-0.0,-0.0,-0.0,-0.0,-0.0,-0.0,-0.0,-0.0,-0.0,-0.0,-0.0,-0.0,-0.0,-0.0,-0.0,-0.0,-0.0,-0.0,-0.0,-0.0,-0.0,-0.0,0.9836,0.9829,0.9829,0.9856,0.9764,0.9281,0.7536,0.3083,-0.0,-0.0,-0.0,-0.0,-0.0,-0.0,-0.0,-0.0,-0.0,-0.0,-0.0,-0.0,-0.0,-0.0,-0.0,-0.0,-0.0,-0.0,-0.0,-0.0,-0.0,-0.0,-0.0,-0.0,-0.0,-0.0,-0.0,-0.0,-0.0,-0.0,-0.0,-0.0,-0.0,-0.0,-0.0,-0.0,-0.0,-0.0,-0.0,-0.0,-0.0,-0.0,-0.0,-0.0,-0.0,-0.0,-0.0,-0.0,-0.0,-0.0,-0.0,-0.0,-0.0,-0.0,-0.0,-0.0,-0.0,-0.0,-0.0,-0.0,-0.0,-0.0,-0.0,-0.0,-0.0,-0.0,-0.0,-0.0,-0.0,-0.0,-0.0,-0.0,-0.0,-0.0,-0.0,-0.0,-0.0,-0.0,-0.0,-0.0,-0.0,-0.0,-0.0,-0.0,-0.0,-0.0,-0.0,-0.0,-0.0,-0.0,-0.0,-0.0,-0.0,-0.0,-0.0,-0.0,-0.0,-0.0,-0.0,-0.0,-0.0,-0.0,-0.0,-0.0,-0.0,-0.0,-0.0,-0.0,0.9852,0.9345,0.9101,0.9648,0.9787,0.9794,0.9814,0.4199,-0.0,-0.0,-0.0,-0.0,-0.0,-0.0,-0.0,-0.0,-0.0,-0.0,-0.0,-0.0,-0.0,-0.0,-0.0,-0.0,-0.0,-0.0,-0.0,-0.0,-0.0,-0.0,-0.0,-0.0,-0.0,-0.0,-0.0,-0.0,-0.0,-0.0,-0.0,-0.0,-0.0,-0.0,-0.0,-0.0,-0.0,-0.0,-0.0,-0.0,-0.0,-0.0,-0.0,-0.0,-0.0,-0.0,-0.0,-0.0,-0.0,-0.0,-0.0,-0.0,-0.0,-0.0,-0.0,-0.0,-0.0,-0.0,-0.0,-0.0,-0.0,-0.0,-0.0,-0.0,-0.0,-0.0,-0.0,-0.0,-0.0,-0.0,-0.0,-0.0,-0.0,-0.0,-0.0,-0.0,-0.0,-0.0,-0.0,-0.0,-0.0,-0.0,-0.0,-0.0,-0.0,-0.0,-0.0,-0.0,-0.0,-0.0,-0.0,-0.0,-0.0,-0.0,-0.0,-0.0,-0.0,-0.0,-0.0,-0.0,-0.0,-0.0,-0.0,-0.0,-0.0,-0.0,-0.0,-0.0,0.9856,0.75,0.6399,0.9277,0.9801,0.9814,0.9818,0.4199,-0.0,-0.0,-0.0,-0.0,-0.0,-0.0,-0.0,-0.0,-0.0,-0.0,-0.0,-0.0,-0.0,-0.0,-0.0,-0.0,-0.0,-0.0,-0.0,-0.0,-0.0,-0.0,-0.0,-0.0,-0.0,-0.0,-0.0,-0.0,-0.0,-0.0,-0.0,-0.0,-0.0,-0.0,-0.0,-0.0,-0.0,-0.0,-0.0,-0.0,-0.0,-0.0,-0.0,-0.0,-0.0,-0.0,-0.0,-0.0,-0.0,-0.0,-0.0,-0.0,-0.0,-0.0,-0.0,-0.0,-0.0,-0.0,-0.0,-0.0,-0.0,-0.0,-0.0,-0.0,-0.0,-0.0,-0.0,-0.0,-0.0,-0.0,-0.0,-0.0,-0.0,-0.0,-0.0,-0.0,-0.0,-0.0,-0.0,-0.0,-0.0,-0.0,-0.0,-0.0,-0.0,-0.0,-0.0,-0.0,-0.0,-0.0,-0.0,-0.0,-0.0,-0.0,-0.0,-0.0,-0.0,-0.0,-0.0,-0.0,-0.0,-0.0,-0.0,-0.0,-0.0,-0.0,-0.0,-0.0,0.7378,0.7378,0.6891,0.4685,0.7303,0.8559,0.4943,0.1851,-0.0,-0.0,-0.0,-0.0,-0.0,-0.0,-0.0,-0.0,-0.0,-0.0,-0.0,-0.0,-0.0,-0.0,-0.0,-0.0,-0.0,-0.0,-0.0,-0.0,-0.0,-0.0,-0.0,-0.0,-0.0,-0.0,-0.0,-0.0,-0.0,-0.0,-0.0,-0.0,-0.0,-0.0,-0.0,-0.0,-0.0,-0.0,-0.0,-0.0,-0.0,-0.0,-0.0,-0.0,-0.0,-0.0,-0.0,-0.0,-0.0,-0.0,-0.0,-0.0,-0.0,-0.0,-0.0,-0.0,-0.0,-0.0,-0.0,-0.0,-0.0,-0.0,-0.0,-0.0,-0.0,-0.0,-0.0,-0.0,-0.0,-0.0,-0.0,-0.0,-0.0,-0.0,-0.0,-0.0,-0.0,-0.0,-0.0,-0.0,-0.0,-0.0,-0.0,-0.0,-0.0,-0.0,-0.0,-0.0,-0.0,-0.0,-0.0,-0.0,-0.0,-0.0,-0.0,-0.0,-0.0,-0.0,-0.0,-0.0,-0.0,-0.0,-0.0,-0.0,-0.0,-0.0,-0.0,-0.0]},{"header":{"parameterUnit":"m.s-1","parameterCategory":1,"la1":30.6,"la2":28.766,"lo1":-90.7593,"lo2":-88.6598,"dy":0.0162,"dx":0.0183,"nx":116,"ny":114,"refTime":"2023-05-15T06:00:00:Z","depth":0,"parameterNumber":3,"parameterNumberName":"V-component_of_WINDS"},"data":[0.0,0.0,0.0,0.0,0.0,0.0,0.0,0.0,0.0,0.0,0.0,0.0,0.0,0.0,0.0,0.0,0.0,0.0,0.0,0.0,0.0,0.0,0.0,0.0,0.0,0.0,0.0,0.0,0.0,0.0,0.0,0.0,0.0,0.0,0.0,0.0,0.0,0.0,0.0,0.0,0.0,0.0,0.0,0.0,0.0,0.0,0.0,0.0,0.0,0.0,0.0,0.0,0.0,0.0,0.0,0.0,0.0,0.0,0.0,0.0,0.0,0.0,0.0,0.0,0.0,0.0,0.0,0.0,0.0,0.0,0.0,0.0,0.0,0.0,0.0,0.0,0.0,0.0,0.0,0.0,0.0,0.0,0.0,0.0,0.0,0.0,0.0,0.0,0.0,0.0,0.0,0.0,0.0,0.0,0.0,0.0,0.0,0.0,0.0,0.0,0.0,0.0,0.0,0.0,0.0,0.0,0.0,0.0,0.0,0.0,0.0,0.0,0.0,0.0,0.0,0.0,0.0,0.0,0.0,0.0,0.0,0.0,0.0,0.0,0.0,0.0,0.0,0.0,0.0,0.0,0.0,0.0,0.0,0.0,0.0,0.0,0.0,0.0,0.0,0.0,0.0,0.0,0.0,0.0,0.0,0.0,0.0,0.0,0.0,0.0,0.0,0.0,0.0,0.0,0.0,0.0,0.0,0.0,0.0,0.0,0.0,0.0,0.0,0.0,0.0,0.0,0.0,0.0,0.0,0.0,0.0,0.0,0.0,0.0,0.0,0.0,0.0,0.0,0.0,0.0,0.0,0.0,0.0,0.0,0.0,0.0,0.0,0.0,0.0,0.0,0.0,0.0,0.0,0.0,0.0,0.0,0.0,0.0,0.0,0.0,0.0,0.0,0.0,0.0,0.0,0.0,0.0,0.0,0.0,0.0,0.0,0.0,0.0,0.0,0.0,0.0,0.0,0.0,0.0,0.0,0.0,0.0,0.0,0.0,0.0,0.0,0.0,0.0,0.0,0.0,0.0,0.0,0.0,0.0,0.0,0.0,0.0,0.0,0.0,0.0,0.0,0.0,0.0,0.0,0.0,0.0,0.0,0.0,0.0,0.0,0.0,0.0,0.0,0.0,0.0,0.0,0.0,0.0,0.0,0.0,0.0,0.0,0.0,0.0,0.0,0.0,0.0,0.0,0.0,0.0,0.0,0.0,0.0,0.0,0.0,0.0,0.0,0.0,0.0,0.0,0.0,0.0,0.0,0.0,0.0,0.0,0.0,0.0,0.0,0.0,0.0,0.0,0.0,0.0,0.0,0.0,0.0,0.0,0.0,0.0,0.0,0.0,0.0,0.0,0.0,0.0,0.0,0.0,0.0,0.0,0.0,0.0,0.0,0.0,0.0,0.0,0.0,0.0,0.0,0.0,0.0,0.0,0.0,0.0,0.0,0.0,0.0,0.0,0.0,0.0,0.0,0.0,0.0,0.0,0.0,0.0,0.0,0.0,0.0,0.0,0.0,0.0,0.0,0.0,0.0,0.0,0.0,0.0,0.0,0.0,0.0,0.0,0.0,0.0,0.0,0.0,0.0,0.0,0.0,0.0,0.0,0.0,0.0,0.0,0.0,0.0,0.0,0.0,0.0,0.0,0.0,0.0,0.0,0.0,0.0,0.0,0.0,0.0,0.0,0.0,0.0,0.0,0.0,0.0,0.0,0.0,0.0,0.0,0.0,0.0,0.0,0.0,0.0,0.0,0.0,0.0,0.0,0.0,0.0,0.0,0.0,0.0,0.0,0.0,0.0,0.0,0.0,0.0,0.0,0.0,0.0,0.0,0.0,0.0,0.0,0.0,0.0,0.0,0.0,0.0,0.0,0.0,0.0,0.0,0.0,0.0,0.0,0.0,0.0,0.0,0.0,0.0,0.0,0.0,0.0,0.0,0.0,0.0,0.0,0.0,0.0,0.0,0.0,0.0,0.0,0.0,0.0,0.0,0.0,0.0,0.0,0.0,0.0,0.0,0.0,0.0,0.0,0.0,0.0,0.0,0.0,0.0,0.0,0.0,0.0,0.0,0.0,0.0,0.0,0.0,0.0,0.0,0.0,0.0,0.0,0.0,0.0,0.0,0.0,0.0,0.0,0.0,0.0,0.0,0.0,0.0,0.0,0.0,0.0,0.0,0.0,0.0,0.0,0.0,0.0,0.0,0.0,0.0,0.0,0.0,0.0,0.0,0.0,0.0,0.0,0.0,0.0,0.0,0.0,0.0,0.0,0.0,0.0,0.0,0.0,0.0,0.0,0.0,0.0,0.0,0.0,0.0,0.0,0.0,0.0,0.0,0.0,0.0,0.0,0.0,0.0,0.0,0.0,0.0,0.0,0.0,0.0,0.0,0.0,0.0,0.0,0.0,0.0,0.0,0.0,0.0,0.0,0.0,0.0,0.0,0.0,0.0,0.0,0.0,0.0,0.0,0.0,0.0,0.0,0.0,0.0,0.0,0.0,0.0,0.0,0.0,0.0,0.0,0.0,0.0,0.0,0.0,0.0,0.0,0.0,0.0,0.0,0.0,0.0,0.0,0.0,0.0,0.0,0.0,0.0,0.0,0.0,0.0,0.0,0.0,0.0,0.0,0.0,0.0,0.0,0.0,0.0,0.0,0.0,0.0,0.0,0.0,0.0,0.0,0.0,0.0,0.0,0.0,0.0,0.0,0.0,0.0,0.0,0.0,0.0,0.0,0.0,0.0,0.0,0.0,0.0,0.0,0.0,0.0,0.0,0.0,0.0,0.0,0.0,0.0,0.0,0.0,0.0,0.0,0.0,0.0,0.0,0.0,0.0,0.0,0.0,0.0,0.0,0.0,0.0,0.0,0.0,0.0,0.0,0.0,0.0,0.0,0.0,0.0,0.0,0.0,0.0,0.0,0.0,0.0,0.0,0.0,0.0,0.0,0.0,0.0,0.0,0.0,0.0,0.0,0.0,0.0,0.0,0.0,0.0,0.0,0.0,0.0,0.0,0.0,0.0,0.0,0.0,0.0,0.0,0.0,0.0,0.0,0.0,0.0,0.0,0.0,0.0,0.0,0.0,0.0,0.0,0.0,0.0,0.0,0.0,0.0,0.0,0.0,0.0,0.0,0.0,0.0,0.0,0.0,0.0,0.0,0.0,0.0,0.0,0.0,0.0,0.0,0.0,0.0,0.0,0.0,0.0,0.0,0.0,0.0,0.0,0.0,0.0,0.0,0.0,0.0,0.0,0.0,0.0,0.0,0.0,0.0,0.0,0.0,0.0,0.0,0.0,0.0,0.0,0.0,0.0,0.0,0.0,0.0,0.0,0.0,0.0,0.0,0.0,0.0,0.0,0.0,0.0,0.0,0.0,0.0,0.0,0.0,0.0,0.0,0.0,0.0,0.0,0.0,0.0,0.0,0.0,0.0,0.0,0.0,0.0,0.0,0.0,0.0,0.0,0.0,0.0,0.0,0.0,0.0,0.0,0.0,0.0,0.0,0.0,0.0,0.0,0.0,0.0,0.0,0.0,0.0,0.0,0.0,0.0,0.0,0.0,0.0,0.0,0.0,0.0,0.0,0.0,0.0,0.0,0.0,0.0,0.0,0.0,0.0,0.0,0.0,0.0,0.0,0.0,0.0,0.0,0.0,0.0,0.0,0.0,0.0,0.0,0.0,0.0,0.0,0.0,0.0,0.0,0.0,0.0,0.0,0.0,0.0,0.0,0.0,0.0,0.0,0.0,0.0,0.0,0.0,0.0,0.0,0.0,0.0,0.0,0.0,0.0,0.0,0.0,0.0,0.0,0.0,0.0,0.0,0.0,0.0,0.0,0.0,0.0,0.0,0.0,0.0,0.0,0.0,0.0,0.0,0.0,0.0,0.0,0.0,0.0,0.0,0.0,0.0,0.0,0.0,0.0,0.0,0.0,0.0,0.0,0.0,0.0,0.0,0.0,0.0,0.0,0.0,0.0,0.0,0.0,0.0,0.0,0.0,0.0,0.0,0.0,0.0,0.0,0.0,0.0,0.0,0.0,0.0,0.0,0.0,0.0,0.0,0.0,0.0,0.0,0.0,0.0,0.0,0.0,0.0,0.0,0.0,0.0,0.0,0.0,0.0,0.0,0.0,0.0,0.0,0.0,0.0,0.0,0.0,0.0,0.0,0.0,0.0,0.0,0.0,0.0,0.0,0.0,0.0,0.0,0.0,0.0,0.0,0.0,0.0,0.0,0.0,0.0,0.0,0.0,0.0,0.0,0.0,0.0,0.0,0.0,0.0,0.0,0.0,0.0,0.0,0.0,0.0,0.0,0.0,0.0,0.0,0.0,0.0,0.0,0.0,0.0,0.0,0.0,0.0,0.0,0.0,0.0,0.0,0.0,0.0,0.0,0.0,0.0,0.0,0.0,0.0,0.0,0.0,0.0,0.0,0.0,0.0,0.0,0.0,0.0,0.0,0.0,0.0,0.0,0.0,0.0,0.0,0.0,0.0,0.0,0.0,0.0,0.0,0.0,0.0,0.0,0.0,0.0,0.0,0.0,0.0,0.0,0.0,0.0,0.0,0.0,0.0,0.0,0.0,0.0,0.0,0.0,0.0,0.0,0.0,0.0,0.0,0.0,0.0,0.0,0.0,0.0,0.0,0.0,0.0,0.0,0.0,0.0,0.0,0.0,0.0,0.0,0.0,0.0,0.0,0.0,0.0,0.0,0.0,0.0,0.0,0.0,0.0,0.0,0.0,0.0,0.0,0.0,0.0,0.0,0.0,0.0,0.0,0.0,0.0,0.0,0.0,0.0,0.0,0.0,0.0,0.0,0.0,0.0,0.0,0.0,0.0,0.0,0.0,0.0,0.0,0.0,0.0,0.0,0.0,0.0,0.0,0.0,0.0,0.0,0.0,0.0,0.0,0.0,0.0,0.0,0.0,0.0,0.0,0.0,0.0,0.0,0.0,0.0,0.0,0.0,0.0,0.0,0.0,0.0,0.0,0.0,0.0,0.0,0.0,0.0,0.0,0.0,0.0,0.0,0.0,0.0,0.0,0.0,0.0,0.0,0.0,0.0,0.0,0.0,0.0,0.0,0.0,0.0,0.0,0.0,0.0,0.0,0.0,0.0,0.0,0.0,0.0,0.0,0.0,0.0,0.0,0.0,0.0,0.0,0.0,0.0,0.0,0.0,0.0,0.0,0.0,0.0,0.0,0.0,0.0,0.0,0.0,0.0,0.0,0.0,0.0,0.0,0.0,0.0,0.0,0.0,0.0,0.0,0.0,0.0,0.0,0.0,0.0,0.0,0.0,0.0,0.0,0.0,0.0,0.0,0.0,0.0,0.0,0.0,0.0,0.0,0.0,0.0,0.0,0.0,0.0,0.0,0.0,0.0,0.0,0.0,0.0,0.0,0.0,0.0,0.0,0.0,0.0,0.0,0.0,0.0,0.0,0.0,0.0,0.0,0.0,0.0,0.0,0.0,0.0,0.0,0.0,0.0,0.0,0.0,0.0,0.0,0.0,0.0,0.0,0.0,0.0,0.0,0.0,0.0,0.0,0.0,0.0,0.0,0.0,0.0,0.0,0.0,0.0,0.0,0.0,0.0,0.0,0.0,0.0,0.0,0.0,0.0,0.0,0.0,0.0,0.0,0.0,0.0,0.0,0.0,0.0,0.0,0.0,0.0,0.0,0.0,0.0,0.0,0.0,0.0,0.0,0.0,0.0,0.0,0.0,0.0,0.0,0.0,0.0,0.0,0.0,0.0,0.0,0.0,0.0,0.0,0.0,0.0,0.0,0.0,0.0,0.0,0.0,0.0,0.0,0.0,0.0,0.0,0.0,0.0,0.0,0.0,0.0,0.0,0.0,0.0,0.0,0.0,0.0,0.0,0.0,0.0,0.0,0.0,0.0,0.0,0.0,0.0,0.0,0.0,0.0,0.0,0.0,0.0,0.0,0.0,0.0,0.0,0.0,0.0,0.0,0.0,0.0,0.0,0.0,0.0,0.0,0.0,0.0,0.0,0.0,0.0,0.0,0.0,0.0,0.0,0.0,0.0,0.0,0.0,0.0,0.0,0.0,0.0,0.0,0.0,0.0,0.0,0.0,0.0,0.0,0.0,0.0,-2.3143,-2.1487,0.0,0.0,0.0,0.0,0.0,0.0,0.0,0.0,0.0,0.0,0.0,0.0,0.0,0.0,0.0,0.0,0.0,0.0,0.0,0.0,0.0,0.0,0.0,0.0,0.0,0.0,0.0,0.0,0.0,0.0,0.0,0.0,0.0,0.0,0.0,0.0,0.0,0.0,0.0,0.0,0.0,0.0,0.0,0.0,0.0,0.0,0.0,0.0,0.0,0.0,0.0,0.0,0.0,0.0,0.0,0.0,0.0,0.0,0.0,0.0,0.0,0.0,0.0,0.0,0.0,0.0,0.0,0.0,0.0,0.0,0.0,0.0,0.0,0.0,0.0,0.0,0.0,0.0,0.0,0.0,0.0,0.0,0.0,0.0,0.0,0.0,0.0,0.0,0.0,0.0,0.0,0.0,0.0,0.0,0.0,0.0,0.0,0.0,0.0,0.0,0.0,0.0,0.0,0.0,0.0,0.0,0.0,0.0,0.0,0.0,0.0,0.0,0.0,0.0,-2.5788,-2.375,0.0,0.0,0.0,0.0,0.0,0.0,0.0,0.0,0.0,0.0,0.0,0.0,0.0,0.0,0.0,0.0,0.0,0.0,0.0,0.0,0.0,0.0,0.0,0.0,0.0,0.0,0.0,0.0,0.0,0.0,0.0,0.0,0.0,0.0,0.0,0.0,0.0,0.0,0.0,0.0,0.0,0.0,0.0,0.0,0.0,0.0,0.0,0.0,0.0,0.0,0.0,0.0,0.0,0.0,0.0,0.0,0.0,0.0,0.0,0.0,0.0,0.0,0.0,0.0,0.0,0.0,0.0,0.0,0.0,0.0,0.0,0.0,0.0,0.0,0.0,0.0,0.0,0.0,0.0,0.0,0.0,0.0,0.0,0.0,0.0,0.0,0.0,0.0,0.0,0.0,0.0,0.0,0.0,0.0,0.0,0.0,0.0,0.0,0.0,0.0,0.0,0.0,0.0,0.0,0.0,0.0,0.0,0.0,-2.8888,-2.9971,-3.1256,-3.1256,-3.2357,-3.3972,-2.9457,-2.7475,-2.7255,-2.4997,0.0,0.0,0.0,0.0,0.0,0.0,0.0,0.0,0.0,0.0,0.0,0.0,0.0,0.0,0.0,0.0,0.0,0.0,0.0,0.0,0.0,0.0,0.0,0.0,0.0,0.0,0.0,0.0,0.0,0.0,0.0,0.0,0.0,0.0,0.0,0.0,0.0,0.0,-2.9457,-3.1659,-3.2522,-3.2045,-2.7842,0.0,0.0,0.0,0.0,0.0,0.0,0.0,0.0,0.0,0.0,0.0,0.0,0.0,0.0,0.0,0.0,0.0,0.0,0.0,0.0,0.0,0.0,0.0,0.0,0.0,0.0,0.0,0.0,0.0,0.0,0.0,0.0,0.0,0.0,0.0,0.0,0.0,0.0,0.0,0.0,0.0,0.0,0.0,-2.7027,-2.6912,0.0,0.0,0.0,0.0,0.0,0.0,0.0,0.0,0.0,0.0,0.0,0.0,0.0,-2.8673,-3.155,-3.2397,-3.3162,-3.389,-3.478,-3.5293,-3.5495,-3.5495,-3.5661,-3.5973,-3.5917,0.0,-3.0632,-2.8925,0.0,0.0,0.0,0.0,0.0,0.0,0.0,0.0,0.0,0.0,0.0,0.0,0.0,0.0,0.0,0.0,0.0,0.0,0.0,0.0,0.0,0.0,0.0,0.0,0.0,0.0,0.0,0.0,0.0,0.0,0.0,0.0,0.0,0.0,0.0,0.0,-2.8558,-3.1568,-3.366,-3.5165,-3.6358,-3.7092,-3.4064,-3.1788,-3.0118,-2.8705,0.0,0.0,0.0,0.0,0.0,0.0,0.0,0.0,0.0,0.0,0.0,0.0,0.0,0.0,0.0,0.0,0.0,0.0,0.0,0.0,0.0,0.0,0.0,0.0,0.0,0.0,0.0,0.0,0.0,0.0,0.0,0.0,0.0,0.0,0.0,0.0,0.0,0.0,0.0,-2.6841,-2.727,-2.6429,-2.6712,-2.645,0.0,0.0,0.0,0.0,0.0,0.0,0.0,0.0,0.0,-3.2009,-3.2162,-3.303,-3.4697,-3.5505,-3.6313,-3.7092,-3.7918,-3.8799,-3.9662,-3.9662,-3.9918,-4.0341,-4.023,-3.8909,-3.6578,-3.3128,-3.0613,-2.876,0.0,0.0,0.0,0.0,-2.7273,-2.7879,0.0,0.0,0.0,0.0,0.0,0.0,0.0,0.0,0.0,0.0,0.0,0.0,0.0,0.0,0.0,-2.4654,0.0,0.0,0.0,0.0,0.0,0.0,0.0,0.0,0.0,0.0,0.0,0.0,-3.2485,-3.533,-3.7551,-3.8762,-3.9974,-4.1075,-4.0084,-3.7165,-3.2889,-3.1439,-2.92,0.0,0.0,0.0,0.0,0.0,0.0,0.0,0.0,0.0,0.0,0.0,0.0,0.0,0.0,0.0,0.0,0.0,0.0,0.0,0.0,0.0,0.0,0.0,0.0,0.0,0.0,0.0,0.0,0.0,0.0,0.0,0.0,0.0,0.0,0.0,0.0,0.0,0.0,-2.7483,-2.8104,-2.6246,-2.812,-2.8519,0.0,0.0,0.0,0.0,0.0,0.0,-3.0889,-3.2332,-3.3832,-3.5392,-3.6261,-3.7071,-3.7826,-3.8836,-3.9533,-3.9937,-4.0744,-4.1644,-4.2616,-4.2818,-4.313,-4.3461,-4.3075,-4.258,-4.168,-3.6982,-3.4468,-3.3348,-3.1304,-3.0406,-3.0338,-3.1146,-3.1568,-3.2137,0.0,0.0,0.0,0.0,0.0,0.0,0.0,0.0,0.0,0.0,0.0,0.0,0.0,0.0,-2.7184,-2.8599,-2.7457,-2.6245,0.0,0.0,0.0,0.0,0.0,0.0,0.0,0.0,0.0,-3.2375,-3.6413,-3.9258,-4.0928,-4.3259,-4.4397,-4.4507,-4.5168,-4.3644,-4.0212,-3.4798,-3.2816,-3.2926,0.0,0.0,0.0,0.0,0.0,0.0,0.0,0.0,0.0,0.0,0.0,0.0,0.0,0.0,0.0,0.0,0.0,0.0,0.0,0.0,0.0,0.0,0.0,0.0,0.0,0.0,0.0,0.0,0.0,0.0,0.0,0.0,0.0,0.0,0.0,0.0,0.0,0.0,0.0,-2.7034,-3.1046,0.0,0.0,0.0,0.0,-3.2459,-3.3184,-3.3968,-3.4778,-3.4862,-3.5993,-3.8407,-3.9252,-4.0428,-4.1974,-4.3552,-4.3975,-4.3259,-4.4066,-4.4103,-4.3461,-4.4232,-4.4176,-4.3534,-4.4268,-4.4562,-4.4213,-4.0139,-3.7533,-3.6009,-3.5064,-3.4247,-3.366,-3.444,-3.5293,-3.6119,0.0,0.0,0.0,0.0,0.0,0.0,0.0,0.0,0.0,0.0,0.0,0.0,0.0,-2.9421,-3.1709,-3.2779,-3.2852,-3.1825,-2.9425,0.0,0.0,0.0,0.0,0.0,0.0,0.0,-3.2742,-3.6541,-3.9551,-4.1846,-4.3442,-4.4305,-4.5259,-4.6269,-4.6544,-4.6324,-4.5406,-4.0267,-3.6431,-3.355,-3.0797,-2.8576,0.0,0.0,0.0,0.0,0.0,0.0,0.0,0.0,0.0,0.0,0.0,0.0,0.0,0.0,0.0,0.0,0.0,0.0,0.0,0.0,0.0,0.0,0.0,0.0,0.0,0.0,0.0,0.0,0.0,0.0,0.0,0.0,0.0,0.0,0.0,0.0,0.0,-3.2579,-3.5931,0.0,-3.3338,-3.4811,-3.5697,-3.511,-3.7143,-3.867,-3.9259,-4.0659,-4.1879,-4.2841,-4.3656,-4.4229,-4.4599,-4.5186,-4.5333,-4.5039,-4.4819,-4.4819,-4.5039,-4.4819,-4.4837,-4.5057,-4.5351,-4.548,-4.5369,-4.392,-4.269,-4.1625,-4.0799,-4.0286,-4.0139,-4.0965,-4.1442,-4.1827,0.0,0.0,0.0,0.0,0.0,0.0,0.0,0.0,0.0,0.0,0.0,-2.5815,-2.8709,-3.2632,-3.5477,-3.6578,-3.6174,-3.4596,-3.1586,0.0,0.0,0.0,0.0,0.0,0.0,-3.2999,-3.6266,-3.9515,-4.1937,-4.3663,-4.4727,-4.5278,-4.6232,-4.7535,-4.781,-4.8251,-4.8526,-4.5333,-4.1295,-3.6835,-3.4137,-3.2247,-3.065,0.0,0.0,0.0,0.0,0.0,0.0,0.0,0.0,0.0,0.0,0.0,0.0,0.0,0.0,0.0,0.0,0.0,0.0,0.0,0.0,0.0,0.0,0.0,0.0,0.0,0.0,0.0,0.0,0.0,0.0,0.0,0.0,0.0,0.0,-3.5115,-3.7718,-3.6616,-4.0284,-4.1548,-3.8099,-3.9676,-4.0701,-4.0219,-4.2315,-4.3709,-4.3855,-4.53,-4.6154,-4.6249,-4.6768,-4.6925,-4.6709,-4.6709,-4.6581,-4.6305,-4.5773,-4.5663,-4.5883,-4.5645,-4.5663,-4.592,-4.6195,-4.6305,-4.6305,-4.6305,-4.6159,-4.581,-4.4727,-4.4305,-4.436,-4.4911,-4.5112,-4.5149,0.0,0.0,0.0,0.0,0.0,0.0,0.0,0.0,0.0,0.0,-2.3547,-2.7056,-3.1054,-3.5147,-3.823,-3.9827,-3.6945,-3.4009,-3.1623,-2.6906,0.0,0.0,0.0,0.0,-3.1641,-3.6358,-3.9588,-4.1258,-4.3608,-4.4764,-4.4819,-4.6416,-4.759,-4.8379,-4.926,-4.9664,-4.9701,-4.9701,-4.7425,-4.3406,-3.8487,-3.6945,-3.6872,0.0,0.0,0.0,0.0,0.0,0.0,0.0,0.0,0.0,0.0,0.0,0.0,0.0,0.0,0.0,0.0,0.0,0.0,0.0,0.0,0.0,0.0,0.0,0.0,0.0,0.0,0.0,0.0,0.0,0.0,0.0,0.0,0.0,-3.4249,-3.8914,-4.1491,-3.8912,-4.4018,-4.6573,-4.354,-4.5956,-4.777,-4.7884,-4.8642,-4.8906,-4.8437,-4.8437,-4.8437,-4.8418,-4.8418,-4.8361,-4.8381,-4.8343,-4.7957,-4.715,-4.715,-4.6746,-4.603,-4.6801,-4.6746,-4.6067,-4.6819,-4.715,-4.715,-4.7186,-4.7645,-4.8177,-4.6599,-4.5975,-4.5975,-4.5975,-4.5975,-4.5865,0.0,0.0,0.0,0.0,0.0,0.0,0.0,0.0,0.0,0.0,-2.566,-2.9549,-3.3587,-3.7661,-4.0524,-4.1552,-3.7624,-3.4523,-3.322,0.0,0.0,0.0,0.0,0.0,-3.834,-3.9753,-4.1809,-4.458,-4.5241,-4.5883,-4.6471,-4.7498,-4.8434,-4.9297,-5.0692,-5.1665,-5.2215,-5.2215,-5.1903,-5.082,-4.4176,-4.0598,-3.8836,0.0,0.0,0.0,0.0,0.0,0.0,0.0,0.0,0.0,0.0,0.0,0.0,0.0,0.0,0.0,0.0,0.0,0.0,0.0,0.0,0.0,0.0,0.0,0.0,0.0,0.0,0.0,0.0,0.0,0.0,0.0,-3.9663,-4.2066,-4.0538,-4.3388,-4.6143,-4.7514,-4.9777,-5.0564,-4.8806,-4.9958,-5.0563,-5.0029,-5.0998,-5.1424,-5.0997,-5.1258,-5.1288,-5.0997,-5.0701,-5.0266,-4.9672,-4.9379,-4.8802,-4.7976,-4.7976,-4.8196,-4.8563,-4.8159,-4.8196,-4.8545,-4.8159,-4.7976,-4.8031,-4.8655,-4.9022,-4.9132,-4.8067,-4.7645,-4.7645,-4.7645,-4.7645,-4.7609,0.0,0.0,0.0,0.0,0.0,0.0,0.0,0.0,0.0,0.0,-2.6342,-3.0277,-3.3615,-3.7661,-4.001,-3.9808,-3.6285,-3.3128,-3.0925,0.0,0.0,0.0,0.0,-3.6688,-4.102,-4.2433,-4.403,-4.5902,-4.6581,-4.715,-4.7645,-4.8802,-4.9793,-5.0655,-5.194,-5.2949,-5.372,-5.4069,-5.4473,-5.4491,-4.9903,-4.6819,-4.4544,-4.0744,-3.8634,-3.7404,-3.522,-3.4321,-3.3862,-3.2078,0.0,0.0,0.0,0.0,0.0,0.0,0.0,0.0,0.0,0.0,0.0,0.0,0.0,0.0,0.0,0.0,0.0,0.0,0.0,0.0,0.0,0.0,0.0,0.0,-4.4515,-4.7702,-4.8144,-4.9586,-5.1158,-5.2717,-5.3809,-5.4243,-5.3708,-5.3582,-5.3438,-5.3167,-5.3465,-5.3468,-5.3074,-5.3271,-5.33,-5.3043,-5.2451,-5.1993,-5.1726,-5.0805,-5.0173,-4.9848,-4.9517,-4.9609,-5.0086,-4.9572,-4.9627,-5.005,-4.9205,-4.8838,-4.8875,-4.937,-4.937,-4.9058,0.0,0.0,0.0,0.0,-4.8618,-4.8251,0.0,0.0,0.0,0.0,0.0,0.0,0.0,0.0,0.0,0.0,0.0,-2.9567,-3.2063,-3.5807,-3.7569,-3.6138,-3.3705,-3.0638,0.0,0.0,0.0,-3.1898,-3.5807,-3.9111,-4.1735,-4.4672,-4.6214,-4.6324,-4.7847,-4.8636,-4.8746,-5.0325,-5.1499,-5.2307,-5.3115,-5.3922,-5.473,-5.5427,-5.582,-5.5907,-5.5147,-5.3805,-5.1573,-4.647,-4.4869,-4.4851,-4.1172,-3.8927,-3.7658,-3.725,0.0,0.0,0.0,0.0,0.0,0.0,0.0,0.0,0.0,0.0,0.0,0.0,0.0,0.0,0.0,0.0,0.0,0.0,0.0,0.0,0.0,0.0,0.0,0.0,-4.8606,-5.2472,-5.5549,-5.6165,-5.6076,-5.5536,-5.6448,-5.7305,-5.7638,-5.6659,-5.6168,-5.6587,-5.5912,-5.5255,-5.4791,-5.4791,0.0,0.0,0.0,-5.3559,-5.3792,-5.2354,-5.175,-5.1996,-5.1388,-5.1017,-5.0864,-5.0864,-5.0824,-5.0747,-4.9848,-4.9536,-4.9719,-4.9719,-4.9315,-4.8838,-5.005,-5.0582,-5.0563,-4.9738,-4.8948,-4.8214,0.0,0.0,0.0,0.0,0.0,0.0,0.0,0.0,0.0,-2.2592,-2.4782,-2.7255,-3.0338,-3.3109,-3.4614,-3.4302,-3.1623,-2.904,0.0,0.0,-3.1384,-3.6101,-3.8946,-4.2158,-4.5883,-4.7205,-4.8177,-4.8875,-4.9848,-5.0655,-5.1298,-5.2289,-5.317,-5.3977,-5.4766,-5.5574,-5.6363,-5.651,-5.7143,-5.8066,-5.7918,-5.5891,-5.2808,-5.1454,-5.0184,-4.8937,-4.7537,-4.681,-4.6076,-4.3115,-4.2007,-4.1222,-3.7485,0.0,0.0,0.0,0.0,0.0,0.0,0.0,0.0,0.0,0.0,0.0,0.0,0.0,0.0,0.0,0.0,0.0,0.0,0.0,0.0,-4.8875,-5.301,-5.6242,-5.7607,-5.8954,-5.9277,-5.7843,-5.7889,-5.8085,-5.815,-5.7928,-5.7835,-5.792,-5.7766,-5.7339,-5.6563,-5.6525,-5.6199,-5.5485,-5.4988,-5.4457,-5.3888,-5.3187,-5.2585,-5.2014,-5.2508,0.0,-5.1285,-5.1285,-5.112,-5.0729,-4.9205,-4.9315,-5.0563,-5.0563,-5.0839,-5.1114,-4.9444,-4.9205,-4.9719,-4.8875,-4.8434,-4.8288,0.0,0.0,0.0,0.0,0.0,0.0,0.0,0.0,0.0,0.0,-2.3841,-2.5764,-2.7764,-2.978,-3.0668,-2.9876,-2.8009,0.0,0.0,-3.0751,-3.4376,-3.9662,-4.1827,-4.4415,-4.7645,-4.8526,-4.9352,-5.0196,-5.1408,-5.2215,-5.2619,-5.4068,-5.4843,-5.5067,-5.6336,-5.7234,-5.7802,-5.8036,-5.8928,-6.0266,-5.9872,-5.8596,-5.6835,-5.5823,-5.4687,-5.3541,-5.316,-5.2221,-5.0948,-4.9524,-4.8103,-4.6337,-4.3069,-4.0574,-3.7944,0.0,0.0,0.0,0.0,0.0,0.0,0.0,0.0,0.0,0.0,0.0,0.0,0.0,0.0,-4.145,-4.4412,0.0,-4.9875,-5.3299,-5.6684,-5.905,-5.9492,-6.0646,-6.0819,-5.9108,-5.93,-5.955,-5.955,-5.9165,-5.8896,-5.8896,-5.8531,-5.8107,-5.7665,-5.7646,-5.7242,-5.6376,-5.6165,-5.5536,-5.4523,-5.4277,-5.3848,-5.3251,-5.322,-5.2868,-5.2296,-5.2296,-5.218,-5.197,-5.1095,-5.1241,-5.1951,-5.1343,-5.1804,-5.2615,-4.9984,-4.9205,-4.9536,-4.9095,-4.8673,-4.8306,0.0,0.0,0.0,0.0,0.0,0.0,0.0,0.0,0.0,0.0,-2.2523,-2.3948,-2.4776,-2.6313,-2.6687,0.0,0.0,0.0,0.0,-3.3296,-3.7187,-4.2525,-4.447,-4.6434,-4.8623,-4.9654,-5.056,-5.1265,-5.289,-5.3776,-5.3961,-5.5826,-5.655,-5.6385,-5.7808,-5.861,-5.895,-5.9267,-6.0327,-6.1735,-6.0921,-6.0823,-6.1036,-5.9349,-5.8243,-5.7567,-5.7213,-5.5522,-5.3497,-5.4106,-5.2389,-4.966,-4.772,-4.5529,-4.2451,-3.6195,-3.4808,0.0,0.0,0.0,0.0,0.0,0.0,0.0,0.0,0.0,-3.9931,-4.3528,-4.4836,-4.6509,-5.0414,-5.2356,-5.4395,-5.7492,-5.9838,-6.1223,-6.1069,-6.1647,-6.1512,-5.9935,-6.0358,-6.08,-6.08,-6.0165,-5.9742,-5.9742,-5.9146,-5.8704,-5.855,-5.8531,-5.8146,-5.728,-5.7242,-5.6668,-5.5479,-5.546,-5.5233,-5.4731,-5.4019,-5.3573,-5.3331,-5.3331,-5.3301,-5.3208,-5.3371,-5.3352,-5.3145,-5.2319,-5.2636,-5.3349,-5.1081,-4.9947,-4.9554,-4.9389,-4.9003,-4.8526,0.0,0.0,0.0,0.0,0.0,0.0,0.0,0.0,0.0,0.0,0.0,0.0,0.0,0.0,0.0,0.0,0.0,0.0,-3.1565,-3.5975,-4.0281,-4.425,-4.6673,-4.855,-4.9945,-5.1487,-5.2466,-5.2924,-5.4599,-5.5785,-5.6504,-5.7529,-5.8358,-5.8985,-5.9185,-5.9279,-5.9338,-5.9389,-6.0194,-6.1389,-6.0502,-6.1296,-6.2836,-6.1165,-6.02,-5.9549,-5.8053,-5.5883,-5.3704,-5.3376,-5.2304,-5.1091,-5.0805,-4.9242,-4.6607,-4.2091,0.0,-3.4199,-3.3526,-3.4988,-3.7046,-3.8507,-3.9469,-4.1643,0.0,0.0,-4.8009,-5.2202,-5.3164,-5.4068,-5.6799,-5.805,-5.9281,-6.1223,-6.2377,-6.2781,-6.205,-6.2031,-6.1723,-6.0762,-6.0742,-6.08,-6.08,-6.0704,-6.0646,-6.0646,-6.0569,-6.0185,-5.9415,-5.9377,-5.8992,-5.8184,-5.8146,-5.77,-5.6794,-5.6794,-5.6368,-5.5577,-5.5481,-5.4863,-5.3823,-5.3823,-5.3594,-5.3239,-5.4012,-5.3918,-5.3239,-5.3905,-5.3587,-5.2678,-5.2381,-5.1157,-4.9499,-4.8728,-4.8875,-4.9334,0.0,0.0,0.0,0.0,0.0,0.0,0.0,0.0,0.0,0.0,0.0,0.0,0.0,0.0,0.0,0.0,0.0,0.0,-3.1996,-3.7037,-4.1763,-4.5861,-4.7983,-4.9744,-5.1217,-5.2362,-5.3287,-5.3956,-5.5597,-5.6578,-5.6937,-5.854,-5.9355,-5.9424,-5.9946,-6.0341,-6.0596,-6.0876,-6.1849,-6.3192,-6.231,-6.2503,-6.307,-6.0877,-5.8707,-5.6669,-5.548,-5.3736,0.0,0.0,-5.0268,-4.9616,-5.0632,-4.8624,-4.5066,-4.0835,-3.843,0.0,-3.9546,-3.9873,-4.0315,-4.3047,-4.4701,-4.6682,-5.0529,-5.1241,-5.2279,-5.653,-5.7819,-5.8781,-6.0839,-6.1897,-6.2531,-6.2762,-6.3935,-6.4185,-6.2358,-6.2493,-6.1935,-5.9627,-6.0204,-6.08,-6.08,-6.08,-6.08,-6.08,-6.08,-6.0646,-6.0281,-6.0262,-5.9877,-5.9031,-5.855,-5.7877,-5.6992,-5.6492,-5.6049,-5.5684,-5.5222,-5.4735,-5.4239,-5.4239,-5.4398,-5.4677,-5.5059,-5.5002,-5.467,-5.4799,-5.4552,-5.3905,-5.2476,-5.1955,-5.1805,-4.98,-4.8967,-4.8783,0.0,0.0,0.0,0.0,0.0,0.0,0.0,0.0,0.0,0.0,0.0,0.0,0.0,0.0,0.0,0.0,0.0,0.0,0.0,-3.6688,-4.1543,-4.5779,-4.824,-5.0251,-5.1774,-5.2834,-5.3829,-5.4819,-5.6489,-5.7305,-5.7324,-5.935,-6.0103,-5.9823,-6.0482,-6.0968,-6.1275,-6.1588,-6.257,-6.382,-6.2954,-6.2608,-6.2281,-5.9281,-5.603,-5.2953,-5.1856,-4.9913,0.0,0.0,-4.5836,-4.5624,-4.7336,-4.574,-4.2643,-3.9585,-3.8815,-3.9469,-4.1893,-4.2701,-4.3547,-4.6509,-4.9375,-5.1875,-5.3337,-5.4703,-5.6646,-6.0185,-6.1223,-6.1935,-6.3397,-6.4166,-6.4397,-6.3762,-6.4916,-6.5089,-6.2762,-6.2743,-6.182,-5.8665,-5.9165,-5.9742,-5.9742,-6.0377,-6.08,-6.08,-6.08,-6.08,-6.08,-6.08,-6.0512,-5.9877,-5.9069,-5.8223,-5.7357,-5.6492,-5.5934,-5.5684,-5.5107,-5.4818,-5.4818,-5.4818,-5.5145,-5.5703,-5.5703,-5.5703,-5.5662,-5.5399,-5.5186,-5.492,-5.3126,-5.2919,-5.3344,-5.1101,-4.9731,-4.893,0.0,0.0,0.0,0.0,0.0,0.0,0.0,0.0,0.0,0.0,0.0,0.0,0.0,0.0,0.0,0.0,0.0,0.0,0.0,-3.4679,-3.9245,-4.3145,-4.7241,-5.0005,-5.1294,-5.2927,-5.4402,-5.5662,-5.7412,-5.8277,-5.8296,-5.9988,-6.0757,-6.0757,-6.08,-6.0819,-6.0839,-6.0839,-6.1358,-6.2089,-6.1223,-6.0877,-6.0416,-5.6242,-5.2529,-4.9336,-4.7682,0.0,0.0,0.0,-3.8334,-3.8604,-4.0277,-4.0719,0.0,-4.045,-3.9277,-3.8065,-3.8161,-4.1758,-4.5893,-4.7625,-5.2452,-5.7011,-5.7896,-6.0031,-6.232,-6.4089,-6.3801,-6.3512,-6.4397,-6.4589,-6.4589,-6.457,-6.5301,-6.5282,-6.3512,-6.2608,-6.1166,-5.8607,-5.7588,-5.7107,-5.7107,-5.9338,-6.08,-6.08,-6.08,-6.08,-6.08,-6.08,-6.0781,-6.0762,-5.9915,-5.9088,-5.828,-5.7396,-5.653,-5.5703,-5.5684,-5.5665,-5.5665,-5.5665,-5.5684,-5.5703,-5.5703,-5.5703,-5.5703,-5.5703,-5.5446,-5.5088,-5.5004,-5.4249,-5.3126,-5.2246,-5.1407,-5.049,0.0,0.0,0.0,0.0,0.0,0.0,0.0,0.0,0.0,0.0,0.0,0.0,0.0,0.0,0.0,0.0,0.0,0.0,0.0,-3.3328,-3.785,-4.0501,-4.57,-4.8747,-4.9179,-5.1404,-5.2752,-5.3183,-5.5453,-5.6569,-5.6607,-5.8338,-5.9146,-5.9146,-5.9146,-5.9146,-5.9184,-5.9704,-6.0435,-6.105,-5.9088,-5.828,-5.7627,-5.1722,-4.6644,-4.2239,0.0,0.0,0.0,0.0,-3.2968,-3.3353,-3.5603,-3.5565,-3.4776,-3.5295,-3.6661,-3.8738,-4.2124,-4.5951,-4.9933,-5.3876,-5.678,-5.9338,-6.1897,-6.3147,-6.3743,-6.3743,-6.2166,-6.0531,-5.9704,-6.0473,-6.1223,-6.1223,-6.3839,-6.5282,-6.3551,-6.307,-6.132,-5.7088,-5.78,-5.778,-5.5549,-5.7107,-5.8742,-5.9858,-5.9935,-6.0185,-6.0762,-6.08,-6.0531,-5.9954,-5.9146,-5.83,-5.7453,-5.6569,-5.5992,-5.5703,-5.5703,-5.5703,-5.5703,-5.5703,-5.5703,-5.5703,-5.5703,-5.5703,-5.5703,-5.5703,-5.5621,-5.5431,-5.4619,-5.4368,-5.4211,-5.2019,-5.1387,-5.1305,0.0,0.0,0.0,0.0,0.0,0.0,0.0,0.0,0.0,0.0,0.0,0.0,0.0,0.0,0.0,0.0,0.0,0.0,0.0,0.0,-3.3825,-3.6026,-4.0623,-4.3278,-4.3585,-4.549,-4.6778,-4.7394,-5.024,-5.1779,-5.2145,-5.478,-5.6011,-5.603,-5.6338,-5.6492,-5.6492,-5.6703,-5.6588,-5.6088,-5.4184,-5.2472,-5.0529,-4.5259,-4.0489,0.0,0.0,0.0,0.0,0.0,-2.8783,-2.939,-3.1333,-3.2256,-3.2872,-3.4295,-3.7142,-4.1066,-4.6759,-5.0356,-5.3626,-5.8454,-6.0492,-6.182,-6.3705,-6.4147,-6.3724,-6.2262,-5.9915,-5.7627,-5.5953,-5.6511,-5.7146,-5.6838,-5.9858,-6.1973,-6.1166,-6.0781,-5.9608,-5.6934,-5.7511,-5.7415,-5.5568,-5.6088,-5.7357,-5.9358,-5.9492,-5.9877,-6.0742,-6.08,-6.0396,-5.9531,-5.8723,-5.7877,-5.6992,-5.6126,-5.5703,-5.5703,-5.5703,-5.5703,-5.5703,-5.5703,-5.5703,-5.5703,-5.5703,-5.5703,-5.5703,-5.5703,-5.5703,-5.5605,-5.4848,-5.4872,-5.5052,-5.2901,-5.2441,-5.2569,0.0,0.0,0.0,0.0,0.0,0.0,0.0,0.0,0.0,0.0,0.0,0.0,0.0,0.0,0.0,0.0,0.0,0.0,0.0,0.0,0.0,-3.0033,-3.266,-3.4468,-3.5295,-3.6142,-3.7373,-3.9027,-4.2316,-4.4335,-4.522,-4.9298,-5.1202,-5.1221,-5.2049,-5.2414,-5.2375,-5.1548,-4.9817,-4.7567,-4.6682,-4.3874,-3.995,-3.7353,0.0,0.0,0.0,0.0,0.0,0.0,-2.6024,-2.7082,-2.8044,-3.1121,-3.4911,-3.7546,-4.0777,-4.4932,-5.1548,-5.4645,-5.703,-6.1185,-6.3378,-6.432,-6.3493,-6.3205,-6.2358,-5.9723,-5.7088,-5.4703,-5.2876,-5.276,-5.2683,-5.1914,-5.4126,-5.6261,-5.7126,-5.6549,-5.6588,-5.8127,-5.6876,-5.6184,-5.6915,-5.628,-5.6838,-5.9319,-5.9454,-5.9838,-6.0742,-6.08,-6.0396,-5.9531,-5.8723,-5.7877,-5.6992,-5.6126,-5.5703,-5.5703,-5.5703,-5.5703,-5.5703,-5.5703,-5.5703,-5.5703,-5.5703,-5.5703,-5.5703,-5.5703,-5.5703,-5.5703,-5.5703,-5.5703,-5.5588,-5.4799,-5.4491,-5.4158,0.0,0.0,0.0,0.0,0.0,0.0,0.0,0.0,0.0,0.0,0.0,0.0,0.0,0.0,0.0,0.0,0.0,0.0,0.0,0.0,0.0,0.0,0.0,0.0,0.0,0.0,0.0,0.0,0.0,-3.8757,-3.9008,-4.0739,-4.1546,-4.1546,-4.1777,-4.1873,-4.1854,-4.1643,-4.1546,-4.1354,0.0,-3.7757,-3.643,0.0,0.0,0.0,0.0,0.0,0.0,0.0,0.0,-3.166,-3.3795,-3.5641,-3.7777,-4.1585,-4.5586,-4.9683,-5.3914,-5.7703,-6.1031,-6.3378,-6.3801,-6.357,-6.3358,-6.1839,-5.9396,-5.5588,-5.1798,-4.8048,-4.4412,-4.6836,-4.9548,-4.9971,-5.5357,-5.98,-6.0666,-6.0608,-5.9935,-5.8473,0.0,-5.8127,-5.7088,-5.7396,-5.8165,-5.9415,-5.8934,-5.9242,-6.0723,-6.08,-6.0396,-5.9531,-5.8723,-5.7877,-5.6992,-5.6126,-5.5703,-5.5703,-5.5703,-5.5703,-5.5703,-5.5703,-5.5703,-5.5703,-5.5703,-5.5703,-5.5703,-5.5703,-5.5703,-5.5703,-5.5703,-5.5703,-5.5588,-5.4799,-5.4491,-5.4413,0.0,0.0,0.0,0.0,0.0,0.0,0.0,0.0,0.0,0.0,0.0,0.0,0.0,0.0,0.0,0.0,0.0,0.0,0.0,0.0,0.0,0.0,0.0,0.0,0.0,0.0,0.0,0.0,0.0,0.0,0.0,-3.4295,-3.5232,-3.5252,-3.5637,-3.5817,-3.5809,-3.5438,0.0,0.0,0.0,0.0,0.0,0.0,0.0,0.0,0.0,0.0,0.0,0.0,0.0,-3.6084,-3.8257,-4.0296,-4.2739,-4.6971,-5.0702,-5.4357,-5.8492,-6.1897,-6.4436,-6.5013,-6.4532,-6.3185,-6.0569,-5.83,-5.5222,-4.9875,-4.6586,-4.347,-3.9546,-4.2701,-4.5932,-4.6047,-5.1856,-5.6934,-5.8531,-5.9069,-5.9319,-5.9396,-5.9454,-5.9281,-5.8723,-5.8761,-5.9165,-6.0012,-5.93,-5.9396,-6.0723,-6.08,-6.0396,-5.9531,-5.9069,-5.8242,-5.6992,-5.6126,-5.5703,-5.5703,-5.5703,-5.5703,-5.5703,-5.5703,-5.5703,-5.5703,-5.5703,-5.5703,-5.5703,-5.5703,-5.5703,-5.5703,-5.5703,-5.5703,-5.5645,-5.5184,-5.503,-5.503,0.0,0.0,0.0,0.0,0.0,0.0,0.0,0.0,0.0,0.0,-1.9823,0.0,0.0,0.0,0.0,0.0,0.0,0.0,0.0,0.0,0.0,0.0,0.0,0.0,0.0,0.0,0.0,0.0,0.0,0.0,0.0,0.0,0.0,0.0,0.0,0.0,0.0,0.0,0.0,0.0,0.0,0.0,0.0,0.0,0.0,0.0,0.0,0.0,0.0,0.0,-3.9142,-4.0642,-4.2547,-4.5413,-4.8856,-5.2856,-5.5838,-5.8838,-6.3512,-6.5917,-6.6898,-6.609,-6.4993,-6.2589,-5.6838,-5.3895,-5.051,-4.3951,-4.1739,-3.9988,-3.6796,-3.9796,-4.2662,-4.2354,0.0,-5.1991,-5.4761,-5.5761,-5.7338,-6.0435,-6.0127,-5.9973,-6.0723,-6.0127,-5.9992,-6.0742,-6.0108,-5.9992,-6.0762,-6.08,-6.0396,-5.9531,-5.9396,-5.8646,-5.7184,-5.6184,-5.5761,-5.5857,-5.5761,-5.5703,-5.5703,-5.5703,-5.5703,-5.5703,-5.5703,-5.5703,-5.5703,-5.5703,-5.5703,-5.5703,-5.5703,-5.5703,-5.5703,-5.5703,-5.5703,-5.5703,0.0,0.0,0.0,0.0,0.0,0.0,0.0,0.0,0.0,0.0,-2.0215,-2.0312,0.0,0.0,0.0,0.0,0.0,0.0,0.0,0.0,0.0,0.0,0.0,0.0,0.0,0.0,0.0,0.0,0.0,0.0,0.0,0.0,0.0,0.0,0.0,0.0,0.0,0.0,0.0,0.0,0.0,0.0,0.0,0.0,0.0,0.0,0.0,0.0,0.0,0.0,-4.2033,-4.6124,-4.9183,-5.201,-5.4722,-5.7569,-6.0204,-6.2704,-6.5032,-6.6359,-6.6898,-6.609,-6.3666,-6.0262,-5.5742,-5.1241,0.0,-4.1066,-3.8161,-3.5968,-3.393,-3.7603,-4.1816,-4.4509,-4.9336,-5.4145,-5.8088,-5.8742,-5.9338,-6.0627,-6.0666,-6.0627,-6.0781,-6.0666,-6.0627,-6.0781,-6.0666,-6.0646,-6.0781,-6.08,-6.0396,-5.9531,-5.8858,-5.8377,-5.8088,-5.6492,-5.6049,-5.6761,-5.603,-5.5703,-5.5703,-5.5703,-5.5703,-5.5703,-5.5703,-5.5703,-5.5703,-5.5703,-5.5703,-5.5703,-5.5703,-5.5703,-5.5703,-5.5703,-5.5703,-5.5703,0.0,0.0,0.0,0.0,0.0,0.0,0.0,-1.935,-1.9792,-2.0235,-2.0312,-2.0312,-2.0312,-2.0312,-2.0312,0.0,0.0,0.0,0.0,0.0,0.0,0.0,0.0,0.0,0.0,0.0,-2.0312,-2.0312,0.0,0.0,0.0,-2.0292,0.0,0.0,0.0,0.0,0.0,0.0,0.0,0.0,0.0,0.0,0.0,0.0,0.0,0.0,0.0,0.0,0.0,0.0,-4.0985,-4.7184,-5.2259,-5.5934,-5.8684,-6.0358,-6.2666,-6.5032,-6.6744,-6.7802,-6.8032,-6.632,-6.2993,-5.855,-5.2549,0.0,0.0,-3.7103,-3.5007,-3.3622,-3.191,-3.5757,-3.9873,-4.197,-4.6605,-5.1548,-5.6242,-5.7261,-5.8338,-6.0531,-6.08,-6.08,-6.08,-6.08,-6.08,-6.08,-6.08,-6.08,-6.08,-6.08,-6.0608,-6.0185,-5.8954,-5.83,-5.83,-5.6569,-5.5915,-5.6319,-5.5895,-5.5703,-5.5703,-5.5703,-5.5703,-5.5703,-5.5703,-5.5703,-5.5703,-5.5703,-5.5703,-5.5703,-5.5703,-5.5703,-5.5703,-5.5703,-5.5992,-5.6376,0.0,0.0,0.0,0.0,0.0,0.0,0.0,-1.9158,-1.9523,-2.0215,-2.0312,-2.0312,-2.0312,-2.0312,-2.0312,0.0,0.0,0.0,0.0,0.0,0.0,0.0,0.0,0.0,0.0,0.0,0.0,-2.0312,-2.0308,0.0,0.0,0.0,0.0,0.0,-2.0452,-2.0515,0.0,0.0,0.0,0.0,0.0,0.0,0.0,0.0,0.0,0.0,0.0,0.0,0.0,0.0,-3.8163,-4.4395,-5.0759,-5.597,-5.9838,-6.0531,-6.2916,-6.5705,-6.7417,-6.8494,-6.8571,-6.6205,-6.2262,-5.7011,-4.9548,-4.4432,-3.9623,-3.3833,-3.2487,-3.2025,-3.0891,-3.4083,-3.743,0.0,-4.297,-4.7721,-5.3183,-5.4799,-5.678,-6.0358,-6.08,-6.0858,-6.105,-6.0916,-6.08,-6.08,-6.08,-6.08,-6.08,-6.08,-6.08,-6.08,-5.9165,-5.8473,-5.8838,-5.6934,-5.6069,-5.6242,-5.6069,-5.5876,-5.5703,-5.5703,-5.5703,-5.5703,-5.5703,-5.5703,-5.5703,-5.5703,-5.5703,-5.5703,-5.5703,-5.5703,-5.5722,-5.5915,-5.6395,-5.703,0.0,0.0,0.0,0.0,0.0,0.0,0.0,-1.9677,-2.0215,-2.0292,-2.0312,-2.0312,-2.0312,-2.0312,-2.0312,0.0,0.0,0.0,0.0,0.0,0.0,0.0,0.0,0.0,0.0,0.0,0.0,-2.0312,-2.0301,0.0,0.0,0.0,0.0,0.0,0.0,-2.0458,-2.0513,0.0,0.0,0.0,0.0,0.0,0.0,0.0,0.0,0.0,0.0,0.0,0.0,0.0,0.0,-3.6346,-4.1623,-4.9198,-5.6184,-5.6261,0.0,0.0,-6.5667,-6.6724,-6.6917,-6.5166,-6.0935,-5.5434,-4.8567,0.0,-3.8065,-3.2872,-3.1179,-3.0833,-3.1468,-3.2564,-3.4661,-3.8642,0.0,-4.4586,-5.1221,-5.3568,-5.6145,-6.03,-6.08,-6.1108,-6.1897,-6.1262,-6.08,-6.08,-6.08,-6.08,-6.08,-6.08,-6.08,-6.08,-5.9165,-5.9031,-6.055,-5.8107,-5.728,-5.805,-5.7261,-5.6472,-5.5703,-5.5703,-5.5703,-5.5703,-5.5703,-5.5703,-5.5703,-5.5703,-5.5703,-5.5703,-5.5703,-5.5703,-5.5799,-5.6588,-5.6915,-5.7107,0.0,0.0,0.0,0.0,0.0,0.0,-1.8927,-1.9735,-2.0312,-2.0312,-2.0312,-2.0312,-2.0312,-2.0312,-2.0312,-2.0312,0.0,0.0,0.0,0.0,0.0,0.0,0.0,0.0,0.0,0.0,-2.0312,-2.0312,-2.0308,0.0,0.0,0.0,0.0,0.0,0.0,-2.0533,-2.0562,0.0,0.0,0.0,0.0,0.0,0.0,0.0,0.0,0.0,0.0,0.0,-2.6661,0.0,0.0,0.0,-3.3488,-3.8941,0.0,0.0,-5.6335,-6.0319,-6.4109,-6.5724,-6.5974,-6.4262,-5.9223,-5.3203,-4.7432,0.0,-3.6007,-3.2429,-3.1006,-3.0513,-3.0852,-3.1621,-3.3064,-3.5776,0.0,0.0,-4.6509,-4.8836,-5.1875,-5.7107,-5.8184,-5.9242,-6.1127,-6.0993,-6.08,-6.08,-6.08,-6.08,-6.08,-6.08,-6.08,-6.08,-5.9646,-5.9338,-6.0012,-5.8531,-5.7953,-5.83,-5.7953,-5.7319,-5.6472,-5.6472,-5.6203,-5.5703,-5.5703,-5.5703,-5.5703,-5.5703,-5.6011,-5.6472,-5.6472,-5.6799,-5.7319,-5.7646,-5.8088,-5.855,0.0,0.0,0.0,0.0,0.0,-1.808,-1.9208,-1.99,-2.0312,-2.0312,-2.0312,-2.0312,-2.0312,-2.0312,-2.0312,-2.0312,-2.0312,0.0,0.0,0.0,0.0,0.0,0.0,0.0,0.0,0.0,-2.0443,-2.0677,-2.0457,-2.0479,0.0,0.0,-2.0528,-2.0519,0.0,0.0,0.0,0.0,0.0,0.0,0.0,0.0,0.0,0.0,0.0,0.0,0.0,0.0,0.0,0.0,0.0,0.0,0.0,0.0,0.0,0.0,-5.1336,-5.6104,-6.0435,-6.3166,-6.4416,-6.2935,-5.7473,-5.1183,-4.6317,0.0,-3.4391,-3.1852,-3.0833,-3.0398,-3.0398,-3.1121,-3.216,0.0,0.0,-3.8219,-4.2566,-4.5105,-4.8336,-5.3241,-5.4607,-5.6319,-5.9377,-6.0358,-6.08,-6.08,-6.08,-6.08,-6.08,-6.08,-6.08,-6.08,-5.9723,-5.9261,-5.9492,-5.8704,-5.83,-5.83,-5.83,-5.7838,-5.6992,-5.6992,-5.6665,-5.6088,-5.6357,-5.6472,-5.6472,-5.6472,-5.6819,-5.7376,-5.7376,-5.7761,-5.8338,-5.8569,-5.9011,-5.955,0.0,0.0,0.0,0.0,0.0,0.0,-2.0023,-2.0292,-2.0312,-2.0312,-2.0312,-2.0312,-2.0312,-2.0312,-2.0312,-2.0312,-2.0312,0.0,0.0,0.0,0.0,0.0,0.0,0.0,0.0,0.0,-2.0723,-2.1585,-2.0783,-2.0869,-2.1763,-2.0974,-2.0593,-2.0593,0.0,0.0,0.0,0.0,0.0,0.0,0.0,0.0,0.0,0.0,0.0,0.0,0.0,0.0,0.0,0.0,0.0,0.0,0.0,0.0,0.0,0.0,-4.4237,-5.141,-5.3913,-5.828,-6.1916,-6.105,-5.5722,-4.9586,-4.5278,-3.9065,-3.3487,-3.0948,-3.0398,-3.0398,-3.0398,-3.1121,-3.1968,-3.2776,-3.5045,0.0,-4.0181,-4.347,-4.6567,-4.9163,-5.0221,-5.2414,-5.6626,-5.9319,-6.08,-6.08,-6.08,-6.08,-6.08,-6.08,-6.08,-6.08,-5.9184,-5.8684,-5.9492,-5.8704,-5.83,-5.83,-5.83,-5.7838,-5.6992,-5.6992,-5.6992,-5.703,-5.7896,-5.828,-5.828,-5.828,-5.828,-5.83,-5.83,-5.83,-5.8396,-5.9184,-5.9492,-5.9627,0.0,0.0,0.0,0.0,0.0,0.0,0.0,-2.0312,-2.0312,-2.0312,-2.0312,-2.0312,-2.0312,-2.0312,-2.0312,-2.0312,-2.0312,0.0,0.0,0.0,0.0,0.0,0.0,0.0,0.0,0.0,-2.0733,-2.1604,-2.1444,-2.15,-2.1805,-2.1598,-2.116,-2.0599,-2.0596,-2.0593,0.0,0.0,0.0,0.0,0.0,0.0,0.0,0.0,0.0,0.0,0.0,0.0,0.0,0.0,0.0,0.0,0.0,0.0,0.0,0.0,0.0,0.0,-4.6665,-4.966,-5.1375,-4.9946,-4.6647,-4.2912,-3.9815,-3.568,-3.2083,-3.0698,-3.0398,-3.0398,-3.0398,-3.0641,-3.1468,-3.3449,-3.4968,0.0,0.0,-4.3605,-4.7644,-5.0741,-5.5472,-5.8781,-5.9531,-6.0319,-6.08,-6.08,-6.08,-6.08,-6.08,-6.08,-6.08,-6.08,-6.0281,-5.9838,-5.9492,-5.9261,-5.8838,-5.83,-5.83,-5.7838,-5.7011,-5.7607,-5.755,-5.7049,-5.7915,-5.83,-5.83,-5.83,-5.8627,-5.9127,-5.9127,-5.9473,-6.0031,-6.0281,-6.0396,-6.0435,0.0,0.0,0.0,0.0,0.0,0.0,0.0,-2.0312,-2.0312,-2.0312,-2.0312,-2.0312,-2.0312,-2.0312,-2.0312,-2.0312,-2.0312,0.0,0.0,0.0,0.0,0.0,0.0,0.0,0.0,-2.0603,-2.1224,-2.2177,-2.2215,-2.2438,-2.2779,-2.2481,-2.1905,-2.109,-2.109,-2.0911,0.0,0.0,0.0,0.0,0.0,0.0,-2.5703,0.0,0.0,0.0,0.0,0.0,0.0,0.0,0.0,0.0,0.0,0.0,0.0,0.0,-3.0183,-3.4939,0.0,-4.3252,-4.5143,-4.3787,-4.1248,0.0,-3.6276,-3.3141,-3.0564,-3.0025,-3.0179,-3.0398,-3.0398,-3.0679,-3.1506,-3.3391,-3.4968,-3.6738,-3.8969,-4.3393,-4.7778,-5.1471,-5.6799,-5.9954,-5.9415,-6.0242,-6.08,-6.08,-6.08,-6.08,-6.08,-6.08,-6.08,-6.08,-6.0185,-5.9608,-5.905,-5.905,-5.8627,-5.7819,-5.8454,-5.8319,-5.7511,-5.8377,-5.8454,-5.7992,-5.8858,-5.9242,0.0,-5.9242,-5.9531,-5.9992,-5.9992,-6.0319,-6.08,-6.08,-6.08,-6.08,0.0,0.0,0.0,0.0,0.0,0.0,0.0,-2.0312,-2.0312,-2.0312,-2.0312,-2.0312,-2.0312,-2.0312,-2.0312,-2.0312,0.0,0.0,0.0,0.0,0.0,0.0,0.0,0.0,0.0,-2.1082,-2.2036,-2.3092,-2.3091,-2.356,-2.4475,-2.3659,-2.2844,-2.2086,-2.2089,-2.1581,0.0,0.0,0.0,0.0,0.0,0.0,0.0,0.0,0.0,0.0,0.0,0.0,0.0,0.0,0.0,0.0,0.0,0.0,0.0,0.0,0.0,0.0,0.0,-3.8368,-4.1821,-4.1041,-3.8483,-3.574,-3.4116,0.0,0.0,-2.9083,-2.9737,-3.0359,-3.0533,-3.1198,-3.2025,-3.3006,-3.5161,-3.7353,-3.9219,-4.3431,-4.7798,-5.1798,-5.5338,-5.7319,-5.703,-5.93,-6.08,-6.08,-6.08,-6.08,-6.08,-6.08,-6.08,-6.08,-5.9223,-5.8396,-5.8396,-5.8396,-5.7953,-5.7107,-5.8665,-5.9031,-5.8338,-5.9127,-5.9492,-5.955,-6.0416,-6.08,-6.08,-6.08,-6.08,-6.08,-6.08,-6.08,-6.08,-6.08,-6.08,-6.08,0.0,0.0,0.0,0.0,0.0,0.0,0.0,0.0,0.0,0.0,-2.0312,-2.0312,-2.0312,-2.0312,-2.0312,0.0,0.0,0.0,0.0,0.0,0.0,0.0,0.0,0.0,0.0,-2.115,-2.2043,-2.3017,-2.3673,-2.4466,-2.5396,-2.5182,-2.4637,-2.38,-2.3808,0.0,0.0,0.0,0.0,0.0,0.0,0.0,0.0,0.0,0.0,0.0,-2.5703,-2.5703,0.0,0.0,0.0,0.0,0.0,0.0,0.0,0.0,-2.5906,-2.6203,-2.7589,0.0,-3.1351,-3.0546,-3.0177,-2.9886,0.0,0.0,0.0,0.0,0.0,0.0,0.0,-3.1987,-3.2602,-3.5372,-3.6315,-3.7757,-4.0796,-4.8202,-5.3933,-5.5607,-5.9358,-6.055,-5.73,-5.93,-6.08,-6.08,-6.08,-6.08,-6.08,-6.08,-6.08,-6.08,-5.9762,-5.9223,-5.9223,-5.9223,-5.8819,-5.7992,-5.8396,-5.8492,-5.8338,-5.9127,-5.9492,-5.955,-6.0416,-6.08,-6.08,-6.08,-6.08,-6.08,-6.08,-6.08,-6.08,-6.08,-6.08,-6.08,0.0,0.0,0.0,0.0,0.0,0.0,0.0,0.0,0.0,0.0,0.0,-2.0312,-2.0312,-2.0312,0.0,0.0,0.0,0.0,0.0,0.0,0.0,0.0,0.0,0.0,-2.0299,-2.1521,-2.2443,-2.305,-2.4267,-2.5138,-2.5709,-2.5691,-2.5223,-2.4383,-2.3983,0.0,0.0,0.0,0.0,0.0,-2.4551,0.0,0.0,0.0,0.0,0.0,-2.5703,-2.5703,0.0,-2.5703,-2.5703,-2.5703,0.0,0.0,0.0,0.0,-2.5909,-2.6193,-2.6207,-2.7375,-2.8412,-2.7605,-2.7941,-2.848,-2.8459,0.0,0.0,0.0,0.0,0.0,0.0,-3.2622,-3.3564,-3.5795,-3.7777,-4.0508,-4.4701,-5.0298,-5.5011,-5.7819,-5.9838,-6.0704,-5.9954,-6.0435,-6.08,-6.08,-6.08,-6.08,-6.08,-6.08,-6.08,-6.08,-6.0339,-5.9896,-5.9492,-5.9492,-5.9108,-5.8319,-5.9088,-5.9242,-5.8877,-5.9723,-6.0108,-6.0127,-6.0589,-6.08,-6.08,-6.08,-6.08,-6.08,-6.08,-6.08,-6.08,-6.08,-6.08,-6.08,0.0,0.0,0.0,0.0,0.0,0.0,0.0,0.0,0.0,0.0,0.0,0.0,0.0,0.0,0.0,0.0,0.0,0.0,0.0,0.0,0.0,0.0,0.0,-2.0361,-2.0476,-2.1864,-2.2815,-2.3272,-2.4768,-2.5619,-2.5883,-2.6026,-2.5637,-2.4754,-2.3886,-2.3906,0.0,0.0,0.0,0.0,-2.4902,0.0,0.0,0.0,0.0,0.0,0.0,0.0,0.0,-2.5703,-2.5703,-2.5703,-2.5697,0.0,0.0,0.0,0.0,0.0,-2.7057,-2.8531,-2.9737,-2.8413,-2.8653,-2.9154,-2.8959,0.0,0.0,0.0,0.0,0.0,0.0,-3.3526,0.0,0.0,-4.0008,-4.4586,-4.9817,-5.2125,-5.478,-5.8838,-5.9165,-5.9935,-6.2127,-6.1416,-6.08,-6.08,-6.08,-6.08,-6.08,-6.08,-6.08,-6.08,-6.08,-6.0454,-5.9704,-5.9704,-5.9358,-5.8704,-6.0127,-6.0416,-5.9723,-6.0454,-6.08,-6.08,-6.08,-6.08,-6.08,-6.08,-6.08,-6.08,-6.08,-6.08,-6.08,-6.08,-6.08,-6.08,0.0,0.0,0.0,0.0,0.0,0.0,0.0,0.0,0.0,0.0,0.0,0.0,0.0,0.0,0.0,0.0,0.0,0.0,0.0,0.0,0.0,0.0,-2.0312,-2.0619,-2.1309,-2.157,-2.2466,-2.4038,-2.5026,-2.592,-2.6724,-2.7532,-2.744,-2.6562,-2.5683,-2.5371,-2.5488,-2.5352,-2.5469,-2.5684,-2.5547,0.0,0.0,0.0,0.0,0.0,0.0,0.0,0.0,-2.5703,-2.5703,-2.5699,-2.5628,0.0,0.0,0.0,0.0,0.0,-2.771,-3.0662,-3.2647,-2.8935,-2.8606,-2.9,-2.8247,0.0,0.0,0.0,0.0,0.0,0.0,-3.5603,-3.6507,0.0,-4.4393,-4.9163,-5.5011,-5.7915,-5.9204,-5.8569,-6.0877,-6.1339,-5.8261,-5.9685,-6.08,-6.08,-6.08,-6.08,-6.08,-6.08,-6.08,-6.08,-6.08,-6.0742,-6.0589,-6.0589,-6.0531,-6.0416,-6.0685,-6.0723,-6.0589,-6.0742,-6.08,-6.08,-6.08,-6.08,-6.08,-6.08,-6.08,-6.08,-6.08,-6.08,-6.08,-6.08,-6.08,-6.08,0.0,0.0,0.0,0.0,0.0,0.0,0.0,0.0,0.0,0.0,0.0,0.0,0.0,0.0,0.0,0.0,0.0,0.0,0.0,0.0,0.0,-2.0927,-2.0946,-2.1119,-2.1485,-2.2458,-2.3608,-2.4911,-2.5337,-2.6038,-2.6956,-2.6911,-2.6678,-2.6285,-2.5878,-2.5703,-2.5703,-2.5703,-2.5703,-2.5703,0.0,0.0,0.0,0.0,0.0,0.0,0.0,0.0,0.0,0.0,-2.5648,-2.5638,-2.5576,0.0,0.0,0.0,0.0,0.0,-2.7421,-3.0114,-3.2593,-3.1083,-3.2351,-3.3846,0.0,0.0,0.0,0.0,0.0,0.0,0.0,0.0,-4.1585,-4.7682,-4.9894,-5.2299,-5.6415,-5.7588,-5.8261,-5.8877,-5.9915,-6.0377,-5.98,-6.0377,-6.08,-6.08,-6.08,-6.08,-6.08,-6.08,-6.08,-6.08,-6.08,-6.08,-6.08,-6.08,-6.08,-6.08,-6.08,-6.08,-6.08,-6.08,-6.08,-6.08,-6.08,-6.08,-6.08,-6.08,-6.08,-6.08,-6.08,-6.08,-6.08,-6.08,-6.08,-6.08,0.0,0.0,0.0,0.0,0.0,0.0,0.0,0.0,0.0,0.0,0.0,0.0,0.0,0.0,0.0,0.0,0.0,0.0,0.0,0.0,-2.0658,-2.1466,-2.1696,-2.1908,-2.21,-2.3265,-2.4411,-2.5479,-2.5537,-2.6034,-2.6954,-2.6109,-2.57,-2.5694,-2.5701,-2.5703,-2.5703,-2.5703,-2.5703,-2.5703,0.0,0.0,0.0,0.0,0.0,0.0,0.0,0.0,0.0,0.0,0.0,0.0,0.0,0.0,0.0,-2.5868,-2.7062,-2.8287,-2.7826,-2.9979,-3.2517,-3.3121,-3.4918,0.0,0.0,0.0,0.0,0.0,0.0,0.0,0.0,-4.1989,-4.6451,-5.3106,-5.4318,-5.5415,-5.8357,-5.803,-5.8204,-6.0165,-5.9685,-5.9877,-6.1627,-6.1185,-6.08,-6.08,-6.08,-6.08,-6.08,-6.08,-6.08,-6.08,-6.08,-6.08,-6.08,-6.08,-6.08,-6.08,-6.08,-6.08,-6.08,-6.08,-6.08,-6.08,-6.08,-6.08,-6.08,-6.08,-6.08,-6.08,-6.08,-6.08,-6.08,-6.08,-6.08,-6.08,0.0,0.0,0.0,0.0,0.0,0.0,0.0,0.0,0.0,0.0,0.0,0.0,0.0,0.0,0.0,0.0,0.0,0.0,0.0,0.0,-2.0658,-2.1466,-2.2274,-2.309,-2.3898,-2.3244,-2.3719,-2.5403,-2.5406,-2.5935,-2.6895,-2.6078,-2.5697,-2.5703,-2.5696,-2.5698,-2.5703,-2.5703,-2.5703,-2.5703,-2.5703,0.0,0.0,0.0,0.0,0.0,0.0,0.0,0.0,0.0,0.0,0.0,0.0,0.0,-2.6698,-2.6701,-2.7906,-2.9377,-3.0124,-3.2135,-3.4045,-3.4097,-3.3122,0.0,-3.9065,-3.843,0.0,-4.1816,0.0,0.0,0.0,-4.549,-4.8971,-5.2683,-5.5895,-5.9377,-6.3474,-6.3301,-6.282,-6.3012,-6.232,-6.157,-6.0954,-6.0839,-6.08,-6.08,-6.08,-6.08,-6.08,-6.08,-6.08,-6.08,-6.08,-6.08,-6.08,-6.08,-6.08,-6.08,-6.08,-6.08,-6.08,-6.08,-6.08,-6.08,-6.08,-6.08,-6.08,-6.08,-6.08,-6.08,-6.08,-6.08,-6.08,-6.08,-6.08,-6.08,0.0,0.0,0.0,0.0,0.0,0.0,0.0,0.0,0.0,0.0,0.0,0.0,0.0,0.0,0.0,0.0,0.0,0.0,0.0,0.0,-2.0908,-2.2254,-2.262,-2.3447,-2.4812,-2.4076,-2.4508,-2.6215,-2.6294,-2.6279,-2.6156,-2.5844,-2.5691,-2.5697,-2.57,-2.5699,-2.5697,-2.5703,-2.5703,-2.5703,-2.57,-2.5697,0.0,0.0,0.0,0.0,0.0,0.0,0.0,0.0,-2.5466,-2.5438,-2.5397,-2.5677,-2.6092,-2.6643,-2.7621,-2.863,-2.8887,-3.153,-3.4199,-3.4193,-3.4507,0.0,0.0,-4.297,-4.3662,-4.5778,-4.7471,0.0,0.0,0.0,-5.3241,-5.453,-5.8069,-6.1396,-6.3512,-6.3512,-6.3108,-6.2608,-6.2281,-6.1762,-6.0877,-6.08,-6.08,-6.08,-6.08,-6.08,-6.08,-6.08,-6.08,-6.08,-6.08,-6.08,-6.08,-6.08,-6.08,-6.08,-6.08,-6.08,-6.08,-6.08,-6.08,-6.08,-6.08,-6.08,-6.08,-6.08,-6.08,-6.08,-6.08,-6.08,-6.08,-6.08,-6.08,-6.08,0.0,0.0,0.0,0.0,0.0,0.0,0.0,0.0,0.0,0.0,0.0,0.0,0.0,0.0,0.0,0.0,0.0,0.0,0.0,-2.0312,-2.0927,-2.2331,-2.2389,-2.3178,-2.4889,-2.4184,-2.4613,-2.63,-2.6432,-2.6217,-2.5671,-2.5683,-2.5707,-2.5707,-2.5699,-2.5853,-2.6097,-2.5816,-2.5858,-2.6093,-2.5814,-2.5683,0.0,0.0,0.0,0.0,0.0,0.0,0.0,0.0,-2.5409,-2.5398,-2.5376,-2.582,-2.6427,-2.7001,-2.8167,-2.9251,-2.9201,-3.1256,-3.3609,0.0,0.0,0.0,-4.4509,-4.6413,-4.774,-5.0721,-5.1856,-5.2049,-5.1164,0.0,-5.5164,-5.5972,-5.9473,-6.2377,-6.3185,-6.3089,-6.2724,-6.2166,-6.1858,-6.1454,-6.0858,-6.08,-6.08,-6.08,-6.08,-6.08,-6.08,-6.08,-6.08,-6.08,-6.08,-6.0666,-6.0396,-6.0666,-6.0666,-6.0396,-6.0666,-6.08,-6.08,-6.08,-6.08,-6.08,-6.08,-6.08,-6.08,-6.08,-6.08,-6.08,-6.08,-6.08,-6.08,-6.08,-6.08,-6.08,0.0,0.0,0.0,0.0,0.0,0.0,0.0,0.0,0.0,0.0,0.0,0.0,0.0,0.0,0.0,0.0,0.0,0.0,0.0,-2.0312,-2.0658,-2.1466,-2.1504,-2.2312,-2.4052,-2.3338,-2.3724,-2.5395,-2.5535,-2.56,-2.56,-2.5671,-2.5707,-2.5707,-2.5707,-2.6173,-2.693,-2.6076,-2.62,-2.6911,-2.6051,-2.5668,-2.5613,0.0,0.0,0.0,0.0,0.0,0.0,0.0,-2.5397,-2.539,-2.5322,-2.6581,-2.8074,-2.802,-2.9786,-3.1782,-3.1782,-3.1763,-3.2333,0.0,0.0,0.0,-4.7471,-4.8125,-4.9086,-5.6742,-5.5607,-5.351,-5.4357,-5.3837,-5.4087,-5.6569,-5.9858,-6.2358,-6.3166,-6.2589,-6.2089,-6.2089,-6.132,-6.08,-6.08,-6.08,-6.08,-6.08,-6.08,-6.08,-6.08,-6.0781,-6.0781,-6.0781,-6.0781,-6.0358,-5.9492,-6.0339,-6.0339,-5.9492,-6.0358,-6.0781,-6.08,-6.08,-6.08,-6.08,-6.08,-6.08,-6.0781,-6.0781,-6.0781,-6.08,-6.08,-6.08,-6.08,-6.08,-6.08,-6.08,0.0,0.0,0.0,0.0,0.0,0.0,0.0,0.0,0.0,0.0,0.0,0.0,0.0,0.0,0.0,0.0,0.0,0.0,0.0,-2.0312,-2.0658,-2.1466,-2.1504,-2.2312,-2.4052,-2.4475,-2.4645,-2.4622,-2.5274,-2.5629,-2.5668,-2.5687,-2.5707,-2.5707,-2.5707,-2.5844,-2.6074,-2.5753,-2.579,-2.6033,-2.6348,-2.6463,-2.6442,0.0,0.0,0.0,0.0,0.0,0.0,0.0,0.0,0.0,-2.5357,-2.6178,-2.7229,-2.7832,-2.8936,-3.0086,-3.0667,-3.2551,0.0,-3.6007,0.0,0.0,0.0,-4.9452,0.0,0.0,-5.7011,-5.5761,-5.5415,-5.6607,-5.728,-5.6242,-5.8954,-6.1262,-6.1512,-6.1339,-6.1185,-6.1185,-6.0954,-6.08,-6.08,-6.08,-6.08,-6.08,-6.08,-6.08,-6.08,-6.0223,-5.9896,-5.9896,-5.9896,-5.9492,-5.8665,-5.9473,-5.9473,-5.8665,-5.9492,-6.0204,-6.08,-6.08,-6.08,-6.08,-6.08,-6.0454,-5.9896,-5.9896,-6.0242,-6.08,-6.08,-6.08,-6.08,-6.08,-6.08,-6.08,0.0,0.0,0.0,0.0,0.0,0.0,0.0,0.0,0.0,0.0,0.0,0.0,0.0,0.0,0.0,0.0,0.0,0.0,0.0,0.0,-2.0658,-2.1466,-2.1504,-2.2329,-2.4105,-2.5023,-2.5253,-2.483,-2.5333,-2.5625,-2.5696,-2.5694,-2.5878,-2.6162,-2.5818,-2.6022,-2.6602,-2.5873,-2.5971,-2.6605,-2.6747,-2.6982,-2.7287,0.0,0.0,0.0,0.0,0.0,0.0,0.0,0.0,0.0,-2.5901,0.0,-2.693,-2.8087,-2.9019,-3.0079,-3.1936,-3.3916,0.0,-3.9008,-4.2931,-4.7259,-5.1683,0.0,0.0,0.0,-5.8838,-5.7934,-5.7761,-5.8434,-5.8627,-5.7415,-5.9223,-6.08,-6.08,-6.08,-6.08,-6.08,-6.08,-6.08,-6.08,-6.08,-6.0666,-6.03,-6.0281,-6.0146,-5.9819,-5.9319,-5.9031,-5.9031,-5.9031,-5.8627,-5.778,-5.8607,-5.8607,-5.778,-5.8627,-5.93,-5.9819,-6.0146,-6.0281,-6.0262,-5.9954,-5.9511,-5.905,-5.9377,-5.9819,-6.0319,-6.0666,-6.08,-6.08,-6.08,-6.08,-6.08,0.0,0.0,0.0,0.0,0.0,0.0,0.0,0.0,0.0,0.0,0.0,0.0,0.0,0.0,0.0,0.0,0.0,0.0,0.0,0.0,-2.0735,-2.1466,-2.1666,-2.257,-2.4295,-2.5152,-2.5648,-2.5722,-2.5644,-2.5648,-2.5707,-2.5697,-2.6122,-2.6876,0.0,-2.6617,-2.8008,-2.6401,-2.6636,-2.8035,-2.7304,-2.7454,-2.8113,-2.816,0.0,0.0,0.0,0.0,0.0,0.0,0.0,0.0,-2.6691,-2.6683,-2.6985,-2.8538,-2.966,-3.1129,-3.4468,-3.5565,0.0,-4.2951,-4.6124,0.0,-5.478,-5.8511,-6.0973,-6.1608,0.0,-5.9954,-6.0666,-5.955,-5.8781,-5.9492,-6.0281,-6.08,-6.08,-6.08,-6.08,-6.08,-6.08,-6.08,-6.08,-6.0723,-6.0339,-5.9569,-5.9435,-5.9069,-5.8338,-5.8223,-5.8184,-5.8184,-5.8184,-5.7761,-5.6876,-5.7742,-5.7742,-5.6876,-5.7761,-5.8184,-5.8204,-5.9031,-5.9396,-5.9358,-5.8531,-5.8223,-5.8357,-5.8992,-5.9319,-5.9473,-6.0339,-6.0685,-6.0685,-6.0762,-6.08,-6.08,0.0,0.0,0.0,0.0,0.0,0.0,0.0,0.0,0.0,0.0,0.0,0.0,0.0,0.0,0.0,0.0,0.0,0.0,0.0,0.0,-2.1331,-2.1485,-2.286,-2.4148,-2.5273,-2.5503,-2.5956,-2.6696,-2.6013,-2.5683,0.0,0.0,0.0,-2.6883,0.0,-2.7168,-2.8081,-2.7647,-2.7686,-2.8062,-2.8454,-2.8713,-2.8876,-2.8877,-2.8876,0.0,0.0,0.0,0.0,0.0,0.0,0.0,-2.6622,-2.6622,-2.6824,-2.7862,-2.9217,-3.1006,-3.3737,-3.593,0.0,0.0,-5.0106,-5.5491,-5.8088,-5.9781,-6.0473,-5.9358,-6.0416,-6.1377,-6.0877,-6.0512,-6.0319,-6.0492,-6.0685,-6.08,-6.08,-6.08,-6.08,-6.08,-6.08,-6.08,-6.08,-6.0185,-5.9704,-5.9511,-5.8915,-5.8492,-5.8319,-5.7646,-5.728,-5.728,-5.728,-5.6857,-5.5992,-5.6838,-5.6838,-5.5992,-5.6857,-5.728,-5.73,-5.8165,-5.8569,-5.8511,-5.7646,-5.7665,-5.8261,-5.7742,-5.7934,-5.8646,-5.9454,-5.9781,-5.9858,-6.055,-6.08,-6.08,0.0,0.0,0.0,0.0,0.0,0.0,0.0,0.0,0.0,0.0,0.0,0.0,0.0,0.0,0.0,0.0,0.0,0.0,0.0,0.0,0.0,-2.2744,-2.4092,-2.5059,-2.5537,-2.5546,-2.579,-2.6287,-2.5827,0.0,0.0,0.0,0.0,-2.7427,0.0,-2.7865,-2.856,-2.8126,-2.8164,-2.856,-2.8951,-2.9352,-2.9717,-2.9717,-2.9717,-2.9602,-2.8775,0.0,0.0,0.0,0.0,0.0,0.0,0.0,-2.7467,-2.8736,-2.9429,-3.0602,-3.4372,0.0,0.0,-4.7451,0.0,-5.7338,-5.8627,-5.9281,-5.9358,-5.8492,-5.9665,-6.0839,-6.08,-6.0454,-6.03,-6.0723,-6.0454,-6.0319,-6.0742,-6.0435,-6.0319,-6.0742,-6.0435,-6.0339,-6.0762,-5.9665,-5.8934,-5.8934,-5.8146,-5.7492,-5.7088,-5.6607,-5.6376,-5.6376,-5.6376,-5.6145,-5.5703,-5.6145,-5.6145,-5.5703,-5.6145,-5.6376,-5.6395,-5.728,-5.7453,-5.703,-5.6569,-5.6626,-5.7049,-5.7011,-5.7511,-5.8377,-5.9184,-5.9742,-6.0185,-6.0627,-6.08,-6.08,0.0,0.0,0.0,0.0,0.0,0.0,0.0,0.0,0.0,0.0,0.0,0.0,0.0,0.0,0.0,0.0,0.0,0.0,0.0,0.0,0.0,0.0,-2.5108,-2.557,-2.5718,-2.5583,-2.5564,-2.5718,0.0,0.0,0.0,0.0,0.0,-2.821,0.0,-2.8618,-2.9275,-2.8602,-2.8717,-2.9313,-2.9313,-2.9679,-3.0198,-3.034,-3.0206,-2.989,-2.9313,-2.9563,-2.9979,-2.8637,0.0,0.0,0.0,0.0,-2.8198,-2.9737,-2.9775,-3.0333,-3.5007,0.0,-4.2335,-5.051,-5.4684,0.0,-5.7684,-5.8088,-5.83,-5.83,-5.8838,-5.9511,-6.0242,-5.9781,-5.9531,-6.0242,-5.9762,-5.9531,-6.0262,-5.9742,-5.9569,-6.0281,-5.9723,-5.9588,-6.03,-5.8973,-5.8088,-5.8088,-5.7261,-5.6453,-5.5742,-5.5703,-5.5645,-5.5491,-5.5491,-5.5415,-5.5261,-5.5415,-5.5491,-5.5491,-5.5626,-5.5703,-5.5722,-5.6434,-5.6376,-5.5703,-5.5703,-5.5703,-5.5761,-5.6472,-5.7203,-5.7953,-5.8915,-5.9723,-6.0396,-6.0685,-6.08,-6.08,0.0,0.0,0.0,0.0,0.0,0.0,0.0,0.0,0.0,0.0,0.0,0.0,0.0,0.0,0.0,0.0,0.0,0.0,0.0,0.0,0.0,-2.5194,-2.5356,-2.5788,-2.6598,-2.5886,-2.5867,0.0,0.0,0.0,0.0,0.0,0.0,-2.9041,0.0,0.0,-3.0217,-3.0121,-3.014,-3.0237,-3.0237,-2.9833,-2.9352,-3.0121,-2.9506,-2.8313,-2.889,-2.9159,-2.9248,-2.9028,-2.9028,0.0,0.0,0.0,-2.8082,-2.9006,-2.9737,-3.0871,0.0,0.0,-4.5586,0.0,-5.2914,-5.5895,0.0,0.0,-5.83,-5.83,-5.8396,-5.8511,-5.8607,-5.855,-5.8511,-5.8607,-5.855,-5.8511,-5.8627,-5.8531,-5.8511,-5.8627,-5.8531,-5.8511,-5.8627,-5.7742,-5.7165,-5.7165,-5.6357,-5.5818,-5.5703,-5.5703,-5.5376,-5.4684,-5.4664,-5.4299,-5.3549,-5.428,-5.4664,-5.4664,-5.5376,-5.5703,-5.5703,-5.5818,-5.5799,-5.5703,-5.5703,-5.5703,-5.5703,-5.5818,-5.5934,-5.6203,-5.7838,-5.8531,-5.8819,-6.0262,-6.08,-6.08,0.0,0.0,0.0,0.0,0.0,0.0,0.0,0.0,0.0,0.0,0.0,0.0,0.0,0.0,0.0,0.0,0.0,0.0,0.0,0.0,0.0,-2.5387,-2.5387,-2.5584,-2.6016,-2.5596,-2.5804,0.0,0.0,0.0,0.0,-2.8743,-2.9187,0.0,0.0,0.0,0.0,-3.0398,-3.0398,-3.0398,-3.0398,-3.0467,-3.0544,-3.0448,-3.0256,-2.9948,-2.9313,-2.941,-2.9679,-2.8736,-2.9044,-2.9737,-2.9256,0.0,0.0,0.0,-3.0102,-3.1275,-3.5257,-3.9815,-4.4316,0.0,-5.0798,-5.301,-5.3472,-5.4914,-5.603,-5.5549,-5.5838,-5.6607,-5.805,-5.7896,-5.7723,-5.8223,-5.7896,-5.7742,-5.8223,-5.7877,-5.7742,-5.8242,-5.7877,-5.7761,-5.8261,-5.7069,-5.6472,-5.6953,-5.6184,-5.5491,-5.5049,-5.503,-5.4645,-5.3799,-5.378,-5.3587,-5.3203,-5.3587,-5.401,-5.4491,-5.4357,-5.4568,-5.503,-5.503,-5.5261,-5.5703,-5.5703,-5.5703,-5.5703,-5.5703,-5.5992,-5.6492,-5.7261,-5.7877,-5.8396,-5.9127,-5.9685,-6.0069,0.0,0.0,0.0,0.0,0.0,0.0,0.0,0.0,0.0,0.0,0.0,0.0,0.0,0.0,0.0,0.0,0.0,0.0,0.0,0.0,0.0,-2.5374,-2.5374,-2.5374,-2.5374,-2.5322,0.0,0.0,0.0,0.0,-2.9429,-3.0102,-3.0629,0.0,-3.0833,0.0,0.0,0.0,0.0,0.0,-3.0641,-3.0987,-3.1371,-3.1371,-3.1506,-3.1525,-3.0237,-3.0179,-3.0467,-2.8775,-2.9179,-3.0294,-2.964,-2.989,0.0,0.0,0.0,-3.1333,0.0,0.0,-4.1162,-4.5163,-4.7798,-4.9663,0.0,0.0,-5.3645,-5.301,-5.3568,-5.4741,-5.6646,-5.6646,-5.6569,-5.7223,-5.678,-5.6588,-5.7242,-5.6761,-5.6607,-5.7261,-5.6761,-5.653,-5.6953,-5.603,-5.5665,-5.6319,-5.5761,-5.5126,-5.453,-5.428,-5.378,-5.2895,-5.2876,-5.2779,-5.2568,-5.2779,-5.3318,-5.4164,-5.351,-5.3549,-5.4184,-5.4395,-5.4703,-5.5088,-5.5511,-5.5703,-5.5703,-5.5703,-5.6069,-5.6684,-5.6896,-5.7396,-5.7992,-5.8223,-5.8684,-5.9204,0.0,0.0,0.0,0.0,0.0,0.0,0.0,0.0,0.0,0.0,0.0,0.0,0.0,0.0,0.0,-2.287,0.0,0.0,0.0,0.0,0.0,-2.5313,-2.5313,0.0,-2.5313,-2.5313,0.0,0.0,0.0,0.0,-3.0321,-3.0379,-3.1256,-3.2737,-3.1968,-3.1179,-3.0398,0.0,0.0,0.0,0.0,-3.116,-3.0737,-3.3103,-3.3045,-3.1698,-3.1602,-3.1583,-3.1371,-2.9621,-2.964,-3.0379,-3.034,-3.0359,-3.0398,0.0,0.0,0.0,0.0,-3.4468,0.0,-4.0046,-4.3393,-4.6278,0.0,0.0,-5.2029,-5.1991,-5.2664,-5.3318,-5.3453,-5.4107,-5.4645,-5.4684,-5.4664,-5.4645,-5.4684,-5.4664,-5.4645,-5.4684,-5.4664,-5.4318,-5.3549,-5.4126,-5.4587,-5.4626,-5.4587,-5.453,-5.4491,-5.3722,-5.2876,-5.201,-5.1972,-5.1606,-5.0837,-5.1587,-5.2414,-5.328,-5.3222,-5.3222,-5.3299,-5.4126,-5.4068,-5.3414,-5.5011,-5.5703,-5.5703,-5.5703,-5.5722,-5.5838,-5.6665,-5.703,-5.7165,-5.7992,-5.8338,-5.8357,0.0,0.0,0.0,0.0,0.0,0.0,0.0,0.0,0.0,0.0,0.0,0.0,0.0,-2.3725,-2.3975,-2.3667,-2.3629,0.0,0.0,0.0,0.0,-2.5303,-2.5303,-2.5553,-2.612,0.0,0.0,0.0,0.0,-2.9256,-3.0398,-3.0968,-3.1256,-3.1275,-3.0987,-3.1006,-3.1198,-3.0641,0.0,0.0,0.0,0.0,0.0,-3.3853,-3.4507,-3.4776,-3.368,-3.3295,-3.3199,-3.2583,-3.1872,-3.1237,-3.1237,-3.0852,-3.0398,-3.0398,-3.0398,-3.0775,0.0,0.0,0.0,-3.7353,-4.0623,-4.3316,-4.3932,-4.7298,-4.999,-4.8913,-4.9798,-5.076,-5.076,-5.2356,-5.3664,-5.3664,-5.3664,-5.3664,-5.3664,-5.3664,-5.3664,-5.3664,-5.3664,-5.3549,-5.3241,-5.3491,-5.3664,-5.3664,-5.3664,-5.3203,-5.2106,-5.226,-5.1471,-4.9529,-5.001,-4.9894,-4.9048,-4.9317,-5.0183,-5.1587,-5.1029,-5.1318,-5.2395,-5.2702,-5.2664,-5.2472,-5.4184,-5.4934,-5.4972,-5.5491,-5.5703,-5.5722,-5.603,-5.6165,-5.6203,-5.6511,-5.6992,-5.7473,0.0,0.0,0.0,0.0,0.0,0.0,0.0,0.0,0.0,0.0,0.0,0.0,0.0,0.0,-2.4505,-2.4505,-2.4505,-2.4736,-2.5264,-2.5572,-2.5736,-2.5736,-2.6024,-2.6447,-2.7024,0.0,0.0,0.0,0.0,0.0,0.0,-3.0987,-3.1121,-3.0833,-3.0533,-3.0717,0.0,0.0,0.0,-3.0987,0.0,0.0,-3.4334,-3.5468,-3.6238,-3.6603,-3.5776,-3.5295,-3.5007,-3.4737,-3.3891,-3.2872,-3.2295,-3.1333,-3.0398,-3.0398,-3.0398,-3.0629,-3.1756,0.0,0.0,0.0,-3.7565,-3.9546,-4.07,-4.4008,-4.6682,-4.6144,-4.7375,-4.8644,-4.8913,-5.0356,-5.1587,-5.1875,-5.1914,-5.1914,-5.1914,-5.1914,-5.1914,-5.1914,-5.1914,-5.1818,-5.1529,-5.2029,-5.2356,-5.2356,-5.2356,-5.1875,-5.076,-5.0644,-4.9856,-4.8144,-4.8663,-4.8682,-4.8105,-4.8105,-4.8682,-4.9817,-4.9529,-4.9971,-5.1087,-5.1645,-5.176,-5.1587,-5.3318,-5.4222,-5.4549,-5.5376,-5.5703,-5.5703,-5.5703,-5.5703,-5.5703,-5.5703,-5.6069,-5.6549,0.0,0.0,0.0,0.0,0.0,0.0,0.0,0.0,0.0,0.0,0.0,0.0,0.0,0.0,0.0,-2.538,-2.538,-2.538,-2.538,-2.6178,-2.664,-2.664,0.0,0.0,0.0,0.0,0.0,0.0,0.0,0.0,0.0,0.0,-3.0852,-3.1621,-3.0794,-3.0398,-3.0398,0.0,-3.0929,-3.1852,0.0,-3.4257,-3.4641,-3.8007,-3.8277,-3.6969,-3.7777,-3.7526,-3.6699,-3.5911,-3.5584,-3.5199,-3.3449,-3.1775,-3.0456,-3.0456,-3.0456,-3.0456,0.0,0.0,0.0,0.0,0.0,-3.5045,-3.8354,-4.0489,-4.222,-4.3816,-4.5566,-4.7028,-4.7836,-4.799,-4.8279,-4.9144,-4.9336,-4.9356,-4.9356,-4.9356,-4.9356,-4.9356,-4.9356,-4.9029,-4.8182,-4.9625,-5.0606,-5.0606,-5.0606,-5.0606,-5.0587,-4.8952,-4.8048,-4.8067,-4.8048,-4.8029,-4.8029,-4.8029,-4.8048,-4.8067,-4.8913,-4.9356,-4.9452,-5.1087,-5.1414,-5.0779,-5.2452,-5.3645,-5.4491,-5.5318,-5.5684,-5.5703,-5.5703,-5.5703,-5.5703,-5.5703,-5.5703,-5.5703,0.0,0.0,0.0,0.0,0.0,0.0,0.0,0.0,0.0,0.0,0.0,0.0,0.0,0.0,-2.7178,-2.7178,-2.7178,-2.7178,-2.7178,-2.7409,-2.7544,-2.7544,-2.7775,-2.8159,0.0,0.0,0.0,0.0,0.0,0.0,0.0,0.0,0.0,0.0,-3.0513,-3.0398,-3.0436,-3.1083,0.0,-3.1948,-3.4853,-3.6007,-3.6257,-3.845,-3.9758,-4.0335,-3.995,-3.9642,-3.9411,-3.9181,-3.7507,-3.5199,-3.3449,-3.2583,-3.2218,-3.2218,-3.2218,-3.2218,-3.2218,0.0,0.0,0.0,0.0,0.0,-3.4603,-3.7873,-4.0835,-4.07,-4.2527,-4.4393,-4.5201,-4.5355,-4.5643,-4.6509,-4.7663,-4.8471,-4.8471,-4.8471,-4.8471,-4.8471,-4.8471,-4.8355,-4.8125,-4.8548,-4.8817,-4.8817,-4.8817,-4.8567,-4.799,-4.6894,-4.6586,-4.7221,-4.6624,-4.6278,-4.6278,-4.6278,-4.6605,-4.724,-4.749,-4.824,-4.9413,-4.9875,-5.0317,-5.076,-5.1818,-5.2414,-5.2741,-5.4222,-5.5164,-5.5703,-5.5703,-5.5703,-5.5703,-5.5703,-5.5703,-5.5703,0.0,0.0,0.0,0.0,0.0,0.0,0.0,0.0,0.0,0.0,0.0,0.0,0.0,0.0,0.0,-2.789,-2.789,-2.789,-2.789,-2.8198,-2.839,-2.839,-2.8756,-2.9159,-2.9621,0.0,0.0,0.0,0.0,0.0,0.0,0.0,0.0,0.0,0.0,0.0,0.0,0.0,0.0,0.0,-3.5488,-3.693,-3.7469,-3.9546,-4.0719,-4.1296,-4.1508,-4.1354,-4.1046,-4.1046,-3.8796,-3.5834,-3.4814,-3.3757,-3.2891,-3.2891,-3.2891,0.0,0.0,0.0,0.0,-3.2641,0.0,0.0,-3.4276,-3.6526,-3.8681,-3.9604,-4.1277,-4.2816,-4.3643,-4.3797,-4.397,-4.447,-4.5374,-4.6259,-4.6951,-4.7067,-4.7067,-4.7067,-4.7067,-4.7067,-4.7067,-4.7394,-4.7605,-4.7605,-4.7605,-4.724,-4.6394,-4.5874,-4.5817,-4.6336,-4.5855,-4.5586,-4.5586,-4.5586,-4.5855,-4.6355,-4.674,-4.7586,-4.8856,-4.8856,-4.9529,-5.0702,-5.0818,-5.126,-5.1991,-5.301,-5.4126,-5.5203,-5.5203,-5.5395,-5.5703,-5.5703,-5.5703,-5.5703,0.0,0.0,0.0,-2.2793,-2.3024,-2.337,-2.4245,0.0,0.0,0.0,0.0,0.0,0.0,0.0,0.0,0.0,-2.8179,-2.8179,-2.8179,-2.8852,-2.9236,-2.9236,-2.9987,-3.0436,-3.0533,-3.0436,0.0,0.0,0.0,0.0,0.0,0.0,0.0,0.0,0.0,0.0,0.0,0.0,0.0,-3.3391,-3.5757,-3.7276,-3.8392,-4.0758,-4.1354,-4.1123,-4.2681,-4.2739,-4.2027,-4.1758,-3.9642,-3.7065,-3.6796,-3.5218,-3.343,-3.3237,-3.3256,0.0,0.0,0.0,0.0,-3.4007,-3.3083,0.0,-3.5507,-3.5815,-3.6295,-3.9084,-4.0431,-4.1373,-4.2239,-4.2393,-4.2412,-4.2527,-4.2681,-4.3393,-4.5086,-4.5316,-4.5355,-4.5451,-4.5374,-4.5393,-4.5566,-4.6201,-4.6663,-4.6759,-4.6759,-4.6413,-4.5624,-4.5586,-4.5586,-4.5586,-4.5586,-4.5586,-4.5586,-4.5586,-4.5586,-4.5605,-4.6394,-4.7182,-4.7971,-4.7971,-4.8856,-5.0356,-4.9586,-5.0164,-5.1625,-5.1625,-5.276,-5.4491,-5.4491,-5.4991,-5.5703,-5.5703,-5.5703,-5.5703,0.0,0.0,-2.2812,-2.3687,-2.437,-2.512,-2.5986,0.0,0.0,0.0,0.0,0.0,0.0,0.0,0.0,0.0,-2.991,-2.991,-2.991,-3.0063,-3.016,-3.016,-3.0302,-3.0737,-3.1429,-3.0756,0.0,0.0,0.0,0.0,0.0,0.0,0.0,0.0,0.0,0.0,0.0,0.0,0.0,-3.5103,-3.6238,-3.7642,-3.9161,-4.0315,-4.1912,-4.3605,-4.3932,-4.3951,-4.3508,-4.1431,-4.0296,-3.9392,-3.7353,-3.6834,-3.6738,-3.5391,-3.5449,-3.5815,-3.518,-3.4487,-3.3987,-3.416,-3.3949,0.0,-3.2833,-3.4141,-3.5295,-3.4545,-3.5641,-3.6988,-3.7796,-3.795,-3.818,-3.8873,-4.0123,-4.1604,-4.3335,-4.3585,-4.3835,-4.447,-4.397,-4.4124,-4.547,-4.5124,-4.5105,-4.5797,-4.5855,-4.5778,-4.5605,-4.5586,-4.5586,-4.5586,-4.5586,-4.5586,-4.5586,-4.5586,-4.5586,-4.5586,-4.5759,-4.6297,-4.7144,-4.7144,-4.7682,-4.8606,-4.8432,-4.8933,-4.9894,-4.9894,-5.1702,-5.4491,-5.4491,-5.4991,-5.5703,-5.5703,-5.5703,-5.5703,0.0,0.0,-2.3706,-2.4543,-2.539,-2.6101,-2.6524,0.0,0.0,0.0,0.0,0.0,0.0,0.0,0.0,0.0,0.0,0.0,0.0,-3.1429,-3.166,-3.166,-3.166,-3.1852,-3.2295,-3.1872,-3.166,0.0,0.0,0.0,0.0,0.0,0.0,0.0,0.0,0.0,0.0,0.0,-3.4699,-3.5622,-3.6853,-3.8623,-4.0585,-4.0989,-4.272,-4.4893,-4.4451,-4.4297,-4.4047,-4.2354,-4.1219,-4.0277,-3.8988,-3.8623,-3.8392,-3.7123,-3.7026,-3.718,-3.6334,-3.5488,-3.4949,-3.5353,-3.4814,0.0,0.0,-3.4257,-3.4737,-3.4295,-3.4891,-3.5608,-3.6045,-3.6103,-3.6238,-3.668,-3.8161,-3.9277,-3.9296,-4.1508,-4.3258,-4.3643,-4.3355,-4.3431,-4.4259,-4.3951,-4.3874,-4.4316,-4.472,-4.4951,-4.4951,-4.5355,-4.5586,-4.5586,-4.5182,-4.5163,-4.5586,-4.5163,-4.5163,-4.5586,-4.5586,-4.6067,-4.6894,-4.6451,-4.6932,-4.8086,-4.7682,-4.799,-4.8798,-4.9221,-5.0664,-5.2645,-5.3049,-5.3972,-5.5107,-5.5107,-5.5357,-5.5703,-2.3821,0.0,0.0,-2.5187,-2.6159,-2.6851,-2.6851,-2.7717,0.0,0.0,0.0,0.0,0.0,0.0,0.0,0.0,0.0,0.0,0.0,-3.2872,-3.3141,-3.3141,-3.2987,-3.3064,-3.3391,-3.3064,-3.266,-3.2179,0.0,0.0,0.0,0.0,0.0,0.0,0.0,0.0,0.0,0.0,0.0,-3.6103,-3.7469,-3.9238,-4.1085,-4.1258,-4.2797,-4.4816,-4.4432,-4.4297,-4.4182,-4.3374,-4.2162,-4.0912,-4.0412,-4.0027,-3.9546,-3.8354,-3.8238,-3.8257,-3.7238,-3.6488,-3.6103,-3.6584,-3.5815,-3.4988,0.0,0.0,0.0,-3.4699,-3.4641,-3.4513,-3.4513,-3.4513,-3.4513,-3.4513,-3.593,-3.6546,-3.5199,-3.8834,-4.17,-4.1854,-4.2162,-4.2431,-4.2585,-4.2758,-4.2912,-4.3085,-4.3547,-4.3893,-4.4066,-4.4739,-4.5105,-4.5105,-4.4586,-4.4643,-4.5336,-4.4816,-4.4893,-4.5586,-4.5586,-4.597,-4.6624,-4.5913,-4.6336,-4.7586,-4.6932,-4.7105,-4.7932,-4.8625,-4.951,-5.0548,-5.1529,-5.2856,-5.426,-5.4434,-5.4914,-5.5491,-2.4052,-2.4678,0.0,0.0,-2.6659,-2.7755,-2.7755,-2.9102,0.0,0.0,0.0,0.0,0.0,0.0,0.0,0.0,0.0,-3.5084,-3.5084,-3.443,-3.4045,-3.4045,-3.3314,-3.3622,-3.518,-3.3699,-3.3237,-3.391,0.0,0.0,0.0,0.0,0.0,0.0,-3.4468,0.0,0.0,0.0,-3.693,-3.7738,-3.7911,-3.8161,-3.8527,-3.9296,-4.0681,-4.2412,-4.3797,-4.4297,-4.4182,-4.3374,-4.297,-4.2412,-4.0142,-4.0392,-4.1046,-3.87,-3.9046,-3.9873,-3.8277,-3.7796,-3.7546,-3.6873,-3.7142,-3.7007,-3.4834,0.0,-3.3814,-3.2429,0.0,-3.0975,-3.0975,0.0,0.0,-3.0975,-3.2391,-3.341,-3.3218,-3.5026,-3.6642,-3.7353,-3.8796,-4.0008,-4.0719,-4.1489,-4.2277,-4.3047,-4.247,-4.2431,-4.3201,-4.3335,-4.3374,-4.3374,-4.397,-4.4355,-4.4451,-4.5124,-4.549,-4.5586,-4.5586,-4.5643,-4.574,-4.5643,-4.5701,-4.5874,-4.5778,-4.624,-4.7048,-4.7144,-4.8125,-4.9702,-5.1279,-5.2491,-5.3433,-5.4222,-5.4549,-5.4741,-2.4909,-2.5486,0.0,0.0,-2.7467,-2.8602,-2.8602,-3.0448,0.0,0.0,0.0,0.0,0.0,0.0,0.0,0.0,-3.6392,-3.6199,-3.6199,-3.5853,0.0,-3.4968,-3.4603,-3.4757,-3.5474,-3.4776,-3.4334,-3.4199,-3.4334,0.0,0.0,0.0,0.0,0.0,-3.5391,0.0,-3.7161,0.0,-3.768,-3.8046,-3.8546,-3.845,-3.82,-4.0046,-4.1797,-4.3412,-4.4624,-4.5047,-4.4932,-4.4085,-4.3489,-4.2989,-4.2393,-4.1662,-4.0931,-4.0373,-4.0008,-3.9642,-3.895,-3.8738,-3.8546,-3.768,-3.7738,-3.7334,-3.4776,-3.4199,-3.3853,-3.2641,0.0,0.0,0.0,0.0,0.0,0.0,-3.1814,-3.2564,-3.1602,-3.3353,-3.5064,-3.5911,-3.6661,-3.7603,-3.8911,-3.9835,-4.0681,-4.1527,-4.1239,-4.1431,-4.2297,-4.2835,-4.3104,-4.3104,-4.3431,-4.3835,-4.4297,-4.4662,-4.5086,-4.5586,-4.5586,-4.5586,-4.5586,-4.5586,-4.5586,-4.5586,-4.5586,-4.5797,-4.6182,-4.6701,-4.7586,-4.8779,-4.999,-5.1279,-5.2549,-5.3414,-5.4068,-5.4626,-2.614,0.0,0.0,0.0,-2.814,-2.9179,-2.941,-3.1237,0.0,0.0,0.0,0.0,-3.5218,-3.6257,-3.745,-3.8681,-3.9008,-3.895,-3.8488,-3.8007,-3.7488,-3.6911,-3.643,-3.6295,-3.6546,-3.6084,-3.5411,-3.4564,0.0,0.0,0.0,0.0,0.0,0.0,0.0,-3.6988,-3.8911,0.0,-3.8623,-3.9104,-3.9719,-3.9873,-3.9873,-4.1277,-4.2701,-4.4085,-4.4932,-4.524,-4.5143,-4.4509,-4.3912,-4.3489,-4.3855,-4.2854,-4.1623,-4.2047,-4.145,-4.0508,-3.9815,-3.9623,-3.9296,-3.7988,-3.7642,-3.7103,-3.5026,-3.4564,-3.4314,-3.343,-3.3256,0.0,0.0,0.0,-3.1487,0.0,0.0,-3.1795,-3.0571,-3.1987,-3.3391,-3.4045,-3.4507,-3.5449,-3.7161,-3.7892,-3.8584,-3.9392,-3.9681,-4.02,-4.1066,-4.1912,-4.2393,-4.2393,-4.2624,-4.3143,-4.3951,-4.4182,-4.4739,-4.5586,-4.5586,-4.5586,-4.5586,-4.5586,-4.5586,-4.5586,-4.5586,-4.5586,-4.5643,-4.6278,-4.7163,-4.8163,-4.8798,-5.0087,-5.1702,-5.2799,-5.3606,-5.4299,-2.7813,-2.7832,0.0,0.0,-2.8544,-2.9371,-3.0237,-3.1141,-3.2006,-3.2756,-3.5064,-3.6949,-3.7796,-4.1527,-4.3989,-4.4047,-4.4816,-4.4624,-4.3008,-4.1316,-4.0354,-4.0335,-3.8796,-3.8315,-3.9161,-3.7526,-3.6276,-3.5468,-3.5488,0.0,0.0,0.0,0.0,0.0,-3.6334,-3.718,-3.8104,-3.8911,-4.0181,-4.1681,-4.172,-4.2681,-4.3932,-4.2393,-4.2354,-4.3239,-4.4047,-4.4335,-4.4335,-4.4316,-4.4278,-4.4124,-4.3374,-4.3624,-4.4028,-4.3278,-4.3566,-4.3605,-4.1123,-4.045,-3.9854,-3.7353,-3.6738,-3.6526,-3.5661,-3.5468,-3.5218,-3.4334,-3.416,-3.3891,-3.3026,-3.2237,0.0,0.0,0.0,0.0,0.0,-3.0456,-3.0533,-3.0552,-3.2006,-3.368,-3.5411,-3.5622,-3.5968,-3.6757,-3.7603,-3.845,-3.9335,-4.0142,-4.0566,-4.0566,-4.1393,-4.2258,-4.3124,-4.3912,-4.4739,-4.5586,-4.5586,-4.5586,-4.5586,-4.5586,-4.5586,-4.5586,-4.5586,-4.5586,-4.5586,-4.5624,-4.6605,-4.8105,-4.8125,-4.9202,-5.0933,-5.2587,-5.3222,-5.3491,0.0,0.0,0.0,0.0,0.0,-3.0256,-3.1141,-3.2949,-3.493,-3.6873,-3.9354,-4.17,-4.3682,-4.5643,-4.7048,-4.7625,-4.6932,-4.622,-4.5663,-4.2951,-4.1354,-4.1354,-3.92,-3.8411,-3.9277,-3.8161,-3.7142,-3.6295,-3.6295,0.0,0.0,0.0,0.0,0.0,0.0,-3.7796,0.0,-3.9969,-4.1085,-4.2662,-4.2662,-4.3008,-4.3566,-4.4105,-4.4489,-4.4778,-4.5047,-4.5163,-4.5163,-4.5163,-4.4778,-4.4355,-4.4662,-4.3778,-4.2816,-4.3643,-4.3297,-4.2585,-4.2297,-4.2604,-4.2277,-3.9181,-3.8815,-3.8565,-3.6084,-3.5493,-3.543,-3.5122,-3.5064,-3.4795,-3.391,-3.3064,0.0,0.0,0.0,0.0,0.0,-3.0398,-3.0414,-3.0451,-3.1919,-3.3122,-3.3718,-3.4834,-3.5834,-3.6642,-3.6969,-3.7777,-3.9219,-3.9546,-3.995,-4.0469,-4.1354,-4.222,-4.3085,-4.3893,-4.4739,-4.5586,-4.5586,-4.5586,-4.5586,-4.5586,-4.5586,-4.5586,-4.5586,-4.5586,-4.5586,-4.5586,-4.6586,-4.8105,-4.8105,-4.9163,-5.0894,-5.2587,-5.3203,-5.3433,-2.9563,0.0,0.0,0.0,-3.0275,-3.1064,-3.1621,-3.4372,-3.7199,-3.9431,-4.22,-4.4951,-4.7509,-4.9067,-5.0029,-5.0279,-4.9875,-4.8836,-4.7028,-4.5413,-4.397,-4.2739,-4.1412,-4.0816,-4.1066,-3.9642,-3.8469,-3.7623,-3.7007,-3.6603,0.0,0.0,0.0,0.0,0.0,-3.7853,-4.0489,-4.0489,-4.1854,-4.3989,-4.3989,-4.3989,-4.4105,-4.5182,-4.522,-4.4778,-4.5374,-4.5586,-4.5586,-4.5586,-4.522,-4.4855,-4.5413,-4.447,-4.3355,-4.4451,-4.3989,-4.3143,-4.3104,-4.347,-4.3201,-4.0412,-4.0104,-3.9777,-3.7026,-3.6642,-3.6757,-3.6449,-3.6142,-3.6026,-3.6372,-3.4737,0.0,0.0,0.0,0.0,0.0,-3.0398,-3.0414,-3.0451,-3.138,-3.2249,-3.2875,-3.3397,-3.441,-3.6142,-3.5988,-3.6699,-3.8719,-3.9123,-3.9662,-4.0469,-4.1046,-4.1912,-4.3085,-4.3605,-4.4451,-4.5586,-4.5586,-4.5586,-4.5586,-4.5586,-4.5586,-4.5586,-4.5586,-4.5586,-4.5586,-4.5586,-4.6586,-4.8105,-4.8105,-4.9163,-5.0894,-5.2587,-5.3587,-5.4241,-3.0456,-3.0494,-3.0513,-3.0513,-3.1237,-3.1814,-3.1814,-3.5449,-3.8815,-4.0585,-4.3855,-4.7009,-4.9567,-5.2049,-5.3145,-5.2241,-5.3626,-5.2491,-4.7605,-4.8644,-4.8009,-4.4759,-4.5278,-4.5259,-4.4374,-4.1912,-4.02,-3.9354,-3.7661,0.0,0.0,0.0,0.0,0.0,-3.5911,0.0,-4.0489,-4.0546,-4.2508,-4.5586,-4.5586,-4.5547,-4.549,-4.5566,-4.4547,-4.3316,-4.4989,-4.5586,-4.5586,-4.5586,-4.5586,-4.5586,-4.5586,-4.5586,-4.5586,-4.5586,-4.5586,-4.524,-4.3662,-4.322,-4.2816,-4.1046,-4.0623,-4.0181,-3.8507,-3.8757,-3.9123,-3.8296,-3.7469,-3.7603,-3.995,-3.7046,-3.4814,0.0,0.0,0.0,-3.0571,-3.0417,-3.041,-3.039,-3.0487,-3.113,-3.2666,-3.1422,-3.184,-3.5084,-3.4622,-3.5315,-3.7853,-3.8738,-3.9565,-4.0469,-4.0489,-4.1335,-4.3085,-4.3104,-4.3932,-4.5586,-4.5586,-4.5586,-4.5586,-4.5586,-4.5586,-4.5586,-4.5586,-4.5586,-4.5586,-4.5586,-4.6586,-4.8105,-4.8105,-4.9183,-5.0952,-5.2606,-5.426,-5.5703,-3.1371,-3.1852,-3.2256,-3.2256,-3.2987,-3.3564,-3.3564,-3.77,-4.1893,-4.4874,-4.9317,-5.3183,-5.5742,-5.7126,-5.728,-5.5818,-5.5511,-5.4568,-5.2664,-5.1183,-4.9971,-4.9086,-4.7451,-4.6163,-4.5278,-4.3393,-4.17,-4.0181,-3.9142,0.0,-3.7988,0.0,0.0,0.0,0.0,-3.7911,-4.0527,-4.1181,-4.3066,-4.5586,-4.5586,-4.4855,-4.3874,-4.5124,-4.4547,-4.3316,-4.4989,-4.5586,-4.5586,-4.5586,-4.5586,-4.5586,-4.5586,-4.5586,-4.5586,-4.5586,-4.5586,-4.5509,-4.5066,-4.4951,-4.4547,-4.2854,-4.2431,-4.197,-4.0239,-4.0027,-4.0123,-3.9892,-3.9681,-3.9335,-3.8738,-3.7238,-3.5795,-3.4968,0.0,-3.1621,-3.141,-3.0814,-3.0414,-3.0472,-3.1515,-3.1691,-3.0243,-3.1415,-3.2372,-3.266,-3.3622,-3.5315,-3.7853,-3.7603,-3.8334,-4.0431,-4.0489,-4.1335,-4.3085,-4.3104,-4.3932,-4.5586,-4.5586,-4.5586,-4.5586,-4.5586,-4.5586,-4.5586,-4.5586,-4.5586,-4.5586,-4.5586,-4.6586,-4.8105,-4.8105,-4.9529,-5.1722,-5.2799,-5.426,-5.5703,-3.2218,-3.3199,-3.4045,-3.4045,-3.6276,-3.7834,-3.7065,-3.9392,-4.2854,-4.7394,-5.1452,-5.4761,-5.6934,-5.8896,-5.9396,-5.7703,-5.7126,-5.5857,-5.353,-5.3049,-5.2049,-5.0202,-4.9471,-4.8336,-4.6721,-4.5047,-4.3355,-4.1643,-4.0065,0.0,-3.8527,0.0,0.0,0.0,0.0,-3.8123,-4.0604,-4.22,-4.372,-4.5047,-4.5451,-4.5028,0.0,-4.524,-4.5009,-4.4316,-4.5259,-4.5586,-4.5586,-4.5586,-4.5586,-4.5586,-4.5586,-4.5586,-4.5586,-4.5586,-4.5586,-4.5586,-4.5586,-4.5586,-4.5355,-4.4432,-4.4182,-4.3739,-4.2027,-4.1643,-4.1643,-4.1643,-4.1027,-4.0662,-4.1219,-3.9104,-3.6584,-3.4526,-3.341,-3.266,-3.2275,-3.1795,-3.1534,-3.1632,-3.2058,-3.1688,-2.9931,-3.2019,-3.3128,-3.2328,-3.3149,-3.4468,-3.6299,-3.6607,-3.7564,-3.9354,-4.0854,-4.2104,-4.3085,-4.3835,-4.4662,-4.5586,-4.5586,-4.5586,-4.5586,-4.5586,-4.5586,-4.5586,-4.5586,-4.5586,-4.5586,-4.5586,-4.6586,-4.8182,-4.8933,-5.0337,-5.1972,-5.2452,-5.3703,-5.5184,-3.3237,-3.4545,-3.5661,-3.5661,-3.9777,-4.2777,-4.1797,-4.2047,-4.4201,-4.9394,-5.2472,-5.4741,-5.6203,-5.8915,-5.9992,-5.8434,-5.8204,-5.6511,-5.2664,-5.4472,-5.401,-5.0221,-5.1356,-5.0894,-4.8336,-4.6624,-4.4893,-4.3104,-4.0758,0.0,0.0,0.0,0.0,0.0,0.0,0.0,0.0,-4.3316,-4.4374,-4.4528,-4.5297,-4.5586,-4.5586,-4.5586,-4.5586,-4.5586,-4.5586,-4.5586,-4.5586,-4.5586,-4.5586,-4.5586,-4.5586,-4.5586,-4.5586,-4.5586,-4.5586,-4.5586,-4.5586,-4.5586,-4.5586,-4.5586,-4.5586,-4.522,-4.3758,-4.3431,-4.3431,-4.3431,-4.222,-4.2008,-4.4759,-4.147,-3.7526,-3.5084,-3.4776,-3.4603,-3.3833,-3.3641,-3.3537,-3.3429,-3.2791,0.0,-3.07,-3.2598,-3.3542,-3.2754,-3.2783,-3.3372,-3.4571,-3.5902,-3.7154,-3.8277,-4.1316,-4.2989,-4.3104,-4.4643,-4.549,-4.5586,-4.5586,-4.5586,-4.5586,-4.5586,-4.5586,-4.5586,-4.5586,-4.5586,-4.5586,-4.5586,-4.6586,-4.8279,-5.001,-5.1125,-5.176,-5.1875,-5.2933,-5.4357,-3.5045,-3.5834,-3.6488,-3.6488,-4.0162,-4.4162,-4.7355,-5.024,-5.2414,-5.3472,-5.703,-5.9569,-5.9858,-5.98,-5.9338,-5.8377,-5.7646,-5.6588,-5.5126,-5.5453,-5.5068,-5.3664,-5.3203,-5.1779,-4.9221,-4.7528,-4.5509,-4.3104,-4.1931,0.0,0.0,0.0,0.0,0.0,0.0,0.0,-4.272,-4.3835,-4.4701,-4.5374,-4.5528,-4.5586,-4.5586,-4.5586,-4.5586,-4.5586,-4.5586,-4.5586,-4.5586,-4.5586,-4.5586,-4.5586,-4.5586,-4.5586,-4.5586,-4.5586,-4.5586,-4.5586,-4.5586,-4.5586,-4.5586,-4.5586,-4.5586,-4.5509,-4.522,-4.5163,-4.5163,-4.5163,-4.4913,-4.447,-4.3682,-4.1623,-3.945,-3.7623,-3.793,-3.8354,-3.82,-3.7565,-3.6598,-3.5245,-3.552,-3.4424,-3.0852,-3.1543,-3.1884,-3.1079,-3.1699,-3.3335,-3.62,-3.6002,-3.712,-3.9969,-4.1335,-4.2374,-4.3085,-4.4047,-4.4893,-4.5586,-4.5586,-4.5586,-4.5586,-4.5586,-4.5586,-4.5586,-4.5586,-4.5586,-4.5586,-4.5586,-4.6586,-4.8279,-5.001,-5.0779,-5.0991,-5.1664,-5.2549,-5.353,-3.7373,-3.7777,-3.8604,-4.0335,-4.4182,-4.8163,-5.1529,-5.5299,-5.7126,-5.5357,-5.6896,-5.8146,-5.8146,-5.8954,-5.9184,-5.8377,-5.7492,-5.6626,-5.5761,-5.5703,-5.5338,-5.453,-5.3664,-5.201,-4.9452,-4.8163,-4.6067,-4.3104,-4.2239,-4.095,0.0,0.0,0.0,0.0,0.0,-4.1277,0.0,-4.3778,-4.4528,-4.497,-4.5413,-4.5586,-4.5586,-4.5586,-4.5586,-4.5605,-4.568,-4.5699,-4.5699,-4.5605,-4.5586,-4.5586,-4.5586,-4.5586,-4.5586,-4.5586,-4.5586,-4.5586,-4.5586,-4.5586,-4.5586,-4.5586,-4.5586,-4.5586,-4.5586,-4.5586,-4.5586,-4.5586,-4.5586,-4.5086,-4.3412,-4.1681,-4.0239,-3.9431,-3.8911,-3.8931,-3.9796,-3.9546,-3.9018,-3.8279,-3.7319,-3.5785,-3.3461,-3.2396,-3.169,-3.1301,-3.2076,-3.3635,-3.6043,-3.5813,-3.6704,-3.9123,-4.1739,-4.3104,-4.3104,-4.4797,-4.5624,-4.5586,-4.5586,-4.5586,-4.5586,-4.5586,-4.5586,-4.5586,-4.5586,-4.5586,-4.5663,-4.6528,-4.7644,-4.8894,-5.0202,-5.0702,-5.0798,-5.1606,-5.2491,-5.3415,-4.0046,-4.0354,-4.1412,-4.4797,-4.8913,-5.2433,-5.4453,-5.8204,-5.9819,-5.7126,-5.678,-5.6703,-5.653,-5.8146,-5.8915,-5.8107,-5.7223,-5.6415,-5.5742,-5.553,-5.5164,-5.453,-5.3491,-5.1818,-4.9452,-4.8548,-4.6547,-4.3355,-4.2508,-4.1235,-3.9586,0.0,0.0,0.0,-4.1027,-4.1816,-4.2431,-4.3739,-4.4412,-4.4643,-4.5316,-4.5586,-4.5586,-4.5586,-4.5605,-4.5643,-4.5757,-4.5808,-4.5812,-4.5696,-4.5651,-4.5624,-4.5605,-4.5586,-4.5586,-4.5586,-4.5586,-4.5586,-4.5586,-4.5586,-4.5586,-4.5586,-4.5586,-4.5586,-4.5586,-4.5586,-4.5586,-4.5586,-4.5586,-4.5086,-4.3412,-4.2258,-4.147,-4.1104,-4.0239,-4.0085,-4.1393,-4.1566,-4.1497,-4.1233,-3.9022,-3.7193,-3.6373,-3.4115,-3.2773,-3.2975,-3.3122,-3.3916,-3.5531,-3.5805,-3.6626,-3.8257,-4.1867,-4.3503,-4.2838,-4.5374,-4.6278,-4.5586,-4.5586,-4.5586,-4.5586,-4.5586,-4.5586,-4.5586,-4.5586,-4.5701,-4.6009,-4.7682,-4.8798,-4.9529,-5.0394,-5.0875,-5.1145,-5.1972,-5.2877,-5.3841,-4.3066,-4.3835,-4.4913,-4.8336,-5.2414,-5.5299,-5.5549,-5.855,-6.0685,-6.0358,-6.0319,-6.0012,-5.9223,-5.8704,-5.8069,-5.7203,-5.6319,-5.578,-5.5703,-5.5011,-5.4587,-5.4491,-5.2914,-5.1202,-4.9433,-4.8548,-4.6817,-4.4182,-4.3374,-4.2144,-4.0565,-4.0352,-4.0719,-4.1546,-4.0893,-4.1893,-4.4085,-4.422,-4.4759,-4.549,-4.5566,-4.5586,-4.5586,-4.5586,-4.568,-4.5776,-4.5796,-4.5838,-4.5881,-4.5881,-4.5815,-4.5757,-4.5624,-4.5586,-4.5586,-4.5586,-4.5586,-4.5586,-4.5586,-4.5586,-4.5586,-4.5586,-4.5586,-4.5586,-4.5586,-4.5586,-4.5586,-4.5586,-4.5586,-4.5086,-4.3412,-4.4201,-4.4624,-4.3104,-4.3989,-4.4932,-4.5086,-4.5105,-4.4564,-4.3044,-4.1254,-3.9557,-3.804,-3.6348,-3.566,-3.6464,-3.4519,-3.3993,-3.5592,-3.6439,-3.7604,-3.9223,-4.1128,-4.2078,-4.2016,-4.4472,-4.5682,-4.5586,-4.5586,-4.5586,-4.5586,-4.5586,-4.5586,-4.5586,-4.5586,-4.6047,-4.6913,-4.8586,-4.9413,-4.9663,-5.0548,-5.1395,-5.2262,-5.3128,-5.3995,-5.4882,-4.7702,-4.8144,-4.9202,-5.2587,-5.4568,-5.6395,-5.8454,-5.9915,-6.08,-6.08,-6.0339,-5.9896,-5.955,-5.8319,-5.7376,-5.703,-5.6203,-5.5703,-5.5703,-5.4953,-5.4491,-5.4491,-5.2837,-5.1356,-5.0202,-4.8817,-4.7105,-4.5066,-4.3739,-4.2502,-4.135,-4.1309,-4.1758,-4.2585,-4.272,-4.339,-4.4449,-4.4987,-4.543,-4.5776,-4.5776,-4.5776,-4.5776,-4.5776,-4.5815,-4.5873,-4.595,-4.6008,-4.6015,-4.6027,-4.5951,-4.5853,-4.5796,-4.5776,-4.5776,-4.5776,-4.5757,-4.5719,-4.5719,-4.5719,-4.5699,-4.5605,-4.5643,-4.5699,-4.5605,-4.5643,-4.5699,-4.5605,-4.5586,-4.5393,-4.472,-4.4335,-4.4201,-4.4547,-4.4316,-4.4451,-4.5451,-4.5586,-4.5336,-4.4682,-4.3104,-4.1617,-4.0496,-3.8955,-3.7996,-3.7851,-3.5987,-3.5567,-3.7166,-3.8007,-3.8988,-4.0208,-4.2256,-4.3381,-4.347,-4.4874,-4.5586,-4.5586,-4.5586,-4.5586,-4.5586,-4.5586,-4.5893,-4.6374,-4.6374,-4.7144,-4.8452,-4.9221,-4.9856,-5.0471,-5.1377,-5.1967,-5.2485,-5.3876,-5.4652,-5.5133,-5.1856,-5.2164,-5.3222,-5.6607,-5.7203,-5.8011,-6.0435,-6.08,-6.08,-6.08,-6.0031,-5.9415,-5.9165,-5.8088,-5.7165,-5.6646,-5.6049,-5.5703,-5.5703,-5.4953,-5.4395,-5.4126,-5.2702,-5.1395,-5.0337,-4.8856,-4.7394,-4.597,-4.4278,-4.3159,-4.2572,-4.2101,-4.2456,-4.3528,-4.3871,-4.4369,-4.4947,-4.5561,-4.5858,-4.5896,-4.5896,-4.5896,-4.5896,-4.5896,-4.5931,-4.5969,-4.6065,-4.6123,-4.615,-4.6152,-4.6113,-4.6009,-4.5921,-4.5896,-4.5896,-4.5896,-4.5858,-4.5843,-4.583,-4.5834,-4.5811,-4.5712,-4.5745,-4.5796,-4.5719,-4.5757,-4.5796,-4.5719,-4.568,-4.5643,-4.5643,-4.4662,-4.422,-4.5413,-4.4605,-4.4239,-4.5432,-4.5586,-4.5411,-4.4961,-4.3612,-4.2526,-4.1956,-4.0718,-3.9804,-3.9453,-3.8606,-3.8383,-3.8994,-3.9758,-4.0482,-4.1094,-4.297,-4.402,-4.4124,-4.5105,-4.5586,-4.5586,-4.5586,-4.5586,-4.5605,-4.5874,-4.6317,-4.6932,-4.7432,-4.8336,-4.9471,-4.9836,-5.0529,-5.1433,-5.21,-5.2699,-5.3325,-5.4554,-5.5248,-5.5615,-5.4991,-5.5645,-5.6722,-6.0127,-6.0742,-6.0742,-6.0781,-6.08,-6.08,-6.08,-6.0031,-5.9204,-5.8396,-5.83,-5.7588,-5.5857,-5.5703,-5.5703,-5.5703,-5.4953,-5.4126,-5.326,-5.2375,-5.1125,-4.9452,-4.8548,-4.7702,-4.6894,-4.5143,-4.4341,-4.4418,-4.2833,-4.2943,-4.4465,-4.3728,-4.4325,-4.5888,-4.5886,-4.5899,-4.5899,-4.5899,-4.5899,-4.5899,-4.5899,-4.5983,-4.6103,-4.6103,-4.618,-4.6294,-4.6292,-4.6308,-4.6246,-4.5981,-4.5899,-4.5899,-4.5899,-4.5899,-4.5901,-4.5893,-4.5911,-4.5896,-4.589,-4.5893,-4.5911,-4.5911,-4.5911,-4.5911,-4.5911,-4.5834,-4.5796,-4.5796,-4.568,-4.5566,-4.5586,-4.5566,-4.5566,-4.5586,-4.5586,-4.5018,-4.3424,-4.2466,-4.1925,-4.1905,-4.1212,-4.1074,-4.1815,-4.2762,-4.2566,-4.0857,-4.1586,-4.2009,-4.1899,-4.2748,-4.3211,-4.3209,-4.4799,-4.5586,-4.5586,-4.5586,-4.5586,-4.5624,-4.649,-4.6894,-4.699,-4.8644,-4.9471,-4.9663,-5.0529,-5.1511,-5.2473,-5.2493,-5.3627,-5.5273,-5.5293,-5.5848,-5.6598,-5.8838,-5.9184,-5.9511,-6.0608,-6.08,-6.08,-6.08,-6.08,-6.08,-6.08,-6.0031,-5.9184,-5.8396,-5.7761,-5.6953,-5.5799,-5.5703,-5.5703,-5.5703,-5.4395,-5.3491,-5.3222,-5.1837,-5.0818,-5.0298,-4.8856,-4.7971,-4.7721,-4.5413,-4.4369,-4.4492,-4.406,-4.4446,-4.5448,-4.5207,-4.5454,-4.6044,-4.604,-4.6095,-4.6173,-4.6173,-4.6173,-4.6173,-4.6173,-4.6195,-4.624,-4.624,-4.6259,-4.6289,-4.6305,-4.6308,-4.6289,-4.62,-4.6173,-4.6173,-4.6173,-4.6114,-4.603,-4.6036,-4.603,-4.6012,-4.592,-4.5978,-4.6011,-4.5933,-4.5914,-4.5929,-4.6021,-4.5957,-4.5861,-4.5866,-4.5796,-4.5738,-4.5738,-4.5643,-4.5586,-4.5586,-4.5586,-4.5411,-4.4903,-4.4575,-4.4421,-4.4421,-4.4295,-4.3852,-4.2992,-4.3308,-4.2738,-4.0906,-4.2667,-4.3481,-4.2939,-4.4177,-4.4886,-4.4972,-4.5393,-4.5586,-4.5586,-4.5586,-4.5913,-4.6509,-4.7336,-4.8048,-4.8644,-4.9278,-5.0202,-5.1337,-5.1799,-5.2531,-5.3455,-5.4139,-5.4779,-5.5371,-5.5976,-5.6354,-5.6673,-6.0685,-6.08,-6.08,-6.08,-6.08,-6.08,-6.08,-6.08,-6.0685,-6.0339,-5.9838,-5.9069,-5.7934,-5.7319,-5.6646,-5.578,-5.5703,-5.5703,-5.5703,-5.4434,-5.3549,-5.3222,-5.1875,-5.101,-5.0702,-4.9048,-4.8182,-4.8182,-4.597,-4.4935,-4.5026,-4.5163,-4.5495,-4.5968,-4.6025,-4.6103,-4.618,-4.618,-4.6229,-4.6308,-4.6308,-4.6308,-4.6308,-4.6308,-4.6308,-4.6308,-4.6308,-4.6308,-4.6308,-4.6308,-4.6308,-4.6308,-4.6308,-4.6308,-4.6308,-4.6308,-4.623,-4.6172,-4.6172,-4.6187,-4.6163,-4.6079,-4.6103,-4.6142,-4.6064,-4.6045,-4.6069,-4.6151,-4.6075,-4.5975,-4.5968,-4.5899,-4.5819,-4.5794,-4.5738,-4.5643,-4.5605,-4.5586,-4.5389,-4.4765,-4.4688,-4.4688,-4.4688,-4.4765,-4.4655,-4.4263,-4.4301,-4.384,-4.2659,-4.3547,-4.4128,-4.4224,-4.5124,-4.5624,-4.5719,-4.5624,-4.5586,-4.5586,-4.5932,-4.6528,-4.7394,-4.8221,-4.8894,-4.9433,-4.9894,-5.0717,-5.176,-5.2298,-5.3036,-5.3969,-5.4922,-5.5508,-5.5859,-5.6406,-5.6601,-5.6719,-6.0646,-6.0723,-6.0781,-6.0723,-6.0762,-6.08,-6.08,-6.0742,-6.0435,-5.9685,-5.9435,-5.8761,-5.7242,-5.6973,-5.6569,-5.5761,-5.5703,-5.5703,-5.5703,-5.4895,-5.4049,-5.3241,-5.2318,-5.1491,-5.0721,-4.9144,-4.8259,-4.8123,-4.6642,-4.5911,-4.593,-4.6051,-4.6108,-4.6121,-4.6236,-4.6308,-4.6308,-4.6308,-4.6308,-4.6308,-4.6308,-4.6308,-4.6308,-4.6308,-4.6308,-4.6308,-4.6308,-4.6308,-4.6308,-4.6308,-4.6308,-4.6308,-4.6308,-4.6308,-4.6308,-4.6308,-4.6308,-4.6308,-4.6308,-4.6308,-4.6308,-4.6308,-4.6308,-4.6308,-4.6308,-4.6308,-4.6308,-4.6308,-4.6191,-4.6113,-4.6113,-4.6011,-4.5891,-4.5827,-4.5811,-4.5757,-4.5624,-4.5605,-4.504,-4.3559,-4.338,-4.338,-4.338,-4.338,-4.394,-4.5334,-4.5432,-4.5432,-4.5432,-4.4186,-4.4166,-4.5643,-4.5682,-4.572,-4.5759,-4.5759,-4.5759,-4.5778,-4.6663,-4.7471,-4.8221,-4.9163,-4.9586,-4.9625,-5.0606,-5.1161,-5.1442,-5.226,-5.3222,-5.4258,-5.5078,-5.5898,-5.6601,-5.6601,-5.6601,-5.6738,-5.9146,-5.9915,-6.0589,-5.9915,-6.0358,-6.08,-6.08,-6.0242,-5.9973,-6.0435,-5.88,-5.7684,-5.7953,-5.6799,-5.5915,-5.5722,-5.5703,-5.5703,-5.5703,-5.4318,-5.3414,-5.3222,-5.1875,-5.1048,-5.0875,-4.9298,-4.7802,-4.646,-4.619,-4.6039,-4.6055,-4.6193,-4.6249,-4.6253,-4.6285,-4.6308,-4.6308,-4.6308,-4.6308,-4.6308,-4.6308,-4.6308,-4.6308,-4.6308,-4.6308,-4.6308,-4.6308,-4.6308,-4.6308,-4.6308,-4.6308,-4.6308,-4.6308,-4.6308,-4.6308,-4.6308,-4.6308,-4.6308,-4.6308,-4.6308,-4.6308,-4.6308,-4.6308,-4.6308,-4.6308,-4.6308,-4.6308,-4.6308,-4.6269,-4.625,-4.625,-4.6149,-4.6061,-4.6039,-4.5941,-4.5853,-4.5757,-4.5757,-4.5565,-4.5079,-4.5021,-4.5021,-4.5021,-4.5021,-4.4677,-4.3822,-4.3765,-4.3765,-4.3765,-4.4074,-4.4956,-4.6547,-4.6586,-4.6894,-4.7509,-4.7509,-4.7509,-4.7528,-4.8394,-4.8913,-4.9144,-5.0741,-5.1453,-5.1491,-5.1915,-5.2896,-5.4116,-5.3802,-5.4574,-5.5996,-5.6211,-5.6426,-5.6601,-5.6601,-5.6601,-5.6816,-5.9531,-6.0185,-6.0646,-6.0185,-6.0492,-6.0666,-6.0262,-6.0146,-5.9838,-5.9146,-5.8204,-5.7473,-5.7146,-5.6319,-5.578,-5.578,-5.5742,-5.5722,-5.578,-5.4587,-5.3741,-5.3395,-5.2203,-5.1373,-5.0995,-4.9814,-4.8368,-4.6689,-4.6341,-4.6183,-4.6192,-4.627,-4.6308,-4.6308,-4.6308,-4.6308,-4.6308,-4.6308,-4.6308,-4.6308,-4.6308,-4.6308,-4.6308,-4.6308,-4.6308,-4.6308,-4.6308,-4.6308,-4.6308,-4.6308,-4.6308,-4.6308,-4.6308,-4.6308,-4.6308,-4.6308,-4.6308,-4.6308,-4.6308,-4.6308,-4.6308,-4.6308,-4.6308,-4.6308,-4.6308,-4.6308,-4.6308,-4.6308,-4.6308,-4.6308,-4.6308,-4.623,-4.6172,-4.6113,-4.5401,-4.5084,-4.5738,-4.5182,-4.4953,-4.5605,-4.5719,-4.5738,-4.5699,-4.5719,-4.5374,-4.4493,-4.4416,-4.4607,-4.501,-4.5472,-4.6087,-4.6894,-4.7259,-4.7663,-4.8105,-4.8105,-4.8509,-4.9298,-4.976,-5.0414,-5.126,-5.2261,-5.274,-5.2806,-5.301,-5.3629,-5.4514,-5.4571,-5.5156,-5.6055,-5.6445,-5.6601,-5.6601,-5.6601,-5.6855,-5.7383,-6.0108,-6.0319,-6.0416,-6.0416,-6.0512,-6.0339,-5.9608,-6.0127,-5.9781,-5.7492,-5.7723,-5.7569,-5.6107,-5.5915,-5.5919,-5.5962,-5.5846,-5.5826,-5.5936,-5.5055,-5.4246,-5.3629,-5.2666,-5.1807,-5.1117,-5.0274,-4.9096,-4.7598,-4.6738,-4.6308,-4.6308,-4.6308,-4.6308,-4.6308,-4.6308,-4.6308,-4.6308,-4.6308,-4.6308,-4.6308,-4.6308,-4.6308,-4.6308,-4.6308,-4.6308,-4.6308,-4.6308,-4.6308,-4.6308,-4.6308,-4.6308,-4.6308,-4.6308,-4.6308,-4.6308,-4.6308,-4.6308,-4.6308,-4.6308,-4.6308,-4.6308,-4.6308,-4.6308,-4.6308,-4.6308,-4.6308,-4.6308,-4.6308,-4.6308,-4.6308,-4.6308,-4.6308,-4.6172,-4.5801,-4.4766,-4.4368,-4.5404,-4.4541,-4.4307,-4.5665,-4.5965,-4.608,-4.6031,-4.6185,-4.6282,-4.6282,-4.6282,-4.6626,-4.7356,-4.751,-4.7494,-4.7342,-4.7988,-4.8471,-4.8702,-4.8721,-4.9529,-5.1126,-5.1125,-5.1953,-5.3455,-5.3589,-5.3732,-5.3821,-5.396,-5.4097,-5.4278,-5.5001,-5.5371,-5.5566,-5.6308,-5.6601,-5.6621,-5.6758,-5.7265,-5.8047,-5.7703,-5.8184,-5.8684,-5.8684,-5.9261,-5.9665,-5.9511,-5.9608,-5.9319,-5.8242,-5.7569,-5.7184,-5.7126,-5.6395,-5.5982,-5.6214,-5.6161,-5.6121,-5.615,-5.4665,-5.3708,-5.3591,-5.2172,-5.1299,-5.1199,-4.9804,-4.8584,-4.7598,-4.6738,-4.6308,-4.6308,-4.6308,-4.6308,-4.6308,-4.6308,-4.6308,-4.6308,-4.6308,-4.6308,-4.6308,-4.6308,-4.6308,-4.6308,-4.6308,-4.6308,-4.6308,-4.6308,-4.6308,-4.6308,-4.6308,-4.6308,-4.6308,-4.6308,-4.6308,-4.6308,-4.6308,-4.6308,-4.6308,-4.6308,-4.6308,-4.6308,-4.6308,-4.6308,-4.6308,-4.6308,-4.6308,-4.6308,-4.6308,-4.6308,-4.6308,-4.6308,-4.6308,-4.5801,-4.4316,-4.5098,-4.5429,-4.4137,-4.495,-4.5733,-4.5872,-4.654,-4.6982,-4.6978,-4.767,-4.8098,-4.8098,-4.8098,-4.8156,-4.8292,-4.9002,-4.9372,-4.9352,-4.9463,-5.0144,-5.1471,-5.1587,-5.2107,-5.2993,-5.3107,-5.3299,-5.3608,-5.4438,-5.4844,-5.4875,-5.5014,-5.5492,-5.6117,-5.5546,-5.5723,-5.6406,-5.6543,-5.6601,-5.6699,-5.7422,-5.7773,-5.8125,-5.7684,-5.8377,-5.8819,-5.8377,-5.8973,-5.9204,-5.828,-5.8915,-5.8877,-5.7126,-5.7376,-5.7396,-5.6569,-5.6222,-5.6135,-5.6297,-5.6369,-5.6213,-5.5745,-5.4899,-5.4226,-5.383,-5.2641,-5.1793,-5.1317,-4.9726,-4.8691,-4.8301,-4.6953,-4.6308,-4.6308,-4.6308,-4.6308,-4.6308,-4.6308,-4.6308,-4.6308,-4.6308,-4.6308,-4.6308,-4.6308,-4.6308,-4.6308,-4.6308,-4.6308,-4.6308,-4.6308,-4.6308,-4.6308,-4.6308,-4.6308,-4.6308,-4.6308,-4.6308,-4.6308,-4.6308,-4.6308,-4.6406,-4.6875,-4.6992,-4.7109,-4.7578,-4.7695,-4.7578,-4.7109,-4.6992,-4.6992,-4.6992,-4.6621,-4.6445,-4.6914,-4.6621,-4.6035,-4.5234,-4.498,-4.4941,-4.5039,-4.4902,-4.5271,-4.655,-4.7132,-4.7573,-4.7966,-4.8448,-4.8716,-4.8716,-4.8716,-4.9118,-5.0002,-5.0449,-5.1063,-5.1925,-5.1436,-5.1707,-5.2908,-5.2953,-5.3415,-5.4202,-5.4265,-5.4583,-5.5128,-5.5593,-5.583,-5.5918,-5.5963,-5.623,-5.6562,-5.6172,-5.623,-5.664,-5.7129,-5.7305,-5.7402,-5.8281,-5.8867,-5.9355,-5.7838,-5.8338,-5.8492,-5.8069,-5.8511,-5.8492,-5.7184,-5.8415,-5.8588,-5.603,-5.7415,-5.7934,-5.6011,-5.6244,-5.6494,-5.6379,-5.6511,-5.6319,-5.5652,-5.5136,-5.4494,-5.373,-5.2851,-5.207,-5.1406,-4.9766,-4.8906,-4.8906,-4.7148,-4.6308,-4.6308,-4.6308,-4.6308,-4.6308,-4.6308,-4.6308,-4.6308,-4.6308,-4.6308,-4.6308,-4.6308,-4.6308,-4.6308,-4.6308,-4.6308,-4.6308,-4.6308,-4.6308,-4.6308,-4.6308,-4.6308,-4.6308,-4.6308,-4.6308,-4.6308,-4.6308,-4.6445,-4.6758,-4.7422,-4.7754,-4.8066,-4.873,-4.8906,-4.8711,-4.8047,-4.7891,-4.7891,-4.7891,-4.7363,-4.7109,-4.7773,-4.7187,-4.6465,-4.6055,-4.5058,-4.4707,-4.584,-4.5195,-4.5391,-4.75,-4.8027,-4.8431,-4.8987,-4.9318,-4.9473,-4.9473,-4.9668,-5.0344,-5.1635,-5.1882,-5.266,-5.4091,-5.3165,-5.3077,-5.3935,-5.3993,-5.4415,-5.5255,-5.5268,-5.5705,-5.6449,-5.6449,-5.6494,-5.6601,-5.6601,-5.6601,-5.6601,-5.6601,-5.6719,-5.6973,-5.7637,-5.8027,-5.8301,-5.916,-5.9863,-6.043,-5.6915,-5.6492,-5.6222,-5.6953,-5.7126,-5.7126,-5.7011,-5.8415,-5.8588,-5.603,-5.8033,-5.8784,-5.6417,-5.7016,-5.7305,-5.6629,-5.66,-5.656,-5.6518,-5.4976,-5.3709,-5.2832,-5.1953,-5.1465,-5.1406,-4.9766,-4.8906,-4.8906,-4.7148,-4.6308,-4.6308,-4.6308,-4.6308,-4.6308,-4.6308,-4.6308,-4.6308,-4.6308,-4.6308,-4.6308,-4.6308,-4.6308,-4.6308,-4.6308,-4.6308,-4.6308,-4.6308,-4.6308,-4.6308,-4.6308,-4.6308,-4.6308,-4.6308,-4.6308,-4.6308,-4.6308,-4.6875,-4.7519,-4.7578,-4.8183,-4.8828,-4.8887,-4.8906,-4.8887,-4.8828,-4.8808,-4.8808,-4.8808,-4.875,-4.873,-4.8789,-4.8086,-4.6973,-4.5351,-4.5664,-4.5879,-4.5195,-4.6387,-4.7676,-4.8672,-4.9512,-5.0039,-5.0075,-5.0761,-5.1211,-5.1211,-5.1953,-5.2461,-5.2597,-5.3378,-5.4237,-5.5153,-5.42,-5.411,-5.4979,-5.5114,-5.5545,-5.6289,-5.6413,-5.6502,-5.6597,-5.6597,-5.6599,-5.6601,-5.6601,-5.6601,-5.6601,-5.6601,-5.707,-5.7812,-5.7871,-5.8398,-5.9199,-6.0019,-6.0351,-6.0527,-5.6126,-5.6357,-5.6434,-5.6222,-5.678,-5.7011,-5.6299,-5.6838,-5.6953,-5.5953,-5.728,-5.805,-5.7382,-5.7054,-5.6826,-5.6611,-5.6602,-5.6133,-5.5058,-5.4375,-5.3379,-5.1953,-5.1582,-5.1406,-5.1406,-5.0293,-4.9707,-4.9707,-4.8496,-4.791,-4.7891,-4.7363,-4.7109,-4.707,-4.6543,-4.6308,-4.6308,-4.6308,-4.6308,-4.6308,-4.6308,-4.6308,-4.6308,-4.6308,-4.6308,-4.6308,-4.6308,-4.6308,-4.6308,-4.6308,-4.666,-4.7012,-4.6465,-4.7031,-4.791,-4.791,-4.8144,-4.8516,-4.9062,-4.9453,-4.9824,-5.0332,-5.0449,-5.0312,-4.9824,-4.9707,-4.9707,-4.9707,-4.9277,-4.9062,-4.9609,-4.8984,-4.8183,-4.7539,-4.7695,-4.7793,-4.7461,-4.7988,-4.873,-4.9609,-5.0,-5.0391,-5.0898,-5.1211,-5.1621,-5.2168,-5.2519,-5.3164,-5.4258,-5.5137,-5.5762,-5.6094,-5.5738,-5.5694,-5.6035,-5.6074,-5.6256,-5.6539,-5.7115,-5.7129,-5.664,-5.7715,-5.793,-5.7441,-5.7988,-5.8203,-5.8203,-5.8203,-5.8418,-5.8769,-5.9258,-5.9648,-6.0058,-6.0898,-6.1211,-6.125,-5.5703,-5.6184,-5.6395,-5.5799,-5.6338,-5.6607,-5.5876,-5.6107,-5.628,-5.6071,-5.7104,-5.7772,-5.7591,-5.714,-5.6795,-5.662,-5.6601,-5.6094,-5.4883,-5.4297,-5.3223,-5.1484,-5.1406,-5.1406,-5.1406,-5.0605,-5.0195,-5.0195,-4.9336,-4.8906,-4.8887,-4.8008,-4.7598,-4.7558,-4.6699,-4.6308,-4.6308,-4.6308,-4.6308,-4.6308,-4.6308,-4.6308,-4.6308,-4.6308,-4.6465,-4.6719,-4.6719,-4.6875,-4.7129,-4.7129,-4.7519,-4.7891,-4.7305,-4.7949,-4.8945,-4.9238,-4.9316,-4.9492,-5.0351,-5.0586,-5.0703,-5.1269,-5.1406,-5.1269,-5.0703,-5.0586,-5.0586,-5.0586,-5.0098,-4.9863,-5.0469,-4.9883,-4.9316,-4.9316,-4.9316,-4.9394,-4.9648,-4.9922,-5.0312,-5.0918,-5.0996,-5.1094,-5.1367,-5.1641,-5.2051,-5.2656,-5.3203,-5.416,-5.5625,-5.6289,-5.6601,-5.6601,-5.6601,-5.6601,-5.6601,-5.6601,-5.6601,-5.6601,-5.748,-5.7598,-5.7051,-5.8535,-5.8867,-5.834,-5.8945,-5.9199,-5.9199,-5.9199,-5.9355,-5.9629,-6.0176,-6.0566,-6.0879,-6.1484,-6.1699,-6.1699,-5.5703,-5.5703,-5.5703,-5.5703,-5.5703,-5.5742,-5.5876,-5.6626,-5.6994,-5.6379,-5.7796,-5.8291,-5.6772,-5.7363,-5.7539,-5.668,-5.6601,-5.6582,-5.6582,-5.4941,-5.3203,-5.1484,-5.1406,-5.1406,-5.1406,-5.0625,-5.0215,-5.0215,-4.9336,-4.8926,-4.8906,-4.8027,-4.7617,-4.7578,-4.6719,-4.6328,-4.6308,-4.6308,-4.6308,-4.6308,-4.6308,-4.6308,-4.6308,-4.6308,-4.6855,-4.7598,-4.7617,-4.8164,-4.8906,-4.8906,-4.8906,-4.8906,-4.8926,-4.8906,-4.9062,-4.9941,-5.0195,-5.0371,-5.1172,-5.1406,-5.1406,-5.1406,-5.1406,-5.1406,-5.1406,-5.1406,-5.1406,-5.1406,-5.1406,-5.1406,-5.1406,-5.0762,-5.0234,-5.0215,-5.0234,-5.0508,-5.1308,-5.2168,-5.2715,-5.2695,-5.2715,-5.2363,-5.1484,-5.2207,-5.2715,-5.2715,-5.4336,-5.5683,-5.6543,-5.6601,-5.6601,-5.6601,-5.6601,-5.6601,-5.6601,-5.6601,-5.6601,-5.6601,-5.748,-5.791,-5.793,-5.8828,-5.9219,-5.9219,-5.9219,-5.9219,-5.9219,-5.9219,-5.9687,-6.041,-6.041,-6.0937,-6.1699,-6.1699,-6.1699,-6.1699,-5.5703,-5.5703,-5.5703,-5.5703,-5.5818,-5.5895,-5.5895,-5.6408,-5.669,-5.6405,-5.6894,-5.7119,-5.6659,-5.6836,-5.6875,-5.6621,-5.6601,-5.6074,-5.4863,-5.3711,-5.2578,-5.1445,-5.1406,-5.1406,-5.1406,-5.1152,-5.1035,-5.1035,-5.0781,-5.0644,-5.0644,-4.9805,-4.9414,-4.9394,-4.8516,-4.7773,-4.7207,-4.7207,-4.6855,-4.6308,-4.6308,-4.6308,-4.6367,-4.6973,-4.7363,-4.7676,-4.8281,-4.8672,-4.8906,-4.8906,-4.9316,-4.9902,-5.0488,-4.9844,-4.918,-5.0625,-5.0644,-5.0371,-5.1172,-5.1406,-5.1406,-5.1406,-5.1406,-5.1406,-5.1406,-5.1406,-5.1406,-5.1406,-5.1894,-5.2129,-5.1504,-5.2207,-5.2676,-5.2051,-5.2461,-5.2949,-5.3183,-5.3457,-5.3398,-5.2773,-5.3242,-5.3262,-5.2402,-5.3105,-5.3867,-5.4473,-5.5566,-5.6328,-5.6582,-5.6601,-5.6601,-5.6601,-5.6601,-5.6601,-5.6601,-5.6601,-5.6601,-5.6621,-5.8105,-5.8496,-5.7969,-6.0019,-6.0625,-6.0078,-6.0683,-6.0957,-6.0957,-6.0957,-6.1094,-6.1308,-6.1308,-6.1465,-6.1699,-6.1699,-6.1699,-6.1699,-5.5703,-5.5703,-5.5703,-5.5703,-5.5838,-5.596,-5.5996,-5.6309,-5.6514,-5.6492,-5.6548,-5.6601,-5.6601,-5.6601,-5.6601,-5.6601,-5.6601,-5.6015,-5.4609,-5.4023,-5.3183,-5.1973,-5.1914,-5.1758,-5.1406,-5.1406,-5.1406,-5.1406,-5.1406,-5.1406,-5.1387,-5.0586,-5.0195,-5.0156,-4.9297,-4.8418,-4.7598,-4.7598,-4.7109,-4.6308,-4.6308,-4.6504,-4.6875,-4.7402,-4.8027,-4.8691,-4.9238,-4.9629,-4.9883,-4.9883,-5.0234,-5.0762,-5.125,-5.0703,-5.0098,-5.1094,-5.1055,-5.0781,-5.1269,-5.1406,-5.1406,-5.1406,-5.1406,-5.1484,-5.1836,-5.1914,-5.2012,-5.2363,-5.2851,-5.3047,-5.2539,-5.3281,-5.3828,-5.3301,-5.3945,-5.4512,-5.4512,-5.4805,-5.4707,-5.3828,-5.4199,-5.418,-5.3301,-5.4004,-5.4883,-5.5742,-5.6308,-5.6601,-5.6601,-5.6933,-5.6953,-5.6601,-5.6933,-5.7109,-5.7109,-5.7109,-5.7109,-5.7129,-5.8848,-5.9394,-5.8945,-6.084,-6.1406,-6.0937,-6.1465,-6.1699,-6.1699,-6.1699,-6.1699,-6.1699,-6.1699,-6.1699,-6.1699,-6.1699,-6.1699,-6.1699,-5.5703,-5.5703,-5.5703,-5.5703,-5.5818,-5.5982,-5.6166,-5.6323,-5.6447,-5.6577,-5.6601,-5.6601,-5.6601,-5.6601,-5.6601,-5.6601,-5.6601,-5.623,-5.5351,-5.5293,-5.4551,-5.2891,-5.2734,-5.2363,-5.1641,-5.1484,-5.1406,-5.1406,-5.1406,-5.1406,-5.1387,-5.0644,-5.0312,-5.0273,-4.9473,-4.8633,-4.7832,-4.7832,-4.7324,-4.6523,-4.6523,-4.7012,-4.7715,-4.7793,-4.8828,-5.0215,-5.0273,-5.0781,-5.1406,-5.1406,-5.1406,-5.1406,-5.1406,-5.1406,-5.1406,-5.1406,-5.1406,-5.1406,-5.1406,-5.1406,-5.1406,-5.1406,-5.1465,-5.1719,-5.2519,-5.2695,-5.2949,-5.3828,-5.4062,-5.4082,-5.4004,-5.4121,-5.4219,-5.4121,-5.4844,-5.543,-5.543,-5.6094,-5.6289,-5.539,-5.5371,-5.5078,-5.4199,-5.4902,-5.5742,-5.6543,-5.6601,-5.6621,-5.6719,-5.7461,-5.7578,-5.6855,-5.7539,-5.7949,-5.8027,-5.8027,-5.8027,-5.8047,-5.9648,-6.039,-6.043,-6.1308,-6.1699,-6.1699,-6.1699,-6.1699,-6.1699,-6.1699,-6.1699,-6.1699,-6.1699,-6.1699,-6.1699,-6.1699,-6.1699,-6.1699,-5.5703,-5.5703,-5.5703,-5.5703,-5.5955,-5.6155,-5.6185,-5.6406,-5.6579,-5.6601,-5.6601,-5.6601,-5.6601,-5.6601,-5.6601,-5.6601,-5.6601,-5.623,-5.5351,-5.5293,-5.4824,-5.3769,-5.3066,-5.293,-5.3437,-5.2109,-5.1406,-5.1406,-5.1406,-5.1406,-5.1406,-5.1211,-5.1133,-5.1133,-5.0937,-5.0391,-4.9648,-4.9648,-4.9121,-4.834,-4.834,-4.8457,-4.8691,-4.9375,-4.9863,-5.0273,-5.0918,-5.125,-5.1406,-5.1406,-5.1406,-5.1406,-5.1406,-5.1406,-5.1406,-5.1406,-5.1406,-5.1406,-5.1406,-5.1406,-5.1406,-5.1406,-5.1914,-5.2461,-5.2656,-5.2695,-5.2949,-5.3828,-5.4531,-5.4805,-5.4121,-5.5117,-5.5801,-5.5137,-5.5742,-5.6328,-5.6328,-5.6484,-5.6289,-5.539,-5.5898,-5.5976,-5.5098,-5.5801,-5.6406,-5.6582,-5.6601,-5.6894,-5.7578,-5.7793,-5.8125,-5.8613,-5.8164,-5.8223,-5.8906,-5.8926,-5.8926,-5.8926,-5.9922,-6.039,-6.043,-6.1308,-6.1699,-6.1699,-6.1699,-6.1699,-6.1699,-6.1699,-6.1699,-6.1699,-6.1699,-6.1699,-6.1699,-6.1699,-6.1699,-6.1699,-5.578,-5.5742,-5.5742,-5.5895,-5.609,-5.6212,-5.6295,-5.6478,-5.6601,-5.6601,-5.6601,-5.6601,-5.6601,-5.6601,-5.6601,-5.6601,-5.6601,-5.6406,-5.5957,-5.5918,-5.5527,-5.4668,-5.418,-5.3965,-5.4004,-5.3105,-5.2441,-5.2012,-5.1601,-5.1406,-5.1406,-5.1406,-5.1406,-5.1406,-5.1406,-5.0957,-5.0195,-5.0195,-4.9707,-4.8906,-4.8906,-4.9141,-4.957,-5.0039,-5.0449,-5.082,-5.125,-5.168,-5.2012,-5.2012,-5.2012,-5.2012,-5.2012,-5.1738,-5.1406,-5.1406,-5.1406,-5.1484,-5.1914,-5.2012,-5.2129,-5.2539,-5.2988,-5.332,-5.332,-5.3633,-5.4199,-5.5058,-5.5605,-5.5781,-5.5312,-5.5996,-5.6445,-5.5996,-5.6308,-5.6601,-5.6601,-5.6601,-5.6426,-5.5976,-5.6328,-5.6426,-5.5957,-5.6328,-5.6601,-5.6601,-5.6992,-5.7422,-5.7871,-5.8652,-5.9121,-5.9199,-5.9121,-5.9316,-5.9765,-5.9765,-5.998,-6.039,-6.082,-6.1015,-6.1035,-6.1484,-6.1699,-6.1699,-6.1699,-6.1699,-6.1699,-6.1699,-6.1699,-6.1699,-6.1699,-6.1699,-6.1699,-6.1699,-6.1699,-6.1699,-5.5876,-5.5844,-5.5885,-5.615,-5.6225,-5.6263,-5.6379,-5.6504,-5.6601,-5.6601,-5.6601,-5.6601,-5.6601,-5.6601,-5.6601,-5.6601,-5.6601,-5.6601,-5.6601,-5.6601,-5.6289,-5.5547,-5.5371,-5.5039,-5.4453,-5.4141,-5.3574,-5.2695,-5.1973,-5.1543,-5.1406,-5.1406,-5.1406,-5.1406,-5.1406,-5.1035,-5.041,-5.041,-4.998,-4.9336,-4.9336,-4.9766,-5.041,-5.041,-5.082,-5.1406,-5.1406,-5.1855,-5.25,-5.2656,-5.2695,-5.2734,-5.2871,-5.2422,-5.1816,-5.168,-5.1738,-5.1973,-5.2539,-5.2812,-5.3105,-5.3828,-5.4101,-5.4219,-5.4219,-5.4785,-5.5547,-5.6426,-5.6601,-5.6601,-5.6601,-5.6601,-5.6601,-5.6601,-5.6601,-5.6601,-5.6601,-5.6601,-5.6601,-5.6601,-5.6601,-5.6601,-5.6601,-5.6601,-5.666,-5.6816,-5.748,-5.8027,-5.8301,-5.9648,-6.0156,-5.9648,-6.0137,-6.0469,-6.0625,-6.0469,-6.084,-6.1699,-6.1699,-6.1699,-6.1699,-6.1699,-6.1699,-6.1699,-6.1699,-6.1699,-6.1699,-6.1699,-6.1699,-6.1699,-6.1699,-6.1699,-6.1699,-6.1699,-6.1699,-6.1699,-5.5895,-5.6024,-5.616,-5.6192,-5.6302,-5.6379,-5.6398,-5.6504,-5.6601,-5.6601,-5.6601,-5.6601,-5.6601,-5.6601,-5.6601,-5.6601,-5.6601,-5.6601,-5.6601,-5.6601,-5.6543,-5.6426,-5.5703,-5.5605,-5.623,-5.4765,-5.3574,-5.2695,-5.2578,-5.2148,-5.1406,-5.1406,-5.1406,-5.1406,-5.1406,-5.1348,-5.123,-5.123,-5.1172,-5.1055,-5.1055,-5.1133,-5.123,-5.123,-5.1308,-5.1406,-5.1406,-5.1484,-5.1699,-5.2441,-5.2695,-5.2832,-5.3594,-5.373,-5.3496,-5.2754,-5.3066,-5.3516,-5.2871,-5.3242,-5.3848,-5.3965,-5.457,-5.5117,-5.5117,-5.5215,-5.5547,-5.6426,-5.6601,-5.6601,-5.6601,-5.6601,-5.6601,-5.6601,-5.6601,-5.6601,-5.6601,-5.6601,-5.6601,-5.6601,-5.6601,-5.6601,-5.6601,-5.6601,-5.6914,-5.7676,-5.7832,-5.8535,-5.998,-6.0273,-6.0703,-6.1348,-6.0742,-6.0762,-6.1523,-6.0781,-6.084,-6.1699,-6.1699,-6.1699,-6.1699,-6.1699,-6.1699,-6.1699,-6.1699,-6.1699,-6.1699,-6.1699,-6.1699,-6.1699,-6.1699,-6.1699,-6.1699,-6.1699,-6.1699,-6.1699,-5.604,-5.604,-5.6121,-5.6388,-5.6424,-5.6425,-5.6503,-5.6552,-5.6601,-5.6601,-5.6601,-5.6601,-5.6601,-5.6601,-5.6601,-5.6601,-5.6601,-5.6601,-5.6601,-5.6601,-5.6601,-5.6601,-5.623,-5.6211,-5.6582,-5.5371,-5.4297,-5.3437,-5.2949,-5.2246,-5.1406,-5.1406,-5.1406,-5.1406,-5.1406,-5.1406,-5.1406,-5.1406,-5.1406,-5.1406,-5.1406,-5.1406,-5.1406,-5.1406,-5.1406,-5.1406,-5.1406,-5.1719,-5.2266,-5.3125,-5.3437,-5.3574,-5.4453,-5.4394,-5.3926,-5.3535,-5.3691,-5.4023,-5.4121,-5.4433,-5.4844,-5.5332,-5.5742,-5.6035,-5.6035,-5.6035,-5.6133,-5.6523,-5.6601,-5.6601,-5.6601,-5.6992,-5.7324,-5.7324,-5.7734,-5.7871,-5.7383,-5.7324,-5.7148,-5.666,-5.6601,-5.6797,-5.7285,-5.7324,-5.7695,-5.8555,-5.9043,-5.9629,-6.0351,-6.0859,-6.1308,-6.1699,-6.1328,-6.1308,-6.1699,-6.1328,-6.1328,-6.1699,-6.1699,-6.1699,-6.1699,-6.1699,-6.1699,-6.1699,-6.1699,-6.1699,-6.1699,-6.1699,-6.1699,-6.1699,-6.1699,-6.1699,-6.1699,-6.1699,-6.1699,-6.1699]}]]